[[{"header":{"parameterUnit":"m.s-1","parameterCategory":1,"la1":30.6,"la2":28.766,"lo1":-90.7593,"lo2":-88.6598,"dx":0.0162,"dy":0.0183,"nx":116,"ny":114,"refTime":"2022-11-08T06:00:00:Z","depth":0,"parameterNumber":2,"parameterNumberName":"U-component_of_WINDS"},"data":[0.0,0.0,0.0,0.0,0.0,0.0,0.0,0.0,0.0,0.0,0.0,0.0,0.0,0.0,0.0,0.0,0.0,0.0,0.0,0.0,0.0,0.0,0.0,0.0,0.0,0.0,0.0,0.0,0.0,0.0,0.0,0.0,0.0,0.0,0.0,0.0,0.0,0.0,0.0,0.0,0.0,0.0,0.0,0.0,0.0,0.0,0.0,0.0,0.0,0.0,0.0,0.0,0.0,0.0,0.0,0.0,0.0,0.0,0.0,0.0,0.0,0.0,0.0,0.0,0.0,0.0,0.0,0.0,0.0,0.0,0.0,0.0,0.0,0.0,0.0,0.0,0.0,0.0,0.0,0.0,0.0,0.0,0.0,0.0,0.0,0.0,0.0,0.0,0.0,0.0,0.0,0.0,0.0,0.0,0.0,0.0,0.0,0.0,0.0,0.0,0.0,0.0,0.0,0.0,0.0,0.0,0.0,0.0,0.0,0.0,0.0,0.0,0.0,0.0,0.0,0.0,0.0,0.0,0.0,0.0,0.0,0.0,0.0,0.0,0.0,0.0,0.0,0.0,0.0,0.0,0.0,0.0,0.0,0.0,0.0,0.0,0.0,0.0,0.0,0.0,0.0,0.0,0.0,0.0,0.0,0.0,0.0,0.0,0.0,0.0,0.0,0.0,0.0,0.0,0.0,0.0,0.0,0.0,0.0,0.0,0.0,0.0,0.0,0.0,0.0,0.0,0.0,0.0,0.0,0.0,0.0,0.0,0.0,0.0,0.0,0.0,0.0,0.0,0.0,0.0,0.0,0.0,0.0,0.0,0.0,0.0,0.0,0.0,0.0,0.0,0.0,0.0,0.0,0.0,0.0,0.0,0.0,0.0,0.0,0.0,0.0,0.0,0.0,0.0,0.0,0.0,0.0,0.0,0.0,0.0,0.0,0.0,0.0,0.0,0.0,0.0,0.0,0.0,0.0,0.0,0.0,0.0,0.0,0.0,0.0,0.0,0.0,0.0,0.0,0.0,0.0,0.0,0.0,0.0,0.0,0.0,0.0,0.0,0.0,0.0,0.0,0.0,0.0,0.0,0.0,0.0,0.0,0.0,0.0,0.0,0.0,0.0,0.0,0.0,0.0,0.0,0.0,0.0,0.0,0.0,0.0,0.0,0.0,0.0,0.0,0.0,0.0,0.0,0.0,0.0,0.0,0.0,0.0,0.0,0.0,0.0,0.0,0.0,0.0,0.0,0.0,0.0,0.0,0.0,0.0,0.0,0.0,0.0,0.0,0.0,0.0,0.0,0.0,0.0,0.0,0.0,0.0,0.0,0.0,0.0,0.0,0.0,0.0,0.0,0.0,0.0,0.0,0.0,0.0,0.0,0.0,0.0,0.0,0.0,0.0,0.0,0.0,0.0,0.0,0.0,0.0,0.0,0.0,0.0,0.0,0.0,0.0,0.0,0.0,0.0,0.0,0.0,0.0,0.0,0.0,0.0,0.0,0.0,0.0,0.0,0.0,0.0,0.0,0.0,0.0,0.0,0.0,0.0,0.0,0.0,0.0,0.0,0.0,0.0,0.0,0.0,0.0,0.0,0.0,0.0,0.0,0.0,0.0,0.0,0.0,0.0,0.0,0.0,0.0,0.0,0.0,0.0,0.0,0.0,0.0,0.0,0.0,0.0,0.0,0.0,0.0,0.0,0.0,0.0,0.0,0.0,0.0,0.0,0.0,0.0,0.0,0.0,0.0,0.0,0.0,0.0,0.0,0.0,0.0,0.0,0.0,0.0,0.0,0.0,0.0,0.0,0.0,0.0,0.0,0.0,0.0,0.0,0.0,0.0,0.0,0.0,0.0,0.0,0.0,0.0,0.0,0.0,0.0,0.0,0.0,0.0,0.0,0.0,0.0,0.0,0.0,0.0,0.0,0.0,0.0,0.0,0.0,0.0,0.0,0.0,0.0,0.0,0.0,0.0,0.0,0.0,0.0,0.0,0.0,0.0,0.0,0.0,0.0,0.0,0.0,0.0,0.0,0.0,0.0,0.0,0.0,0.0,0.0,0.0,0.0,0.0,0.0,0.0,0.0,0.0,0.0,0.0,0.0,0.0,0.0,0.0,0.0,0.0,0.0,0.0,0.0,0.0,0.0,0.0,0.0,0.0,0.0,0.0,0.0,0.0,0.0,0.0,0.0,0.0,0.0,0.0,0.0,0.0,0.0,0.0,0.0,0.0,0.0,0.0,0.0,0.0,0.0,0.0,0.0,0.0,0.0,0.0,0.0,0.0,0.0,0.0,0.0,0.0,0.0,0.0,0.0,0.0,0.0,0.0,0.0,0.0,0.0,0.0,0.0,0.0,0.0,0.0,0.0,0.0,0.0,0.0,0.0,0.0,0.0,0.0,0.0,0.0,0.0,0.0,0.0,0.0,0.0,0.0,0.0,0.0,0.0,0.0,0.0,0.0,0.0,0.0,0.0,0.0,0.0,0.0,0.0,0.0,0.0,0.0,0.0,0.0,0.0,0.0,0.0,0.0,0.0,0.0,0.0,0.0,0.0,0.0,0.0,0.0,0.0,0.0,0.0,0.0,0.0,0.0,0.0,0.0,0.0,0.0,0.0,0.0,0.0,0.0,0.0,0.0,0.0,0.0,0.0,0.0,0.0,0.0,0.0,0.0,0.0,0.0,0.0,0.0,0.0,0.0,0.0,0.0,0.0,0.0,0.0,0.0,0.0,0.0,0.0,0.0,0.0,0.0,0.0,0.0,0.0,0.0,0.0,0.0,0.0,0.0,0.0,0.0,0.0,0.0,0.0,0.0,0.0,0.0,0.0,0.0,0.0,0.0,0.0,0.0,0.0,0.0,0.0,0.0,0.0,0.0,0.0,0.0,0.0,0.0,0.0,0.0,0.0,0.0,0.0,0.0,0.0,0.0,0.0,0.0,0.0,0.0,0.0,0.0,0.0,0.0,0.0,0.0,0.0,0.0,0.0,0.0,0.0,0.0,0.0,0.0,0.0,0.0,0.0,0.0,0.0,0.0,0.0,0.0,0.0,0.0,0.0,0.0,0.0,0.0,0.0,0.0,0.0,0.0,0.0,0.0,0.0,0.0,0.0,0.0,0.0,0.0,0.0,0.0,0.0,0.0,0.0,0.0,0.0,0.0,0.0,0.0,0.0,0.0,0.0,0.0,0.0,0.0,0.0,0.0,0.0,0.0,0.0,0.0,0.0,0.0,0.0,0.0,0.0,0.0,0.0,0.0,0.0,0.0,0.0,0.0,0.0,0.0,0.0,0.0,0.0,0.0,0.0,0.0,0.0,0.0,0.0,0.0,0.0,0.0,0.0,0.0,0.0,0.0,0.0,0.0,0.0,0.0,0.0,0.0,0.0,0.0,0.0,0.0,0.0,0.0,0.0,0.0,0.0,0.0,0.0,0.0,0.0,0.0,0.0,0.0,0.0,0.0,0.0,0.0,0.0,0.0,0.0,0.0,0.0,0.0,0.0,0.0,0.0,0.0,0.0,0.0,0.0,0.0,0.0,0.0,0.0,0.0,0.0,0.0,0.0,0.0,0.0,0.0,0.0,0.0,0.0,0.0,0.0,0.0,0.0,0.0,0.0,0.0,0.0,0.0,0.0,0.0,0.0,0.0,0.0,0.0,0.0,0.0,0.0,0.0,0.0,0.0,0.0,0.0,0.0,0.0,0.0,0.0,0.0,0.0,0.0,0.0,0.0,0.0,0.0,0.0,0.0,0.0,0.0,0.0,0.0,0.0,0.0,0.0,0.0,0.0,0.0,0.0,0.0,0.0,0.0,0.0,0.0,0.0,0.0,0.0,0.0,0.0,0.0,0.0,0.0,0.0,0.0,0.0,0.0,0.0,0.0,0.0,0.0,0.0,0.0,0.0,0.0,0.0,0.0,0.0,0.0,0.0,0.0,0.0,0.0,0.0,0.0,0.0,0.0,0.0,0.0,0.0,0.0,0.0,0.0,0.0,0.0,0.0,0.0,0.0,0.0,0.0,0.0,0.0,0.0,0.0,0.0,0.0,0.0,0.0,0.0,0.0,0.0,0.0,0.0,0.0,0.0,0.0,0.0,0.0,0.0,0.0,0.0,0.0,0.0,0.0,0.0,0.0,0.0,0.0,0.0,0.0,0.0,0.0,0.0,0.0,0.0,0.0,0.0,0.0,0.0,0.0,0.0,0.0,0.0,0.0,0.0,0.0,0.0,0.0,0.0,0.0,0.0,0.0,0.0,0.0,0.0,0.0,0.0,0.0,0.0,0.0,0.0,0.0,0.0,0.0,0.0,0.0,0.0,0.0,0.0,0.0,0.0,0.0,0.0,0.0,0.0,0.0,0.0,0.0,0.0,0.0,0.0,0.0,0.0,0.0,0.0,0.0,0.0,0.0,0.0,0.0,0.0,0.0,0.0,0.0,0.0,0.0,0.0,0.0,0.0,0.0,0.0,0.0,0.0,0.0,0.0,0.0,0.0,0.0,0.0,0.0,0.0,0.0,0.0,0.0,0.0,0.0,0.0,0.0,0.0,0.0,0.0,0.0,0.0,0.0,0.0,0.0,0.0,0.0,0.0,0.0,0.0,0.0,0.0,0.0,0.0,0.0,0.0,0.0,0.0,0.0,0.0,0.0,0.0,0.0,0.0,0.0,0.0,0.0,0.0,0.0,0.0,0.0,0.0,0.0,0.0,0.0,0.0,0.0,0.0,0.0,0.0,0.0,0.0,0.0,0.0,0.0,0.0,0.0,0.0,0.0,0.0,0.0,0.0,0.0,0.0,0.0,0.0,0.0,0.0,0.0,0.0,0.0,0.0,0.0,0.0,0.0,0.0,0.0,0.0,0.0,0.0,0.0,0.0,0.0,0.0,0.0,0.0,0.0,0.0,0.0,0.0,0.0,0.0,0.0,0.0,0.0,0.0,0.0,0.0,0.0,0.0,0.0,0.0,0.0,0.0,0.0,0.0,0.0,0.0,0.0,0.0,0.0,0.0,0.0,0.0,0.0,0.0,0.0,0.0,0.0,0.0,0.0,0.0,0.0,0.0,0.0,0.0,0.0,0.0,0.0,0.0,0.0,0.0,0.0,0.0,0.0,0.0,0.0,0.0,0.0,0.0,0.0,0.0,0.0,0.0,0.0,0.0,0.0,0.0,0.0,0.0,0.0,0.0,0.0,0.0,0.0,0.0,0.0,0.0,0.0,0.0,0.0,0.0,0.0,0.0,0.0,0.0,0.0,0.0,0.0,0.0,0.0,0.0,0.0,0.0,0.0,0.0,0.0,0.0,0.0,0.0,0.0,0.0,0.0,0.0,0.0,0.0,0.0,0.0,0.0,0.0,0.0,0.0,0.0,0.0,0.0,0.0,0.0,0.0,0.0,0.0,0.0,0.0,0.0,0.0,0.0,0.0,0.0,0.0,0.0,0.0,0.0,0.0,0.0,0.0,0.0,0.0,0.0,0.0,0.0,0.0,0.0,0.0,0.0,0.0,0.0,0.0,0.0,0.0,0.0,0.0,0.0,0.0,0.0,0.0,0.0,0.0,0.0,0.0,0.0,0.0,0.0,0.0,0.0,0.0,0.0,0.0,0.0,0.0,0.0,0.0,0.0,0.0,0.0,0.0,0.0,0.0,0.0,0.0,0.0,0.0,0.0,0.0,0.0,0.0,0.0,0.0,0.0,0.0,0.0,0.0,0.0,0.0,0.0,0.0,0.0,0.0,0.0,0.0,0.0,0.0,0.0,0.0,0.0,0.0,0.0,0.0,0.0,0.0,0.0,0.0,0.0,0.0,0.0,0.0,0.0,0.0,0.0,0.0,0.0,0.0,0.0,0.0,0.0,0.0,0.0,0.0,0.0,0.0,0.0,0.0,0.0,0.0,0.0,0.0,0.0,0.0,0.0,0.0,0.0,0.0,0.0,0.0,0.0,0.0,0.0,0.0,0.0,0.0,0.0,0.0,0.0,0.0,0.0,0.0,0.0,0.0,0.0,0.0,0.0,0.0,0.0,0.0,0.0,0.0,0.0,0.0,0.0,0.0,0.0,0.0,0.0,0.0,0.0,0.0,0.0,0.0,0.0,0.0,0.0,0.0,0.0,0.0,0.0,2.2116,1.7971,0.0,0.0,0.0,0.0,0.0,0.0,0.0,0.0,0.0,0.0,0.0,0.0,0.0,0.0,0.0,0.0,0.0,0.0,0.0,0.0,0.0,0.0,0.0,0.4758,0.4999,0.5018,0.5054,0.0,0.0,0.0,0.0,0.0,0.0,0.0,0.4821,0.4661,0.5411,0.7185,0.7453,0.9008,1.1678,0.9911,0.8734,0.8067,0.0,0.0,0.0,0.0,0.0,0.0,0.0,0.0,0.0,0.0,0.0,0.0,0.0,0.0,0.0,0.0,0.0,0.0,0.0,0.0,0.0,0.0,0.0,0.0,0.0,0.0,0.0,0.0,0.0,0.0,0.0,0.0,0.0,0.0,0.0,0.0,0.0,0.0,0.0,0.0,0.0,0.0,0.0,0.0,0.0,0.0,0.0,0.0,0.0,0.0,0.0,0.0,0.0,0.0,0.0,0.0,0.0,0.0,0.0,0.0,0.0,0.0,0.0,0.0,0.0,0.0,0.0,0.0,0.0,0.0,2.6349,2.3967,0.0,0.0,0.0,0.0,0.0,0.0,0.0,0.0,0.0,0.0,0.0,0.0,0.0,0.0,0.0,0.0,0.0,0.0,0.0,0.0,0.0,0.4439,0.4578,0.5213,0.5668,0.5796,0.5865,0.5902,0.5875,0.5252,0.0,0.0,0.4885,0.4942,0.5086,0.5096,0.6742,1.01,1.0822,1.2645,1.5515,1.5611,1.5001,1.3702,1.1299,0.0,0.0,0.0,0.0,0.0,0.0,0.0,0.0,0.0,0.0,0.0,0.0,0.0,0.0,0.0,0.0,0.0,0.0,0.0,0.0,0.0,0.0,0.0,0.0,0.0,0.0,0.0,0.0,0.0,0.0,0.0,0.0,0.0,0.0,0.0,0.0,0.0,0.0,0.0,0.0,0.0,0.0,0.0,0.0,0.0,0.0,0.0,0.0,0.0,0.0,0.0,0.0,0.0,0.0,0.0,0.0,0.0,0.0,0.0,0.0,0.0,0.0,0.0,2.9212,2.9858,3.0522,3.0658,3.2198,3.4645,3.1226,3.1192,3.3152,2.7426,0.0,0.0,0.0,0.0,0.0,0.0,0.0,0.0,0.0,0.0,0.0,0.0,0.0,0.0,0.0,0.0,0.0,0.0,0.0,0.468,0.5381,0.5602,0.5971,0.6675,0.675,0.646,0.5848,0.5712,0.541,0.4841,0.4815,0.4881,0.4999,0.6394,0.8099,1.0113,1.5588,1.8823,1.9885,2.0481,2.0678,2.0285,1.5062,1.1923,1.0526,0.0,0.0,0.0,0.0,0.0,0.0,0.0,0.0,0.0,0.0,0.0,0.0,0.0,0.0,0.0,0.0,0.0,0.0,0.0,0.0,0.0,0.0,0.0,0.0,0.0,0.0,0.0,0.0,0.0,0.0,0.0,0.0,0.0,0.0,0.0,0.0,0.0,0.0,0.0,0.0,0.0,2.3122,2.2986,0.0,0.0,0.0,0.0,0.0,0.0,0.0,0.0,0.0,0.0,0.0,0.0,0.0,2.7088,2.8134,3.1028,3.2858,3.3611,3.6507,3.8276,3.8922,3.9585,4.0108,4.0509,4.0536,0.0,3.4258,3.269,0.0,0.0,0.0,0.0,0.0,0.0,0.0,0.0,0.0,0.0,0.0,0.0,0.0,0.0,0.0,0.0,0.0,0.0,0.0,0.0,0.0,0.8152,0.9276,1.0054,1.0919,1.0594,0.8514,0.7999,0.687,0.4814,0.4756,0.5217,0.6202,0.7874,1.0973,1.5501,1.9619,2.2055,2.2856,2.3091,2.2992,2.2477,1.9941,1.7115,1.4231,1.3398,0.0,0.0,0.0,0.0,0.0,0.0,0.0,0.0,0.0,0.0,0.0,0.0,0.0,0.0,0.0,0.0,0.0,0.0,0.0,0.0,0.0,0.0,0.0,0.0,0.0,0.0,0.0,0.0,0.0,0.0,0.0,0.0,0.0,0.0,0.0,0.0,0.0,0.0,0.0,2.1941,2.3205,2.3583,2.1515,1.9304,0.0,0.0,0.0,0.0,0.0,0.0,0.0,0.0,0.0,3.1257,3.2119,3.3558,3.5743,3.759,3.8689,3.9006,4.0099,4.0793,4.1088,4.1422,4.1586,4.1648,4.2325,4.1247,3.8877,3.663,3.4075,3.1251,0.0,0.0,0.0,0.0,2.4955,2.5623,0.0,0.0,0.0,0.0,0.0,0.0,0.0,0.0,0.0,0.0,0.0,0.0,0.8671,1.0908,1.2592,1.3279,1.4426,1.3995,1.1321,1.0085,0.8265,0.5611,0.5148,0.5661,0.7116,1.0041,1.4412,2.0276,2.2533,2.3969,2.4547,2.4742,2.4501,2.3901,2.3855,2.1616,1.7835,1.7035,1.4913,1.2003,0.0,0.0,0.0,0.0,0.0,0.0,0.0,0.0,0.0,0.0,0.0,0.0,0.0,0.0,0.0,0.0,0.0,0.0,0.0,0.0,0.0,0.0,0.0,0.0,0.0,0.0,0.0,0.0,0.0,0.0,0.0,0.0,0.0,0.0,0.0,0.0,0.0,2.3803,2.4997,2.5031,2.4738,2.3022,0.0,0.0,0.0,0.0,0.0,0.0,2.8982,3.0572,3.3034,3.6433,3.7489,3.9239,4.1739,4.2253,4.2505,4.2505,4.1981,4.1673,4.1507,4.1925,4.201,4.1894,4.2756,4.3094,4.2879,3.9985,3.8108,3.6613,3.2617,3.047,2.955,2.9326,2.9646,3.0608,0.0,0.0,0.0,0.0,0.0,0.0,0.0,0.0,0.0,0.0,0.0,1.0322,1.0988,1.314,1.4756,1.53,1.5435,1.4809,1.3261,1.1075,0.9219,0.7695,0.6364,0.6066,0.6974,1.3316,1.8317,2.1775,2.3894,2.4819,2.4708,2.5668,2.5993,2.5771,2.5642,2.3702,2.054,1.9765,1.7862,1.5331,1.3894,0.0,0.0,0.0,0.0,0.0,0.0,0.0,0.0,0.0,0.0,0.0,0.0,0.0,0.0,0.0,0.0,0.0,0.0,0.0,0.0,0.0,0.0,0.0,0.0,0.0,0.0,0.0,0.0,0.0,0.0,0.0,0.0,0.0,0.0,0.0,0.0,0.0,0.0,2.8654,3.0555,0.0,0.0,0.0,0.0,2.7435,2.9336,3.2243,3.6148,3.6829,3.8636,4.1974,4.2151,4.2264,4.2458,4.2489,4.2505,4.2505,4.2473,4.2109,4.1555,4.2894,4.3153,4.2633,4.3944,4.4498,4.4375,4.294,4.0786,3.827,3.6931,3.4693,3.2423,3.4159,3.4667,3.493,0.0,0.0,0.0,0.3866,0.4039,0.4208,0.4241,0.4999,0.5727,0.6252,0.8752,1.0965,1.2166,1.4924,1.7042,1.7922,1.8759,1.8207,1.5835,1.3212,1.1278,1.0169,0.8138,0.9036,1.3293,1.7931,2.1455,2.3768,2.5115,2.5875,2.6068,2.6424,2.6531,2.6473,2.6442,2.5822,2.4749,2.2737,2.0474,1.8107,1.7092,1.4877,0.0,0.0,0.0,0.0,0.0,0.0,0.0,0.0,0.0,0.0,0.0,0.0,0.0,0.0,0.0,0.0,0.0,0.0,0.0,0.0,0.0,0.0,0.0,0.0,0.0,0.0,0.0,0.0,0.0,0.0,0.0,0.0,0.0,0.0,0.0,0.0,0.0,2.9489,3.1867,0.0,2.7615,3.1045,3.3171,3.2317,3.5962,3.8851,4.0302,4.0602,4.1401,4.2957,4.3103,4.3151,4.3151,4.3603,4.3841,4.3841,4.338,4.3045,4.2879,4.3354,4.3488,4.3297,4.4089,4.44,4.4351,4.3739,4.2633,4.1258,4.0459,3.9053,3.7496,3.7765,3.7776,3.7832,0.0,0.0,0.0,0.3871,0.4008,0.4153,0.419,0.5123,0.6172,0.7251,1.0111,1.2569,1.3877,1.6776,1.8821,1.9273,2.0099,1.9553,1.7102,1.4502,1.2563,1.1489,1.0203,1.2115,1.7613,2.0385,2.2717,2.4711,2.5518,2.614,2.6561,2.6978,2.7204,2.7308,2.7246,2.7293,2.731,2.5356,2.3265,2.1205,2.0134,1.8032,1.5378,0.0,0.0,0.0,0.0,0.0,0.0,0.0,0.0,0.0,0.0,0.0,0.0,0.0,0.0,0.0,0.0,0.0,0.0,0.0,0.0,0.0,0.0,0.0,0.0,0.0,0.0,0.0,0.0,0.0,0.0,0.0,0.0,0.0,0.0,3.0498,3.3372,3.0824,3.4465,3.558,3.1526,3.5725,3.8456,3.7849,4.1196,4.3382,4.3559,4.3647,4.3872,4.4234,4.4316,4.4286,4.4121,4.4597,4.4776,4.4601,4.4342,4.4007,4.3622,4.4093,4.4014,4.3543,4.4143,4.4305,4.42,4.4143,4.3676,4.2955,4.2096,4.1352,4.061,3.9682,3.9343,3.937,0.0,0.0,0.388,0.3823,0.3913,0.3991,0.3993,0.5366,0.6941,0.8491,1.2344,1.5247,1.6076,1.8583,1.9962,1.9258,1.9185,1.85,1.6917,1.4735,1.2902,1.1598,1.2565,1.5082,1.9303,2.0417,2.2104,2.4472,2.5111,2.5661,2.616,2.7342,2.8061,2.8291,2.8155,2.8118,2.8106,2.7431,2.6259,2.4685,2.3026,2.1294,1.9396,0.0,0.0,0.0,0.0,0.0,0.0,0.0,0.0,0.0,0.0,0.0,0.0,0.0,0.0,0.0,0.0,0.0,0.0,0.0,0.0,0.0,0.0,0.0,0.0,0.0,0.0,0.0,0.0,0.0,0.0,0.0,0.0,0.0,3.0739,3.3839,3.5351,3.305,3.8785,4.1232,3.689,4.0717,4.3579,4.3897,4.4636,4.535,4.6088,4.6098,4.6098,4.611,4.6098,4.5838,4.532,4.532,4.511,4.4635,4.5365,4.5027,4.3703,4.5061,4.483,4.3417,4.4231,4.4404,4.4068,4.4261,4.3938,4.3232,4.1862,4.1436,4.1438,3.9988,3.9431,3.9511,0.3622,0.3699,0.3752,0.3805,0.3842,0.388,0.3925,0.5122,0.664,0.8281,1.1466,1.414,1.5531,1.7495,1.8674,1.8617,1.8453,1.7862,1.6803,1.4442,1.2942,1.2675,1.5844,1.8145,1.9311,2.1127,2.263,2.3784,2.5197,2.6346,2.7192,2.7776,2.8197,2.8526,2.8462,2.8634,2.8913,2.8116,2.7678,2.7407,2.6232,2.4782,2.3165,0.0,0.0,0.0,0.0,0.0,0.0,0.0,0.0,0.0,0.0,0.0,0.0,0.0,0.0,0.0,0.0,0.0,0.0,0.0,0.0,0.0,0.0,0.0,0.0,0.0,0.0,0.0,0.0,0.0,0.0,0.0,3.017,3.3642,3.3195,3.6518,3.8913,3.8619,4.1331,4.2495,4.074,4.3311,4.4978,4.473,4.5373,4.6057,4.666,4.6293,4.6269,4.6672,4.6293,4.5838,4.532,4.5893,4.5905,4.5399,4.6143,4.6027,4.5143,4.5364,4.5209,4.4747,4.4634,4.4809,4.5142,4.5071,4.5019,4.4792,4.2905,4.1886,4.1351,4.0642,4.0234,4.0103,0.3624,0.367,0.3713,0.3742,0.3752,0.3756,0.3767,0.4831,0.6418,0.8608,1.106,1.3355,1.5343,1.6613,1.729,1.7177,1.6983,1.6334,1.5038,1.3614,1.3474,1.4906,1.7409,1.9146,1.9991,2.1656,2.2823,2.3481,2.5086,2.6305,2.7192,2.7537,2.7946,2.8386,2.8544,2.8761,2.9004,2.8693,2.8688,2.8869,2.8354,2.7157,2.5601,2.4661,2.3037,2.1198,2.0282,1.957,1.8936,1.7934,0.0,0.0,0.0,0.0,0.0,0.0,0.0,0.0,0.0,0.0,0.0,0.0,0.0,0.0,0.0,0.0,0.0,0.0,0.0,0.0,0.0,0.0,0.0,0.0,3.4433,3.7383,3.7897,3.9854,4.1473,4.2022,4.3089,4.3879,4.3986,4.5207,4.6068,4.6134,4.6527,4.6926,4.7207,4.696,4.6902,4.7243,4.6913,4.6553,4.6122,4.6547,4.6584,4.6177,4.6813,4.6734,4.5992,4.6109,4.5887,4.5434,4.5243,4.5273,4.546,4.544,4.5599,4.5717,0.0,0.0,0.0,0.0,4.2181,4.2215,0.3614,0.3646,0.3646,0.3646,0.3646,0.362,0.3549,0.45,0.6269,0.9193,1.0892,1.2772,1.5323,1.5974,1.6039,1.5547,1.5445,1.4695,1.3028,1.3025,1.4425,1.7433,1.7856,1.889,2.0739,2.1759,2.2587,2.3256,2.4649,2.5702,2.6412,2.687,2.7395,2.8002,2.8341,2.8538,2.8626,2.9032,2.9233,2.9332,2.948,2.8684,2.7154,2.5563,2.4755,2.426,2.258,2.2381,2.2725,2.1696,0.0,0.0,0.0,0.0,0.0,0.0,0.0,0.0,0.0,0.0,0.0,0.0,0.0,0.0,0.0,0.0,0.0,0.0,0.0,0.0,0.0,0.0,0.0,0.0,3.8826,4.1642,4.3219,4.3301,4.3363,4.3845,4.4422,4.5286,4.644,4.6597,4.6928,4.7652,4.7689,4.7689,4.7689,4.7689,0.0,0.0,0.0,4.7572,4.7197,4.7283,4.7207,4.6891,4.7521,4.7404,4.6647,4.7087,4.6767,4.5868,4.5939,4.5785,4.5564,4.5781,4.619,4.6506,4.513,4.4572,4.4582,4.4595,4.4705,4.4932,0.3264,0.3291,0.3291,0.3291,0.3291,0.3257,0.3126,0.4077,0.5917,0.9041,1.0508,1.2375,1.5279,1.5679,1.5668,1.5513,1.5816,1.5845,1.5434,1.5486,1.6059,1.7244,1.8317,1.9055,1.9463,2.0385,2.1204,2.1884,2.3503,2.4625,2.5322,2.6317,2.6952,2.7319,2.771,2.8127,2.8601,2.8706,2.8942,2.9285,2.9326,2.9125,2.8771,2.8396,2.7695,2.686,2.6278,2.5745,2.526,2.4865,2.3431,2.1686,2.1062,1.8702,0.0,0.0,0.0,0.0,0.0,0.0,0.0,0.0,0.0,0.0,0.0,0.0,0.0,0.0,0.0,0.0,0.0,0.0,0.0,3.5516,3.9802,4.3144,4.4113,4.4791,4.5133,4.4986,4.6043,4.6765,4.6812,4.7201,4.7544,4.7689,4.7689,4.7689,4.7689,4.7689,4.7689,4.7689,4.785,4.7702,4.7197,4.785,4.7913,4.7454,4.8644,0.0,4.8083,4.7914,4.7699,4.7413,4.6564,4.6505,4.695,4.7554,4.8153,4.8559,4.6929,4.6281,4.621,4.6029,4.5966,4.5993,0.304,0.312,0.3196,0.3196,0.3148,0.3084,0.301,0.3618,0.505,0.7712,0.8758,1.0221,1.2732,1.3003,1.293,1.2809,1.3359,1.4102,1.51,1.5725,1.6639,1.7953,1.879,1.9223,1.9195,2.0112,2.0899,2.1505,2.3008,2.4169,2.5018,2.5946,2.659,2.6912,2.7457,2.7883,2.8176,2.8288,2.8584,2.8948,2.906,2.9071,2.9058,2.9115,2.8756,2.816,2.7984,2.8168,2.8455,2.8205,2.7892,2.7435,2.6135,2.3937,2.1179,0.0,0.0,0.0,0.0,0.0,0.0,0.0,0.0,0.0,0.0,0.0,0.0,0.0,0.0,2.7574,3.0671,0.0,3.6117,3.912,4.168,4.3707,4.4939,4.581,4.6345,4.6286,4.6885,4.7298,4.7296,4.7539,4.7689,4.7689,4.7689,4.7689,4.7689,4.7689,4.787,4.8304,4.839,4.8437,4.8342,4.8659,4.862,4.8231,4.9053,4.9243,4.885,4.8959,4.8744,4.8213,4.7668,4.7588,4.7848,4.8528,4.9187,4.9687,4.885,4.8464,4.8453,4.8306,4.81,4.8075,0.2903,0.3035,0.3137,0.3124,0.3048,0.2969,0.2927,0.325,0.4229,0.6322,0.704,0.8102,1.0123,1.0267,1.0189,1.0155,1.0995,1.2342,1.4249,1.5602,1.7073,1.8722,1.9185,1.9382,1.9306,2.0198,2.089,2.1435,2.2765,2.3908,2.4802,2.5608,2.6157,2.6479,2.7123,2.7569,2.7837,2.8059,2.8474,2.9072,2.9205,2.929,2.929,2.9402,2.9276,2.9034,2.9062,2.9936,3.0989,3.07,3.1395,3.2033,3.0132,2.8208,2.5855,2.1872,2.0074,0.0,0.0,0.0,0.0,0.0,0.0,0.0,0.0,2.2491,2.3764,2.7858,2.9988,3.2274,3.5925,3.7455,3.9345,4.2943,4.367,4.4294,4.5895,4.6712,4.7231,4.7416,4.7508,4.7591,4.7772,4.7731,4.7689,4.7689,4.7689,4.7689,4.7689,4.7833,4.8232,4.8884,4.9075,4.9293,4.9446,4.9366,4.9177,4.8893,4.9292,4.9522,4.9619,5.0046,4.9783,4.9055,4.8862,4.8743,4.8716,4.9247,4.9853,5.0375,5.0375,5.0375,5.0375,5.0375,5.0183,5.0076,0.2896,0.2925,0.2919,0.285,0.2883,0.2863,0.2676,0.3075,0.4096,0.6013,0.6765,0.7897,0.9923,0.9772,0.9739,1.0319,1.1761,1.33,1.4888,1.6784,1.8131,1.8769,1.9185,1.9409,1.94,2.0075,2.0686,2.1231,2.2526,2.3488,2.412,2.5127,2.558,2.5635,2.608,2.7013,2.8217,2.8257,2.9188,3.0643,3.0677,3.0683,3.067,3.065,3.0302,2.9934,3.0592,3.0929,3.1061,3.0996,3.0607,3.0053,2.9512,2.8513,2.6871,2.3442,2.1706,2.0289,1.7274,1.8553,2.1295,2.3592,2.4721,2.6784,0.0,3.2336,3.1847,3.5396,3.7573,3.9053,3.9737,4.1353,4.298,4.4188,4.4977,4.5918,4.7341,4.7644,4.7779,4.7974,4.8255,4.8366,4.8094,4.7829,4.7689,4.7689,4.7689,4.7689,4.7689,4.8377,4.8811,4.892,4.9755,4.9925,4.9348,4.9375,4.9323,4.9259,4.9842,5.0435,5.1043,5.0996,5.0925,5.0774,4.9801,4.9622,5.0009,5.0069,5.0488,5.1086,5.1086,5.1086,5.1086,5.1086,5.1046,5.1082,0.2946,0.2997,0.2981,0.2878,0.2838,0.2799,0.2668,0.2814,0.3386,0.4644,0.5064,0.5699,0.6887,0.7086,0.7265,0.7642,1.047,1.252,1.3245,1.6208,1.8137,1.8597,1.9016,1.9306,1.951,1.9968,2.0646,2.1485,2.2407,2.3358,2.4307,2.5127,2.5608,2.5888,2.6263,2.7174,2.8359,2.8359,2.9131,3.0363,3.0363,3.0468,3.065,3.1094,3.1145,3.0801,2.9785,2.9114,0.0,2.9926,2.9452,2.867,3.0177,2.8982,2.6655,2.4635,2.3315,2.2786,2.4129,2.4821,2.5802,2.8506,2.9445,3.0532,3.3675,3.361,3.3909,3.75,3.9217,4.0363,4.1186,4.2783,4.4222,4.4856,4.5626,4.6475,4.7394,4.7499,4.7654,4.8053,4.8231,4.8182,4.7901,4.7772,4.7689,4.7689,4.7689,4.7906,4.8377,4.8739,4.9318,5.0271,5.0543,5.0685,5.0622,4.9979,4.9759,5.0002,5.0143,5.0585,5.1298,5.1688,5.181,5.1706,5.1028,5.0826,5.1007,5.0839,5.0936,5.1206,5.1206,5.1206,5.1206,5.1206,5.1299,5.1486,0.2994,0.3058,0.3048,0.2928,0.2889,0.2838,0.2747,0.268,0.2919,0.3648,0.3779,0.4012,0.4494,0.486,0.5199,0.5498,0.8825,1.1233,1.1954,1.5442,1.7798,1.8481,1.8978,1.938,1.9629,2.0041,2.0758,2.1812,2.2582,2.3518,2.4595,2.5157,2.5566,2.5815,2.6192,2.7121,2.8425,2.8519,2.9235,3.0318,3.0318,3.0313,3.0338,3.0949,3.069,2.9908,2.8663,2.7846,2.7407,2.7927,2.72,2.6393,2.8506,2.7397,2.5246,2.4635,2.3701,2.3658,2.7295,2.8258,2.8878,3.1526,3.3038,3.4016,3.4588,3.4733,3.5552,3.8522,4.0014,4.1163,4.238,4.3933,4.5268,4.5905,4.6413,4.6903,4.7463,4.7537,4.7646,4.7942,4.7975,4.7921,4.771,4.7689,4.7797,4.8015,4.8015,4.8377,4.9173,4.9427,5.009,5.126,5.1342,5.1383,5.1502,5.0662,5.0405,5.0806,5.0626,5.0952,5.1666,5.2376,5.2715,5.2747,5.247,5.2358,5.2315,5.188,5.1727,5.175,5.1503,5.1416,5.1416,5.1416,5.1509,5.1672,0.2987,0.3058,0.3048,0.2928,0.3003,0.3012,0.282,0.2787,0.298,0.3533,0.3607,0.3682,0.39,0.3931,0.4264,0.5055,0.7322,0.9636,1.1857,1.4974,1.7269,1.8434,1.9249,1.969,1.9699,2.0348,2.1139,2.2101,2.3105,2.3985,2.4795,2.5152,2.5201,2.5054,2.5387,2.6611,2.842,2.8817,2.9833,3.115,3.115,3.0702,3.0007,3.005,2.8479,2.643,2.772,2.8176,2.7732,2.4859,2.3327,2.269,2.2911,2.2645,2.2334,2.2896,2.2345,2.1854,2.3312,2.5953,2.8925,3.154,3.5139,3.8001,3.8037,3.8037,3.8366,3.9459,4.1196,4.2838,4.3863,4.5346,4.6717,4.7566,4.7479,4.7454,4.8016,4.8087,4.8005,4.7741,4.771,4.7699,4.7689,4.7689,4.8015,4.8811,4.8847,4.9209,5.0028,5.0789,5.126,5.1296,5.2045,5.2066,5.134,5.1276,5.1376,5.1576,5.148,5.1856,5.2571,5.3141,5.3682,5.4263,5.4236,5.4239,5.4147,5.3306,5.3042,5.3152,5.2306,5.1979,5.1979,5.1979,5.181,5.1665,0.3186,0.3247,0.3293,0.3251,0.3279,0.3283,0.3196,0.308,0.307,0.3241,0.3334,0.0,0.0,0.0,0.0,0.0,0.7655,0.9793,1.1061,1.4053,1.6321,1.7519,1.8682,1.9435,1.9699,2.0847,2.1675,2.2224,2.3553,2.4452,2.4946,2.5045,2.5314,2.5723,2.5861,2.7099,2.9149,2.9264,2.9911,3.0864,3.0864,3.0092,2.8989,2.9467,2.7557,2.4433,0.0,2.2417,2.1594,2.1314,1.9956,1.8833,2.1545,2.0378,1.8268,1.9467,2.1598,2.4251,2.7361,2.9916,3.2416,3.5413,3.7204,3.8182,3.8182,3.8182,3.8657,4.0173,3.9795,3.9606,4.1148,4.2795,4.3926,4.4024,4.6167,4.7716,4.7353,4.7302,4.7138,4.6695,4.6936,4.7162,4.7162,4.7977,4.863,4.8884,4.9401,5.0064,5.0861,5.1151,5.155,5.2093,5.2184,5.2209,5.2213,5.1563,5.1657,5.2469,5.2303,5.2606,5.3339,5.4017,5.4771,5.5549,5.5437,5.5355,5.5288,5.4285,5.3902,5.3881,5.2985,5.2659,5.2614,5.2306,5.2124,5.2101,0.3307,0.3365,0.3396,0.3391,0.3416,0.0,0.0,0.0,0.0,0.0,0.0,0.0,0.0,0.0,0.0,0.0,0.0,0.9239,1.0358,1.2941,1.4916,1.6114,1.6941,1.7574,1.8128,1.8998,1.9892,2.0751,2.2495,2.3735,2.4529,2.4861,2.5227,2.5625,2.6119,2.7178,2.8721,2.9583,2.9891,2.9812,2.9592,2.8319,2.6557,2.6331,2.4232,0.0,1.9395,1.7873,1.6716,1.7232,1.6514,1.5882,1.8775,1.8595,1.7584,1.8858,2.2002,2.5928,3.0039,3.2271,3.4154,3.7385,3.8182,3.8182,3.8182,3.84,3.9131,4.0848,3.9613,3.8791,4.0541,4.1988,4.2529,4.1457,4.4565,4.6731,4.5754,4.5869,4.6055,4.6089,4.6389,4.6801,4.726,4.8355,4.9117,4.9307,5.0064,5.0861,5.1695,5.1731,5.1984,5.248,5.2114,5.2192,5.2692,5.1842,5.1951,5.3033,5.3059,5.3514,5.4321,5.491,5.5714,5.6583,5.6473,5.6406,5.6328,5.53,5.4964,5.4911,5.4062,5.3545,5.3337,5.3007,5.2704,5.2419,0.332,0.3378,0.3453,0.0,0.0,0.0,0.0,0.0,0.0,0.0,0.0,0.0,0.0,0.0,0.0,0.0,0.0,0.0,0.9815,1.1668,1.3214,1.4339,1.4293,1.4572,1.5279,1.534,1.6216,1.8004,2.0116,2.194,2.3481,2.438,2.4676,2.4479,2.5757,2.6546,2.7044,2.9287,2.9349,2.7888,2.7265,2.543,2.2888,2.1102,1.8947,1.6807,1.6157,1.4895,1.3448,1.2934,1.3308,1.4193,1.5153,1.7488,2.0072,2.1105,2.3634,2.7023,3.1201,3.2958,3.4371,3.7421,3.8218,3.8255,3.8255,3.8871,3.984,4.1243,4.04,3.9894,4.1314,4.2387,4.2277,3.9975,4.2859,4.4936,4.3633,4.4081,4.4935,4.6005,4.6144,4.6693,4.8033,4.8912,4.96,5.0104,5.0898,5.1695,5.2444,5.248,5.248,5.248,5.1933,5.1981,5.2724,5.216,5.2352,5.3229,5.3761,5.4499,5.5398,5.5773,5.6452,5.7327,5.7327,5.7327,5.7271,5.6433,5.6165,5.6264,5.5426,5.4632,5.4041,5.3998,5.3456,5.2676,0.0,0.0,0.0,0.0,0.0,0.0,0.0,0.0,0.0,0.0,0.0,0.0,0.0,0.0,0.0,0.0,0.0,0.0,0.9092,1.0505,1.175,1.2753,1.4227,1.5161,1.543,1.6754,1.7662,1.8058,1.9423,2.016,2.0366,2.0606,2.0767,2.0905,2.1325,2.1991,2.2854,2.3436,2.3504,2.3144,2.2911,2.1809,2.0321,2.0365,1.8309,1.5396,1.5787,1.4551,1.2853,1.3225,1.4999,1.7379,1.9451,2.114,2.2811,2.4986,2.7977,3.1078,3.3371,3.5457,3.7168,3.8001,3.8653,3.9088,3.9088,3.9695,4.0012,3.926,3.6777,3.4375,3.3175,3.5892,3.8006,3.6967,4.2246,4.6212,4.5494,4.5226,4.5427,4.6309,4.6749,4.7528,4.8841,5.0088,5.0846,5.0995,5.1731,5.2263,5.248,5.248,5.248,5.248,5.2364,5.2468,5.2915,5.3013,5.3111,5.3229,5.3901,5.464,5.5434,5.6065,5.6878,5.7753,5.7753,5.7753,5.7717,5.7364,5.72,5.7181,5.6303,5.5487,5.4674,5.4168,5.3456,5.2676,0.0,0.0,0.0,0.0,0.0,0.0,0.0,0.0,0.0,0.0,0.0,0.0,0.0,0.0,0.0,0.0,0.0,0.0,0.0,0.9589,1.0448,1.1025,1.1967,1.2668,1.3074,1.3488,1.4467,1.6138,1.597,1.6791,1.8554,1.7908,1.8015,1.8795,1.9248,1.9858,2.0565,2.1492,2.1494,0.0,0.0,1.9487,1.8028,1.7568,1.6112,1.4334,1.4727,1.559,1.6565,1.6974,1.9125,2.177,2.2641,2.4033,2.5816,2.8095,3.0899,3.3573,3.4971,3.6755,3.8178,3.8115,3.8762,3.8972,3.7375,3.801,3.821,3.5574,3.2928,3.0699,2.9498,3.3109,3.5784,3.4457,4.0959,4.5881,4.4985,4.521,4.583,4.6756,4.7433,4.8365,4.9686,5.0521,5.1187,5.178,5.2226,5.248,5.248,5.248,5.248,5.248,5.2316,5.2364,5.2689,5.3237,5.3433,5.3331,5.4324,5.5065,5.5558,5.6547,5.7327,5.79,5.79,5.7845,5.7753,5.7643,5.7606,5.7551,5.7067,5.64,5.5656,5.5292,5.4444,5.3525,0.0,0.0,0.0,0.0,0.0,0.0,0.0,0.0,0.0,0.6225,0.595,0.5759,0.5759,0.6304,0.0,0.0,0.0,0.0,0.0,0.0,0.9357,0.9503,0.9211,0.9389,1.0029,0.8846,0.985,1.3171,1.1545,1.276,1.6586,1.5218,1.5271,1.6543,1.746,1.8062,1.8474,2.0393,2.0524,1.9327,1.8824,1.7614,1.5932,0.0,1.3581,1.3601,1.3573,1.6954,2.144,2.1525,2.377,2.6404,2.5491,2.6773,2.8969,3.0844,3.3072,3.5126,3.6165,3.728,3.8078,3.8027,3.8752,3.8553,3.5026,3.5645,3.5763,3.1408,2.9311,2.8092,2.758,3.1576,3.4361,3.2625,3.9389,4.4643,4.4021,4.51,4.6364,4.7585,4.8335,4.9303,5.0652,5.0772,5.1263,5.2421,5.248,5.248,5.248,5.248,5.2518,5.252,5.2311,5.2284,5.2413,5.3145,5.3518,5.3518,5.4814,5.554,5.5733,5.7042,5.7735,5.79,5.79,5.7808,5.7643,5.7643,5.7643,5.7643,5.7643,5.7218,5.6594,5.6674,5.583,5.458,0.0,0.0,0.0,0.0,0.0,0.0,0.0,0.0,0.0,0.0,0.7734,0.6505,0.0,0.0,0.0,0.0,0.0,0.0,0.0,0.0,0.0,0.9009,0.9645,1.0083,1.0321,1.0043,1.0203,1.0883,0.9901,0.9762,1.0363,1.0018,0.9998,1.0208,1.1054,1.1777,1.246,1.3556,1.4233,1.4603,1.4483,1.4324,1.4116,1.356,1.3469,0.0,1.3428,1.6492,2.0686,2.1193,2.4717,2.9022,2.9717,3.0791,3.2172,3.4051,3.5551,3.6696,3.714,3.7443,3.7665,3.7948,3.8896,3.9125,3.6479,3.6471,3.5292,2.9264,2.7119,2.5338,2.2307,2.6567,3.1096,3.2886,3.8528,4.3746,4.6819,4.7145,4.7766,4.9707,5.0077,5.07,5.2039,5.2147,5.2254,5.248,5.248,5.248,5.248,5.248,5.257,5.2679,5.3406,5.3549,5.3051,5.3343,5.3518,5.3518,5.4954,5.5664,5.5767,5.7169,5.7863,5.79,5.79,5.7881,5.7845,5.7845,5.7845,5.7845,5.7845,5.7331,5.6641,5.7093,5.6127,5.4665,0.0,0.0,0.0,0.0,0.0,0.0,0.0,0.9612,1.0289,1.1404,1.08,0.9849,0.8699,0.817,0.797,0.0,0.0,0.0,0.0,0.0,0.0,0.8983,0.9481,0.9756,0.9785,0.9301,0.9576,1.0648,0.0,0.7773,0.9132,0.7587,0.7503,0.861,0.8994,0.9825,1.095,1.1893,1.2519,1.2871,1.3346,1.3542,1.3544,1.337,1.3345,0.0,1.332,1.6638,2.0864,1.9884,2.3974,2.9687,3.079,3.201,3.3352,3.5024,3.5945,3.6559,3.7108,3.767,3.8093,3.7975,3.9382,3.9442,3.4041,3.37,3.2314,2.4664,2.2983,2.2252,2.0083,2.4427,2.8911,3.0613,3.7445,4.3344,4.5702,4.7966,4.9758,5.0795,5.1298,5.1777,5.2432,5.248,5.248,5.248,5.2198,5.2042,5.2042,5.2449,5.2766,5.2944,5.3765,5.3933,5.3351,5.3431,5.3518,5.3518,5.46,5.5344,5.5733,5.6833,5.7543,5.79,5.79,5.79,5.79,5.79,5.79,5.79,5.79,5.7823,5.7759,5.8093,5.7372,5.6259,0.0,0.0,0.0,0.0,0.0,0.0,0.0,1.0673,1.1393,1.3304,1.3749,1.3181,1.1263,0.9594,0.8555,0.0,0.0,0.0,0.0,0.0,0.0,0.0,0.9237,0.9242,0.9134,0.0,0.0,1.0128,0.6907,0.0,0.0,0.0,0.0,0.0,0.8206,0.9153,1.0722,1.1329,1.188,0.0,0.0,1.3152,1.3163,0.0,0.0,0.0,0.0,1.6131,1.9665,1.8364,2.2103,2.7563,2.9142,3.1128,3.3143,3.447,3.5233,3.5901,3.6956,3.7881,3.854,3.8471,4.0014,3.9525,3.1714,3.0975,2.9547,2.1037,1.9681,1.9884,1.9453,2.3211,2.6934,2.86,3.5457,4.1479,4.4015,4.7637,5.039,5.1441,5.2129,5.248,5.248,5.248,5.248,5.248,5.1966,5.166,5.166,5.2598,5.3126,5.3203,5.3898,5.3991,5.3484,5.3518,5.3518,5.3518,5.4262,5.5006,5.5733,5.6443,5.7205,5.79,5.79,5.79,5.79,5.79,5.79,5.79,5.79,5.8263,5.877,5.8848,5.8411,5.7776,0.0,0.0,0.0,0.0,0.0,0.0,0.0,1.1207,1.2558,1.5832,1.5497,1.4575,1.3574,1.1984,1.0247,0.0,0.0,0.0,0.0,0.0,0.0,0.0,0.0,0.0,0.0,0.0,0.0,0.7378,0.627,0.0,0.0,0.0,0.0,0.0,0.0,0.8131,0.9849,0.9288,0.0,0.0,0.0,0.0,0.0,0.0,0.0,0.0,0.0,1.3756,1.4714,1.7091,1.8933,2.0716,2.3584,2.7635,3.1469,3.2214,3.36,3.5337,3.7425,3.8094,3.847,3.9831,4.0688,3.9387,3.2604,3.1061,2.8972,2.1457,1.9525,1.9417,2.0065,2.1798,2.4587,2.8987,3.1662,3.6001,4.4077,4.5562,4.7482,5.1876,5.2444,5.248,5.248,5.248,5.248,5.248,5.21,5.1862,5.1862,5.3282,5.3806,5.3237,5.3955,5.4102,5.3518,5.3518,5.3518,5.3518,5.4262,5.5006,5.5733,5.6443,5.7205,5.79,5.79,5.79,5.79,5.79,5.79,5.79,5.79,5.8337,5.895,5.8575,5.8302,5.8017,0.0,0.0,0.0,0.0,0.0,0.0,1.078,1.0987,1.2285,1.6144,1.6458,1.6173,1.5832,1.4477,1.2218,0.8827,0.0,0.0,0.0,0.0,0.0,0.0,0.0,0.0,0.0,0.0,0.7671,0.737,0.6672,0.0,0.0,0.0,0.0,0.0,0.0,0.7991,0.917,0.9384,0.0,0.0,0.0,0.0,0.0,0.0,0.0,0.0,0.0,0.0,1.4413,1.4948,1.699,1.9367,1.9608,2.2635,2.6757,3.0463,3.2652,3.4557,3.7472,3.9094,3.9975,4.0306,3.9741,3.7586,3.1818,2.9031,2.6057,2.0281,1.8917,1.9011,1.9964,2.103,2.2911,2.6355,2.9886,3.3755,3.8238,4.2592,4.6178,4.8605,5.0597,5.1984,5.2444,5.2951,5.3123,5.2815,5.2747,5.2542,5.2176,5.311,5.3571,5.3388,5.4031,5.4106,5.3518,5.3518,5.3518,5.3518,5.3788,5.4566,5.5699,5.6003,5.6799,5.79,5.79,5.79,5.79,5.79,5.79,5.7934,5.8389,5.8939,5.9472,5.9338,5.9084,5.8661,0.0,0.0,0.0,0.0,0.0,0.8706,1.0783,1.0922,1.21,1.586,1.648,1.6649,1.6814,1.5295,1.3074,1.0022,0.9204,0.0,0.0,0.0,0.0,0.0,0.0,0.0,0.0,0.0,0.7801,0.7528,0.7131,0.6921,0.0,0.0,0.7096,0.7682,0.0,0.0,0.0,0.0,0.0,0.0,0.0,0.0,0.0,0.0,0.0,0.0,0.0,0.0,0.0,0.0,0.0,1.7861,1.7191,1.9022,2.2395,2.7739,3.0895,3.3369,3.6807,3.9388,4.1099,4.1141,3.9478,3.6459,3.128,2.7706,2.4141,1.9369,1.8433,1.8797,1.9805,2.0635,2.1996,2.4565,2.8033,3.1401,3.4218,3.8962,4.2745,4.4403,4.6813,4.8914,5.0507,5.2365,5.3271,5.2766,5.3037,5.2943,5.2333,5.2976,5.3383,5.3501,5.3897,5.393,5.3518,5.3518,5.3518,5.3518,5.3721,5.4499,5.5699,5.5936,5.6697,5.79,5.79,5.79,5.79,5.79,5.8035,5.8269,5.8515,5.9098,5.9783,5.9243,5.8972,5.8786,0.0,0.0,0.0,0.0,0.0,0.0,1.0586,1.1192,1.2386,1.5161,1.5405,1.5541,1.6139,1.3883,1.231,1.228,1.0192,0.0,0.0,0.0,0.0,0.0,0.0,0.0,0.0,0.0,0.768,0.7417,0.7451,0.7579,0.7794,0.7982,0.8263,0.8571,0.0,0.0,0.0,0.0,0.0,0.0,0.0,0.0,1.0984,0.0,0.0,0.0,0.0,0.0,0.0,0.0,0.0,0.0,0.0,1.7569,1.9109,2.3563,2.7799,3.1759,3.5198,3.856,4.1391,4.257,4.0329,3.6502,3.1535,2.7876,2.4097,1.9137,1.8333,1.8797,1.9805,2.059,2.1949,2.4565,2.5709,2.8208,3.382,3.4653,3.6085,3.974,4.0847,4.2628,4.6023,5.0387,5.2764,5.2164,5.2793,5.2925,5.2333,5.3044,5.3484,5.3518,5.3518,5.3518,5.3518,5.3518,5.3518,5.3518,5.4228,5.4972,5.5733,5.6461,5.7205,5.79,5.79,5.79,5.79,5.79,5.8321,5.8905,5.7981,5.8541,5.9647,5.7722,5.7533,5.8072,0.0,0.0,0.0,0.0,0.0,0.0,0.0,0.9512,1.0336,1.2921,1.3183,1.371,1.5277,1.3558,1.2245,1.2162,1.0255,0.0,0.0,0.0,0.0,0.0,0.0,0.0,0.0,0.7953,0.8397,0.8762,0.9671,0.9944,0.9656,0.989,0.951,0.8613,0.8686,0.8842,0.0,0.0,0.0,0.0,0.0,1.0998,1.124,0.0,0.0,0.0,0.0,0.0,0.0,0.0,0.0,0.0,0.0,0.0,0.0,2.0324,2.435,2.8491,3.0761,3.308,3.4778,3.467,3.2384,2.9429,2.6697,2.3835,2.1009,1.8444,1.796,1.834,1.934,1.9813,2.1276,2.4997,2.5924,2.7411,3.0828,3.5225,3.8514,3.9695,4.4961,4.9334,5.1476,5.2564,5.3298,5.3632,5.3498,5.3328,5.3112,5.3382,5.3518,5.3518,5.3518,5.3518,5.3518,5.3518,5.3518,5.3518,5.3754,5.4499,5.5699,5.5936,5.6731,5.79,5.79,5.79,5.7879,5.7754,5.8217,5.895,5.835,5.8888,5.9746,5.832,5.7967,5.8072,0.0,0.0,0.0,0.0,0.0,0.0,0.0,0.883,0.9461,1.1063,1.1246,1.202,1.4217,1.2339,1.1239,1.2036,1.0065,0.0,0.0,0.0,0.0,0.0,0.0,0.0,0.7276,0.782,0.8693,0.988,1.1905,1.2598,1.2055,1.2675,1.1826,0.9792,0.9672,0.9296,0.0,0.0,0.0,0.0,1.0382,1.1087,1.1377,0.0,0.0,0.0,0.0,0.0,0.0,0.0,0.0,0.0,0.0,0.0,0.0,0.0,2.1224,2.4432,2.7091,2.9562,3.1339,3.1145,2.8514,2.5694,2.4614,2.1817,1.9095,1.7881,1.7721,1.8008,1.8728,1.9434,2.0879,2.3892,2.5224,2.7091,3.054,3.461,3.7952,3.9841,4.5686,5.0151,5.1676,5.2719,5.353,5.4008,5.3701,5.3518,5.3518,5.3518,5.3518,5.3518,5.3518,5.3518,5.3518,5.3518,5.3518,5.3518,5.3788,5.4532,5.5699,5.6003,5.6765,5.79,5.79,5.8051,0.0,5.8179,5.8619,5.9265,5.8659,5.8734,5.9134,5.8045,5.7653,5.7613,0.0,0.0,0.0,0.0,0.0,0.0,0.0,0.8977,0.948,0.9683,0.9663,1.0482,1.2793,1.0436,0.9507,1.1618,0.0,0.0,0.0,0.0,0.0,0.0,0.0,0.0,0.7116,0.7537,0.8739,1.0782,1.394,1.5331,1.5024,1.5928,1.4785,1.1886,1.1314,1.0202,0.8731,0.8731,0.8731,0.8905,1.0467,1.1144,0.0,0.0,0.0,0.0,0.0,0.0,0.0,0.0,0.0,0.0,0.0,0.0,0.0,0.0,0.0,0.0,0.0,2.7245,2.9868,3.0477,2.7504,2.4412,2.4292,2.1272,0.0,1.7551,1.7612,1.7889,1.8187,1.9383,2.0726,2.2019,2.405,2.7247,3.237,3.3644,3.5768,4.0482,4.4068,4.665,4.7853,5.1336,5.3518,5.3518,5.3518,5.3518,5.3518,5.3518,5.3518,5.3518,5.3518,5.3518,5.3518,5.3518,5.3518,5.3518,5.4262,5.5006,5.5733,5.6443,5.7205,5.79,5.7967,5.8355,5.9013,5.895,5.9332,5.9791,5.8711,5.8246,5.8096,5.7139,5.681,5.681,0.0,0.0,0.0,0.0,0.0,0.0,0.0,0.0,0.0,0.0,0.8801,0.9013,0.9603,0.8915,0.8552,0.0,0.0,0.0,0.0,0.0,0.0,0.0,0.0,0.0,0.7112,0.8473,0.995,1.146,1.4237,1.6725,1.8923,1.7602,1.5509,1.2832,1.2114,1.0683,0.886,0.886,0.915,0.9701,1.0625,1.1417,0.0,0.0,0.0,0.0,1.4316,1.4674,0.0,0.0,0.0,0.0,0.0,0.0,0.0,0.0,1.769,1.8234,1.8676,0.0,2.1753,2.1318,2.0629,1.9879,0.0,1.8709,1.8305,1.7551,1.7612,1.8172,1.9343,1.9503,2.0747,2.4573,2.5778,2.8072,3.3319,3.8772,4.2989,4.5094,4.8538,5.0236,4.8883,5.1623,5.3518,5.3518,5.3518,5.3518,5.3518,5.3518,5.3518,5.3518,5.3518,5.3518,5.3518,5.3518,5.3518,5.3518,5.4262,5.5006,5.5733,5.6443,5.7205,5.7934,5.849,5.8844,5.8987,5.8665,5.9078,5.9713,5.7888,5.759,5.8096,5.7139,5.681,5.681,0.0,0.0,0.0,0.0,0.0,0.0,0.0,0.0,0.0,0.0,0.0,0.8264,0.8264,0.8136,0.0,0.0,0.0,0.0,0.0,0.0,0.0,0.0,0.0,0.7112,0.7112,0.8394,1.0239,1.2618,1.4522,1.7099,2.0217,1.8877,1.681,1.4158,1.1969,1.0181,0.8819,0.9162,0.9527,0.9945,1.1035,0.0,0.0,0.0,0.0,0.0,1.4573,1.4842,0.0,1.6486,1.6954,1.7023,0.0,0.0,0.0,0.0,1.6638,1.6735,1.6556,1.7762,1.9089,1.8945,1.8713,1.8437,1.8218,1.7992,1.7716,1.7304,1.7809,1.8662,1.9805,2.144,2.3157,2.4673,2.8175,3.2173,3.644,4.1164,4.4953,4.7048,4.907,5.0491,5.1014,5.2536,5.3518,5.3518,5.3518,5.3518,5.3518,5.3518,5.3518,5.3518,5.3518,5.3518,5.3518,5.3518,5.3518,5.3518,5.4262,5.5006,5.5733,5.6443,5.7205,5.7934,5.8693,5.8942,5.8872,5.9017,5.912,5.9004,5.7869,5.7495,5.7495,5.7002,5.681,5.681,0.0,0.0,0.0,0.0,0.0,0.0,0.0,0.0,0.0,0.0,0.0,0.0,0.0,0.0,0.0,0.0,0.0,0.0,0.0,0.0,0.0,0.0,0.7112,0.722,0.7518,0.8143,1.017,1.3651,1.4901,1.6993,1.9847,1.9877,1.8284,1.5322,1.1736,0.9623,0.8782,0.94,0.9772,1.0098,1.136,0.0,0.0,0.0,0.0,0.0,0.0,0.0,0.0,1.7082,1.7895,1.8131,1.7792,0.0,0.0,0.0,0.0,0.0,1.6199,1.7967,1.9662,1.9667,1.908,1.8656,1.921,1.8286,1.7326,1.7376,1.8282,1.9547,2.1096,2.4011,2.5921,2.5067,3.1316,3.7369,4.0506,4.3065,4.5432,4.7642,4.8428,4.9814,5.257,5.3247,5.3518,5.3518,5.3518,5.3518,5.3518,5.3518,5.3518,5.3518,5.3518,5.3518,5.3518,5.3518,5.3518,5.3518,5.4363,5.5108,5.5733,5.6596,5.7306,5.7967,5.8795,5.8979,5.8773,5.9552,5.9188,5.8188,5.8049,5.7519,5.681,5.681,5.681,5.681,0.0,0.0,0.0,0.0,0.0,0.0,0.0,0.0,0.0,0.0,0.0,0.0,0.0,0.0,0.0,0.0,0.0,0.0,0.0,0.0,0.0,0.7112,0.7112,0.7815,0.9362,0.9225,1.0531,1.336,1.5474,1.7127,1.8391,2.0519,1.9309,1.5229,1.2807,1.0681,0.8877,0.8981,0.9732,1.0841,1.1112,0.0,0.0,0.0,0.0,0.0,0.0,0.0,0.0,1.5396,1.6599,1.7861,1.5914,0.0,0.0,0.0,0.0,0.0,1.6333,1.9476,2.1971,1.8848,1.8469,1.8931,1.9036,1.8908,1.8852,1.9154,1.9541,2.1434,2.6666,2.5583,2.5642,3.1011,3.6118,4.0684,4.4316,4.8331,5.0177,4.8139,5.0694,5.186,4.9898,5.1995,5.3518,5.3518,5.3518,5.3518,5.3518,5.3518,5.3518,5.3518,5.3518,5.3518,5.3518,5.3518,5.3518,5.3518,5.4887,5.5597,5.5767,5.7103,5.7798,5.8001,5.9336,5.9468,5.8766,5.9389,5.9049,5.8119,5.733,5.693,5.681,5.681,5.681,5.681,0.0,0.0,0.0,0.0,0.0,0.0,0.0,0.0,0.0,0.0,0.0,0.0,0.0,0.0,0.0,0.0,0.0,0.0,0.0,0.0,0.7515,0.8416,0.8206,0.846,0.9297,1.0292,1.2154,1.4907,1.6808,1.8566,2.0141,1.9359,1.7271,1.4079,1.1875,1.0195,0.8964,0.9394,1.012,1.1027,0.0,0.0,0.0,0.0,0.0,0.0,0.0,0.0,0.0,0.0,1.7033,1.7437,1.6831,0.0,0.0,0.0,0.0,0.0,1.56,1.7768,2.002,2.0488,2.2578,2.4618,2.5037,2.4953,2.4513,2.3442,2.376,2.5187,2.84,2.9204,3.2002,3.994,4.092,4.2138,4.6297,4.7597,4.8206,4.8477,5.0033,5.115,5.142,5.2706,5.3518,5.3518,5.3518,5.3518,5.3518,5.3518,5.3518,5.3518,5.3518,5.3518,5.3518,5.3518,5.3518,5.3518,5.4989,5.5699,5.5767,5.7239,5.79,5.7931,5.8911,5.8827,5.7976,5.8588,5.8272,5.7401,5.6978,5.681,5.681,5.681,5.681,5.681,0.0,0.0,0.0,0.0,0.0,0.0,0.0,0.0,0.0,0.0,0.0,0.0,0.0,0.0,0.0,0.0,0.0,0.0,0.0,0.6899,0.7663,0.9111,0.91,0.9454,1.0316,1.1643,1.3756,1.6585,1.8115,2.0005,2.2096,1.8615,1.5813,1.361,1.1418,0.9912,0.9048,0.9608,1.0297,1.1103,0.0,0.0,0.0,0.0,0.0,0.0,0.0,0.0,0.0,0.0,0.0,0.0,0.0,0.0,0.0,1.5793,1.4708,1.4167,1.5348,1.6823,1.8941,2.2625,2.5493,2.8039,3.0229,2.9919,2.8949,2.8126,2.8584,2.9422,3.0388,3.3423,3.8058,4.4945,4.4061,4.3985,4.833,4.7481,4.7315,4.9781,5.0067,5.098,5.3281,5.3518,5.3518,5.3518,5.3518,5.3518,5.3518,5.3518,5.3518,5.3518,5.3314,5.3297,5.3518,5.3144,5.3211,5.3788,5.509,5.58,5.6003,5.7306,5.79,5.7946,5.8452,5.8167,5.7356,5.7951,5.766,5.681,5.681,5.681,5.681,5.681,5.681,5.6816,0.0,0.0,0.0,0.0,0.0,0.0,0.0,0.0,0.0,0.0,0.0,0.0,0.0,0.0,0.0,0.0,0.0,0.0,0.0,0.6715,0.7083,0.7891,0.892,1.107,1.4478,1.3612,1.4566,1.7502,1.8922,2.0664,2.2596,1.9718,1.7205,1.5052,1.3034,1.0944,0.9014,0.9048,0.9884,1.1185,1.119,0.0,0.0,0.0,0.0,0.0,0.0,0.0,0.0,0.0,0.0,0.0,0.0,0.0,1.5602,1.5305,1.5037,1.5126,1.6642,1.924,2.2064,2.4223,2.348,2.3944,3.0485,2.9743,2.8656,3.2168,3.2963,3.3446,3.4867,3.7628,3.9893,4.0582,4.3848,4.7645,5.1458,5.1848,5.2092,5.3062,5.3179,5.3281,5.3484,5.3518,5.3518,5.3518,5.3518,5.3518,5.3518,5.3518,5.3518,5.3518,5.2781,5.2746,5.3501,5.2023,5.2371,5.455,5.5327,5.6071,5.6765,5.7543,5.79,5.7946,5.8452,5.8167,5.7356,5.7951,5.766,5.681,5.681,5.681,5.681,5.681,5.681,5.6902,0.0,0.0,0.0,0.0,0.0,0.0,0.0,0.0,0.0,0.0,0.0,0.0,0.0,0.0,0.0,0.0,0.0,0.0,0.0,0.6689,0.7418,0.8741,0.9332,1.0777,1.3279,1.4479,1.6333,1.8921,2.0217,2.0838,2.0695,1.737,1.517,1.3892,1.1359,1.0097,0.9772,0.9283,0.989,1.1192,1.1162,1.1713,0.0,0.0,0.0,0.0,0.0,0.0,0.0,0.0,1.5516,1.5916,1.5916,1.6245,1.6575,1.6028,1.5253,1.4845,1.6246,1.9071,2.2126,2.4389,2.5266,2.7256,3.384,3.5015,3.4879,3.5385,3.6975,3.7855,3.6569,4.1056,4.4505,4.3051,4.6967,5.0676,5.2113,5.2319,5.2414,5.2729,5.2764,5.2938,5.3433,5.3518,5.3518,5.3518,5.3518,5.3518,5.3518,5.3518,5.328,5.2781,5.2938,5.2696,5.2023,5.1897,5.2277,5.3111,5.3818,5.4787,5.5985,5.6192,5.6561,5.7096,5.7051,5.6819,5.6533,5.7112,5.7115,5.681,5.681,5.681,5.681,5.681,5.681,5.6902,0.0,0.0,0.0,0.0,0.0,0.0,0.0,0.0,0.0,0.0,0.0,0.0,0.0,0.0,0.0,0.0,0.0,0.0,0.6321,0.6569,0.7348,0.877,0.9118,1.0125,1.1974,1.4259,1.6546,1.8807,2.04,2.053,1.9209,1.615,1.4564,1.4097,1.1252,1.045,1.1144,0.9884,1.0178,1.1466,1.1215,1.1567,0.0,0.0,0.0,0.0,0.0,0.0,0.0,0.0,1.486,1.5215,1.5925,1.6402,1.6606,1.6318,1.6279,1.6544,1.746,1.9825,2.272,2.5647,2.7167,2.9613,3.6172,3.7686,3.8099,3.9396,4.0667,4.1001,3.922,4.3436,4.6771,4.5432,4.9203,5.2318,5.2312,5.2092,5.1915,5.1915,5.2164,5.2536,5.3092,5.3348,5.3518,5.3518,5.3518,5.3518,5.3518,5.3263,5.2972,5.2694,5.2467,5.2077,5.148,5.1238,5.1331,5.1771,5.2213,5.3346,5.5139,5.525,5.5636,5.6192,5.606,5.6018,5.6023,5.6574,5.681,5.681,5.681,5.681,5.681,5.681,5.6909,5.7217,0.0,0.0,0.0,0.0,0.0,0.0,0.0,0.0,0.0,0.0,0.0,0.0,0.0,0.0,0.0,0.0,0.0,0.0,0.6307,0.6312,0.6678,0.7544,0.8052,0.9272,1.1309,1.2938,1.4792,1.6887,1.9093,1.9617,1.8532,1.6709,1.6044,1.6254,1.3365,1.2514,1.3038,1.0833,1.0755,1.2034,1.1231,1.1704,1.2908,0.0,0.0,0.0,0.0,0.0,0.0,0.0,1.3946,1.3726,1.5976,1.5952,1.5255,1.5819,1.8271,2.0771,2.0771,2.207,2.4401,2.8388,2.8684,2.9844,3.6803,3.6555,3.6956,4.4402,4.402,4.2523,4.324,4.466,4.5959,4.6669,4.9875,5.2307,5.2289,5.1604,5.1107,5.1107,5.1806,5.2289,5.2307,5.3007,5.3518,5.3501,5.3501,5.3501,5.3501,5.2746,5.2676,5.3416,5.1145,5.0685,5.2254,4.9837,4.9377,5.0871,5.0754,5.1957,5.4316,5.4988,5.5292,5.5316,5.578,5.5995,5.6055,5.6605,5.681,5.681,5.681,5.681,5.681,5.681,5.7217,5.7894,0.0,0.0,0.0,0.0,0.0,0.0,0.0,0.0,0.0,0.0,0.0,0.0,0.0,0.0,0.0,0.0,0.0,0.0,0.6307,0.6478,0.6696,0.6965,0.7633,0.8162,0.8508,1.0498,1.2968,1.5918,1.7378,1.7213,1.5485,1.4554,1.3972,1.3633,1.2715,1.2301,1.2215,1.0986,1.1135,1.2142,1.1816,1.1868,1.217,0.0,0.0,0.0,0.0,0.0,0.0,0.0,0.0,0.0,1.4732,1.6039,1.7131,1.5661,1.6844,1.8512,1.8006,2.2051,2.6547,2.7156,3.14,3.6098,3.8734,3.9124,4.0568,4.628,4.5091,4.3137,4.3298,4.5868,4.732,4.5423,4.9154,5.211,5.1549,5.1238,5.1313,5.1878,5.1659,5.1696,5.2254,5.3007,5.3263,5.2712,5.3195,5.3246,5.2694,5.2955,5.2467,5.0995,5.1383,5.0976,4.9698,4.957,4.9704,5.005,5.0487,5.1619,5.3382,5.3436,5.4045,5.5112,5.509,5.5364,5.5837,5.6505,5.681,5.681,5.681,5.681,5.6847,5.7309,5.7617,5.7956,0.0,0.0,0.0,0.0,0.0,0.0,0.0,0.0,0.0,0.0,0.6611,0.6522,0.0,0.0,0.0,0.0,0.0,0.0,0.6312,0.6509,0.6761,0.7051,0.7322,0.7628,0.7996,1.0246,1.1965,1.3149,1.4691,1.4741,1.3382,1.3887,1.4107,1.4143,1.4625,1.4419,1.3685,1.2685,1.2307,1.2456,1.2431,1.2341,1.228,0.0,0.0,0.0,0.0,0.0,0.0,0.0,0.0,0.0,1.3939,1.5179,1.6559,1.6452,1.7993,2.0028,2.1251,2.5076,2.913,3.0672,3.4374,3.8525,4.1698,4.2931,4.4228,4.7079,4.6694,4.5775,4.5551,4.7701,4.8942,4.7308,4.9761,5.1549,5.0729,5.0358,5.0351,5.0773,5.0736,5.0839,5.1313,5.2643,5.3024,5.1897,5.2555,5.2816,5.2325,5.2131,5.1696,5.0895,5.0824,5.0267,4.9138,4.9269,4.948,4.9703,5.0359,5.1308,5.2498,5.2626,5.3352,5.4496,5.49,5.5499,5.617,5.6601,5.681,5.681,5.681,5.6939,5.7247,5.7648,5.814,5.8726,0.0,0.0,0.0,0.0,0.0,0.0,0.0,0.0,0.0,0.6878,0.6841,0.6774,0.0,0.0,0.0,0.6527,0.6518,0.6462,0.6351,0.6458,0.6831,0.7511,0.7157,0.7663,0.9169,1.124,1.1395,0.9586,1.1654,1.2391,1.1959,1.4086,1.5484,1.6317,1.7672,1.7475,1.611,1.4819,1.3621,1.2611,1.2874,1.2847,1.2764,1.3402,0.0,0.0,0.0,0.0,0.0,0.0,0.0,0.0,1.3583,1.3863,1.454,1.7432,2.044,2.365,2.7294,2.947,3.1813,3.6493,3.7241,3.8551,4.5111,4.7051,4.7384,4.7283,4.844,4.9393,4.9011,4.9635,5.0334,5.0841,5.0892,5.0633,4.9911,4.9224,4.8781,4.8727,4.9476,4.9971,4.9903,5.1951,5.2643,5.1107,5.1751,5.2164,5.2092,5.078,5.0628,5.1915,4.9837,4.9077,4.9769,4.9015,4.9004,4.9795,5.0389,5.1067,5.1805,5.2399,5.3106,5.3876,5.5222,5.617,5.681,5.681,5.681,5.681,5.681,5.7217,5.7802,5.7863,5.8695,5.9809,0.0,0.0,0.0,0.0,0.0,0.0,0.0,0.0,0.6791,0.682,0.6812,0.6774,0.6702,0.6693,0.0,0.6659,0.6659,0.6646,0.6612,0.6748,0.6893,0.7053,0.7787,0.8726,0.9856,0.9914,0.9807,0.9534,1.0767,1.1026,1.0424,1.2925,1.3933,1.3703,1.5546,1.5161,1.3031,1.2236,1.1574,1.1024,1.1619,1.1833,1.187,1.1861,1.2174,0.0,0.0,0.0,0.0,0.0,0.0,0.0,1.3393,1.4426,1.5367,1.4968,1.8561,2.2573,2.2161,2.7405,3.3182,3.3982,3.7661,4.2041,4.576,4.6735,4.7287,4.8815,4.932,4.9476,4.931,4.9341,4.9387,4.9447,4.9355,4.9215,4.9073,4.8876,4.9018,4.9641,4.9847,4.9914,4.9908,5.0938,5.1201,5.0241,5.09,5.107,5.0454,5.0672,5.0403,4.943,4.953,4.937,4.8893,4.8687,4.9251,5.0482,5.0636,5.1313,5.2513,5.2614,5.3353,5.4553,5.5954,5.6631,5.681,5.681,5.681,5.681,5.681,5.7217,5.7863,5.8387,5.9095,5.987,0.0,0.0,0.0,0.0,0.0,0.0,0.0,0.0,0.6849,0.6849,0.6912,0.6936,0.6899,0.6899,0.0,0.0,0.6795,0.677,0.6698,0.6828,0.6965,0.71,0.8322,0.9042,0.92,0.9234,0.9204,0.9076,0.9548,0.9869,1.0047,1.1942,1.2987,1.3352,1.5042,1.4539,1.2422,1.2199,1.1626,1.09,1.1684,1.1798,1.153,1.1741,1.1701,1.1535,1.1404,0.0,0.0,0.0,0.0,0.0,0.0,0.0,1.4473,1.5382,1.7582,2.0302,2.3022,2.7222,3.1627,3.4712,3.8981,4.2991,4.5191,4.6198,4.7191,4.896,4.9254,4.9147,4.8917,4.9141,4.9147,4.8601,4.846,4.8263,4.7821,4.7758,4.8008,4.875,4.9149,4.9351,4.9278,5.0384,5.0595,4.9349,5.0033,5.0358,4.9908,4.9896,4.9678,4.9259,4.928,4.9232,4.9127,4.8789,4.9466,5.1159,5.0851,5.1559,5.3199,5.3506,5.4029,5.4799,5.62,5.681,5.681,5.681,5.681,5.681,5.681,5.7401,5.8325,5.8664,5.9434,6.0332,0.0,0.0,0.0,0.0,0.0,0.0,0.0,0.0,0.0,0.6941,0.7043,0.7112,0.7112,0.7112,0.7068,0.0,0.0,0.0,0.6774,0.6912,0.7156,0.7558,0.8691,0.9106,0.8631,0.9101,0.918,0.8809,0.8568,0.9095,1.0321,1.1369,1.2471,1.3675,1.4803,1.4246,1.2481,1.2399,1.1698,1.0753,1.1559,1.152,1.1071,1.1595,1.1205,1.0435,1.0872,1.1196,1.1494,1.2094,0.0,0.0,0.0,0.0,1.3078,1.5991,1.6892,1.825,2.4373,2.6986,2.9686,3.6588,4.0229,4.2542,4.4289,4.5679,4.6945,4.8419,4.882,4.884,4.8608,4.9043,4.9148,4.8246,4.7847,4.7375,4.659,4.6531,4.6819,4.7373,4.823,4.8713,4.8605,4.9856,5.0092,4.8708,4.9249,4.967,4.967,4.8995,4.8934,4.965,4.8975,4.8943,4.9703,4.8974,4.963,5.1682,5.1251,5.199,5.3722,5.4399,5.4768,5.4952,5.6231,5.681,5.681,5.681,5.681,5.681,5.681,5.7617,5.8818,5.8818,5.9624,6.0794,0.0,0.0,0.0,0.0,0.0,0.0,0.0,0.0,0.0,0.0,0.71,0.7112,0.7112,0.7112,0.7104,0.7088,0.7084,0.7076,0.706,0.0,0.0,0.8652,0.8855,0.9379,1.0266,0.9753,0.9552,0.9731,0.8773,0.9297,1.1145,1.1703,1.2317,1.2939,1.3124,1.2467,1.1161,0.9978,0.9089,0.8565,0.9135,0.9385,0.9416,0.9379,0.9805,1.0333,0.9722,1.0318,1.1435,1.1526,1.1968,0.0,0.0,0.0,1.2639,1.3275,1.5679,1.8313,1.9079,2.3998,3.057,3.7417,3.9996,4.1518,4.4107,4.5321,4.633,4.773,4.8487,4.9075,4.9611,4.9178,4.8694,4.8541,4.7185,4.6145,4.6013,4.6352,4.6634,4.6726,4.7844,4.8636,4.8604,4.8811,4.8852,4.8604,4.8708,4.8769,4.8769,4.8666,4.8646,4.8769,4.8646,4.8943,4.9703,4.8974,4.963,5.1713,5.2206,5.286,5.3722,5.4399,5.5014,5.5592,5.6447,5.681,5.681,5.681,5.681,5.681,5.681,5.7617,5.8818,5.8818,5.9624,6.0794,0.0,0.0,0.0,0.0,0.0,0.0,0.0,0.0,0.0,0.0,0.0,0.7112,0.7112,0.7112,0.7112,0.7112,0.7112,0.7161,0.7249,0.7367,0.7682,0.8296,0.8424,0.8765,0.9421,0.9058,0.9,0.929,0.8694,0.9265,1.0914,1.1399,1.2029,1.2795,1.24,1.1563,1.0327,0.9327,0.8775,0.8557,0.8758,0.9978,1.1493,0.9654,1.014,1.1595,0.9925,0.9978,1.089,1.1273,1.1905,1.2505,1.2505,0.0,0.0,0.0,1.4058,1.6326,1.9371,2.4482,3.016,3.5247,3.8577,4.1132,4.3129,4.4724,4.6184,4.7624,4.7795,4.8174,4.9627,4.9284,4.8619,4.8125,4.7011,4.6077,4.559,4.6238,4.6782,4.6782,4.7865,4.8583,4.8583,4.8583,4.8583,4.8583,4.8583,4.8583,4.8583,4.8583,4.8583,4.8583,4.8583,4.9127,5.0236,4.9558,5.0051,5.1713,5.239,5.326,5.4276,5.4583,5.5076,5.5745,5.6477,5.681,5.681,5.681,5.681,5.684,5.7217,5.7956,5.8849,5.9218,5.9963,6.0794,0.0,0.0,0.0,0.0,0.0,0.0,0.0,0.0,0.0,0.0,0.0,0.7112,0.7112,0.0,0.0,0.0,0.7112,0.7185,0.7448,0.751,0.7661,0.7931,0.8051,0.8215,0.8428,0.838,0.8454,0.8685,0.8539,0.9257,1.0803,1.1089,1.1815,1.284,1.2117,1.1207,1.0208,0.9275,0.903,0.9232,0.9616,1.1242,1.3296,1.1719,1.2471,1.3984,1.1396,1.1069,1.1783,1.1447,1.1876,1.2505,1.2505,1.2505,0.0,0.0,0.0,1.4316,1.9214,2.3478,2.7558,3.1892,3.6153,3.9787,4.1715,4.3895,4.5918,4.734,4.7181,4.7364,4.9296,4.8942,4.8152,4.7491,4.6762,4.6009,4.5372,4.6275,4.6978,4.6919,4.7987,4.8676,4.8604,4.8583,4.8583,4.8583,4.8583,4.8583,4.8583,4.8583,4.8583,4.8583,4.8583,4.9281,5.0697,5.0543,5.0882,5.1713,5.2553,5.3568,5.4706,5.4891,5.5253,5.5745,5.6477,5.681,5.681,5.681,5.681,5.6871,5.7525,5.8202,5.8879,5.9532,6.0209,6.0794,0.0,0.0,0.0,0.0,0.0,0.0,0.0,0.0,0.0,0.0,0.0,0.7112,0.7112,0.7112,0.7112,0.7112,0.7112,0.7225,0.7574,0.7764,0.7934,0.8092,0.8106,0.0,0.8316,0.8235,0.8252,0.8319,0.8309,0.9354,1.1358,1.1131,1.1749,1.3057,1.2183,1.1602,1.1105,0.9549,0.9351,1.0193,1.1757,1.2535,1.3046,1.5876,1.7477,1.7797,1.4609,1.4438,1.5245,1.2215,1.179,1.2505,1.2505,1.2505,1.2505,0.0,0.0,0.0,1.6104,1.8526,2.1736,2.7862,3.255,3.6578,3.9945,4.2821,4.5142,4.6582,4.6847,4.7239,4.8667,4.7817,4.6885,4.6849,4.6113,4.5544,4.5494,4.6485,4.7103,4.6939,4.8139,4.8893,4.8604,4.8583,4.8583,4.8583,4.8583,4.8583,4.8583,4.8583,4.8583,4.8583,4.8583,4.9281,5.0697,5.1929,5.2267,5.1713,5.3014,5.4029,5.4737,5.5376,5.5653,5.5745,5.6477,5.681,5.681,5.681,5.681,5.6871,5.7525,5.8202,5.8879,5.9532,6.0209,6.0794,0.0,0.0,0.0,0.0,0.0,0.0,0.0,0.0,0.0,0.0,0.0,0.0,0.0,0.7112,0.7112,0.7112,0.7205,0.7394,0.7593,0.7783,0.7952,0.8102,0.817,0.8242,0.8225,0.8205,0.8238,0.8293,0.8204,0.8837,1.0129,1.0914,1.1289,1.137,1.1672,1.1488,1.0929,0.9959,0.9705,1.0213,1.2772,1.5058,1.7016,1.7764,1.9725,2.1636,1.8051,1.6361,1.5622,1.4487,1.3252,1.2174,1.2174,1.2174,1.2174,1.2174,1.2572,1.3416,1.5324,1.7424,2.0154,2.464,2.9611,3.4207,3.7213,4.0459,4.3461,4.5684,4.5525,4.5465,4.7236,4.7136,4.6793,4.6797,4.6161,4.5682,4.5682,4.6661,4.7297,4.7134,4.8208,4.8893,4.8625,4.8583,4.8583,4.8583,4.8583,4.8583,4.8583,4.8583,4.8583,4.8583,4.8583,4.9281,5.0697,5.2021,5.2575,5.2359,5.326,5.406,5.4737,5.5407,5.5684,5.5715,5.5985,5.5838,5.5499,5.5923,5.6354,5.6909,5.8017,5.8849,5.9501,6.0178,6.0578,6.0794,0.0,0.0,0.0,0.0,0.0,0.7112,0.7112,0.7112,0.7112,0.7112,0.0,0.0,0.0,0.0,0.7141,0.7181,0.7378,0.7544,0.7691,0.7866,0.8002,0.8089,0.8188,0.8198,0.8109,0.8109,0.8123,0.8123,0.8123,0.8513,0.9317,1.0199,1.0516,1.0339,1.0669,1.0987,1.1162,1.0492,1.0324,1.0877,1.4616,1.6871,1.8194,2.0138,2.1921,2.3079,2.0568,1.8886,1.7865,1.7644,1.651,1.5014,1.3944,1.2873,1.2002,1.2002,1.2539,1.3345,1.4053,1.582,1.831,2.1899,2.5884,3.0067,3.4374,3.7527,4.0439,4.3728,4.3902,4.4111,4.6088,4.6253,4.6171,4.6424,4.6108,4.5805,4.5805,4.6862,4.7521,4.722,4.8329,4.8965,4.8625,4.8583,4.8583,4.8583,4.8583,4.8583,4.8583,4.8583,4.8583,4.8583,4.885,4.9404,5.038,5.1682,5.2359,5.239,5.3506,5.4276,5.4737,5.5653,5.5807,5.5376,5.5376,5.5253,5.5076,5.553,5.6262,5.7247,5.8356,5.9218,5.987,6.0547,6.0794,6.0794,0.0,0.0,0.0,0.0,0.7112,0.7112,0.7112,0.7112,0.7112,0.7112,0.0,0.0,0.0,0.0,0.0,0.7386,0.7557,0.7709,0.7859,0.8016,0.8085,0.8085,0.8081,0.8012,0.7904,0.7897,0.7854,0.7797,0.8005,0.8438,0.9077,0.908,0.9481,1.0134,0.9293,1.0043,1.1881,1.1092,1.1151,1.2246,1.7214,1.7755,1.6354,2.3182,2.4309,2.2236,2.2236,2.2258,2.2181,2.1626,2.1395,2.0801,1.7655,1.4522,1.1986,1.1986,1.2438,1.2803,0.0,0.0,0.0,1.9505,2.1308,2.4079,3.1313,3.3922,3.6067,4.0481,4.1983,4.3151,4.525,4.5078,4.4857,4.5602,4.5742,4.5805,4.5805,4.7024,4.7725,4.727,4.8448,4.9128,4.8646,4.8583,4.8583,4.8583,4.8583,4.8583,4.8583,4.8583,4.8583,4.8583,4.9312,4.9703,4.9703,5.1005,5.1682,5.1744,5.3722,5.4706,5.4768,5.617,5.6046,5.4706,5.4737,5.5076,5.5653,5.5653,5.6508,5.7863,5.8541,5.9218,5.9901,6.0547,6.0794,6.0794,0.0,0.0,0.0,0.7112,0.7472,0.7612,0.7166,0.7472,0.7581,0.0,0.0,0.0,0.7139,0.7499,0.7769,0.7826,0.8094,0.8036,0.7577,0.7761,0.7877,0.787,0.7783,0.7797,0.7901,0.7793,0.7797,0.7859,0.792,0.8039,0.8254,0.8843,0.9149,0.9285,0.9613,1.0031,1.0415,0.9726,1.0607,1.2801,1.5948,1.844,2.0713,2.4415,2.682,2.8143,2.7651,2.6065,2.4194,2.4468,2.148,1.7182,1.448,1.2693,1.1639,1.1639,1.2499,1.334,1.2683,0.0,0.0,0.0,0.0,0.0,2.3985,2.748,3.1164,3.55,3.7002,3.8464,4.151,4.2262,4.2695,4.3421,4.4812,4.5805,4.5805,4.7024,4.7725,4.727,4.8448,4.9128,4.8646,4.8583,4.8583,4.8583,4.8583,4.8583,4.8583,4.8583,4.8583,4.8583,4.9312,4.9703,4.9703,5.0543,5.1467,5.2452,5.3476,5.446,5.5468,5.6385,5.6046,5.4737,5.5199,5.5253,5.4983,5.4983,5.6084,5.7863,5.8541,5.9526,6.0547,6.0732,6.0794,6.0794,0.0,0.0,0.7415,0.7636,0.8309,0.8709,0.848,0.8702,0.8743,0.0,0.0,0.0,0.7892,0.8388,0.8584,0.8132,0.8269,0.8119,0.748,0.7593,0.7665,0.7638,0.7567,0.7583,0.7764,0.7709,0.7724,0.7845,0.7845,0.7819,0.7772,0.8232,0.8411,0.8382,0.884,0.9216,0.9404,0.875,0.9833,1.2336,1.6676,1.9123,2.0665,2.4956,2.6939,2.752,2.8463,2.7274,2.5529,2.7214,2.3699,1.8317,1.6538,1.4289,1.2193,1.1669,1.2651,1.3813,1.3182,1.3767,1.4712,1.5375,0.0,0.0,2.2282,2.4513,2.7191,3.2798,3.4308,3.5612,3.8746,3.9644,4.0309,4.162,4.3074,4.4369,4.5205,4.655,4.7379,4.7239,4.8199,4.8817,4.8615,4.8583,4.8583,4.8583,4.8583,4.8583,4.8583,4.8583,4.8583,4.8583,4.9035,4.9251,4.9251,4.9928,5.0944,5.2276,5.326,5.4399,5.5715,5.6447,5.6046,5.4737,5.5106,5.5045,5.4706,5.4706,5.6084,5.8264,5.8664,5.9624,6.0794,6.0794,6.0794,6.0794,0.0,0.0,0.7985,0.8546,0.9399,1.0103,1.0392,1.0405,1.0267,0.0,0.9475,0.9143,0.9287,0.9627,0.9459,0.8558,0.8369,0.8088,0.7582,0.7496,0.7452,0.7394,0.7374,0.7433,0.7582,0.7563,0.7616,0.7742,0.7742,0.7683,0.7574,0.7513,0.7529,0.7605,0.7605,0.8016,0.866,0.8285,0.937,1.1901,1.7991,1.9483,1.8742,2.5164,2.61,2.4348,2.7202,2.7448,2.6836,2.9392,2.6865,2.2439,2.1289,1.792,1.4129,1.242,1.336,1.4769,1.3925,1.458,1.5825,1.7123,1.6007,0.0,2.3006,2.3152,2.3813,3.0513,3.1994,3.2927,3.5748,3.6316,3.7042,3.9077,4.0419,4.1998,4.4257,4.5792,4.6811,4.7177,4.7856,4.8362,4.8563,4.8583,4.8583,4.8583,4.8583,4.8583,4.8583,4.8583,4.8583,4.8583,4.8583,4.8583,4.8583,4.9251,5.0328,5.1836,5.3014,5.4391,5.5838,5.6508,5.6046,5.4706,5.4799,5.4768,5.4706,5.4799,5.6392,5.8818,5.8818,5.9624,6.0794,6.0794,6.0794,6.0794,0.8006,0.8262,0.8672,0.9476,1.0178,1.0759,1.121,1.1304,1.1282,1.1181,1.0699,1.0722,1.1697,1.0798,1.0122,1.0133,0.9339,0.8541,0.7874,0.7475,0.7241,0.7225,0.7124,0.7177,0.7444,0.7268,0.7249,0.741,0.741,0.7398,0.7371,0.7331,0.7417,0.7605,0.7605,0.7768,0.8139,0.9101,1.1561,1.4872,1.5529,1.8294,2.2348,2.5712,2.8507,3.0712,3.1336,3.1075,3.0175,2.8754,2.7521,2.5852,2.1616,2.0629,2.0174,1.5842,1.6654,1.8482,1.6256,1.6227,1.6671,1.5957,1.6209,0.0,1.7023,1.8297,2.0075,2.2518,2.3715,2.5215,2.7961,2.8921,2.9863,3.163,3.5787,3.9989,4.3401,4.511,4.6289,4.7114,4.7856,4.8362,4.8563,4.8583,4.8583,4.8583,4.8583,4.8583,4.8583,4.8583,4.8583,4.8583,4.8583,4.8583,4.8583,4.8758,5.0082,5.2491,5.2768,5.4176,5.657,5.6724,5.6046,5.4737,5.5284,5.5222,5.4737,5.5284,5.6792,5.8818,5.8818,5.9624,6.0794,6.0794,6.0794,6.0794,0.8355,0.8822,0.9446,1.0436,1.1468,1.2374,1.3003,1.3095,1.303,1.2872,1.262,1.2453,1.2456,1.1887,1.1128,1.0171,0.9346,0.8426,0.746,0.7179,0.706,0.706,0.6978,0.7039,0.7233,0.7165,0.7153,0.7288,0.7253,0.7253,0.7284,0.7264,0.8388,1.0364,0.8455,0.8758,1.0668,0.9429,1.0404,1.3118,1.6844,2.1241,2.5887,2.8605,3.0814,3.2497,3.2497,3.2293,3.1695,2.9699,2.7823,2.5975,2.3961,2.2695,2.1315,1.8134,1.8782,1.9972,1.7409,1.7177,1.7612,1.7264,1.6953,0.0,0.0,1.7787,1.8606,2.1664,2.199,2.2526,2.5238,2.576,2.6246,2.7806,3.2564,3.6336,3.7148,4.2183,4.6006,4.6615,4.7325,4.7833,4.8091,4.8399,4.8583,4.8583,4.8583,4.8583,4.8583,4.8583,4.8583,4.8583,4.8583,4.8583,4.8583,4.8974,5.0359,5.2676,5.3045,5.4453,5.681,5.681,5.6046,5.4737,5.5407,5.5315,5.4768,5.5438,5.6915,5.8818,5.8818,5.9624,6.0794,6.0794,6.0794,6.0794,0.8415,0.9224,1.0122,1.107,1.2373,1.3548,1.4293,1.4381,1.4248,1.4031,1.4328,1.4191,1.3286,1.3473,1.299,1.1314,1.0623,0.9595,0.7955,0.7867,0.7887,0.7887,0.724,0.727,0.8025,0.7408,0.7116,0.7169,0.7157,0.7157,0.7169,0.7157,0.8907,1.2007,0.9697,1.0124,1.2401,1.0165,1.0283,1.26,1.9417,2.3714,2.6394,3.0031,3.1539,3.1843,3.2423,3.2715,3.2587,3.0805,2.8265,2.5862,2.5874,2.4431,2.2253,1.9981,2.0727,2.1656,1.8724,1.8424,1.8927,1.8927,1.8027,1.7578,0.0,0.0,0.0,2.1867,2.1358,2.0993,2.3427,2.3295,2.3336,2.4762,2.905,3.1705,3.0129,3.7588,4.3413,4.3979,4.5921,4.7056,4.6694,4.7004,4.763,4.8522,4.7753,4.763,4.8553,4.8583,4.8583,4.8583,4.8583,4.8583,4.8583,4.9466,5.082,5.2706,5.3506,5.4914,5.681,5.681,5.6046,5.4737,5.5407,5.5315,5.4768,5.5438,5.6915,5.8818,5.8818,5.9624,6.0794,6.0794,6.0794,6.0794,0.8169,0.9365,1.038,1.0867,1.1824,1.273,1.3288,1.3369,1.3345,1.3312,1.4772,1.5855,1.602,1.649,1.6799,1.6775,1.6287,1.4617,1.1439,1.1344,1.1421,1.1421,0.8505,0.8332,1.137,0.8478,0.6874,0.6765,0.682,0.682,0.677,0.6824,0.7187,0.7946,1.1132,1.1167,0.9026,1.2418,1.6198,2.0031,2.1505,2.0664,1.9184,2.5176,2.8143,2.9479,3.2165,3.3579,3.3702,3.0559,2.9428,2.8624,2.4603,2.5891,2.7726,2.1751,2.3299,2.6013,2.1743,2.1056,2.1046,1.884,1.9391,1.9691,1.6822,0.0,1.7203,1.7414,0.0,1.7232,1.8724,0.0,0.0,2.0037,2.3417,2.6054,2.6627,3.0873,3.4519,3.6089,4.2743,4.6181,4.3525,4.2718,4.411,4.8276,4.4756,4.4202,4.8368,4.8583,4.8583,4.8583,4.8583,4.8583,4.8583,4.9928,5.1313,5.2729,5.3999,5.5376,5.681,5.681,5.6046,5.4737,5.5407,5.5315,5.4768,5.5438,5.6915,5.8818,5.8818,5.9624,6.0794,6.0794,6.0794,6.0794,0.791,0.8888,0.9747,1.0243,1.1148,1.2112,1.2948,1.3549,1.383,1.3676,1.4706,1.5395,1.5195,1.5187,1.5383,1.5811,1.5743,1.4568,1.1975,1.2247,1.1774,1.0091,0.8308,0.8037,0.9482,0.7709,0.6753,0.6693,0.6681,0.677,0.6941,0.6928,0.841,1.1161,1.266,1.3963,1.5059,1.5303,1.6143,1.7441,1.9468,1.876,1.7562,2.7861,3.2038,3.2511,3.3772,3.4136,3.3706,3.1875,2.975,2.7893,2.7966,2.7022,2.5589,2.4251,2.4631,2.4849,2.183,2.2294,2.2962,2.003,2.0436,2.0689,1.7294,1.6312,1.6251,1.6822,0.0,0.0,0.0,0.0,0.0,0.0,2.1274,2.3125,2.1451,2.674,3.1474,3.3384,3.694,3.9989,4.189,4.2484,4.4387,4.8307,4.4972,4.4449,4.8368,4.8583,4.8583,4.8583,4.8583,4.882,4.922,5.0605,5.1959,5.3291,5.4637,5.5807,5.681,5.6354,5.5838,5.5315,5.5561,5.553,5.5376,5.6477,5.7678,5.8849,5.9249,5.9963,6.0794,6.0794,6.0794,6.0794,0.7561,0.842,0.9147,0.9536,1.0547,1.1664,1.2707,1.3435,1.3881,1.3915,1.4767,1.5289,1.507,1.5547,1.607,1.6594,1.7329,1.6834,1.4656,1.434,1.3814,1.2881,0.9702,0.8776,1.0508,0.8206,0.6889,0.6723,0.6689,0.6877,0.7263,0.7074,0.8867,1.2325,1.3283,1.5514,1.8469,1.7837,1.7753,1.8165,2.0422,2.1165,2.19,3.0485,3.4414,3.5289,3.4864,3.4406,3.3851,3.2387,2.9956,2.7928,3.0175,2.8339,2.5625,2.7017,2.6996,2.5936,2.3322,2.399,2.4513,2.0756,2.0524,2.0407,1.738,1.6364,1.6306,1.704,1.7032,0.0,0.0,0.0,1.738,1.767,0.0,2.0661,1.7895,2.2536,2.6965,2.9045,3.1089,3.4292,3.9266,3.9702,4.1643,4.6373,4.3431,4.3518,4.8337,4.8583,4.8583,4.8583,4.882,4.9158,4.9703,5.1405,5.2645,5.3445,5.4976,5.5869,5.6231,5.5838,5.5592,5.5438,5.5807,5.6016,5.6108,5.7309,5.8294,5.9126,5.9593,6.0209,6.0794,6.0794,6.0794,6.0824,0.7132,0.8073,0.8821,0.8828,1.0106,1.1431,1.2358,1.2537,1.2837,1.3609,1.5101,1.6345,1.7115,1.9669,2.1551,2.2014,2.4014,2.416,2.1549,1.8969,1.9371,2.3429,1.3958,1.1461,1.7643,1.1141,0.7378,0.6799,0.6862,0.7153,0.7676,0.714,0.7258,0.8088,1.2576,1.4628,1.5057,1.9669,2.3735,2.7076,2.7108,2.9929,3.3764,3.0682,3.23,3.6054,3.4499,3.4377,3.4454,3.1196,3.0248,3.0279,2.9141,3.0078,3.134,2.9911,3.1249,3.2225,2.7794,2.6691,2.55,2.0407,1.9159,1.8521,1.5958,1.68,1.7931,1.733,1.913,2.065,2.0146,2.0001,1.9769,0.0,1.8666,0.0,0.0,1.7435,1.8411,2.0617,2.5964,3.093,3.4759,3.1792,3.3095,4.14,3.8184,3.9603,4.8132,4.8583,4.8583,4.8583,4.9281,4.9672,4.9703,5.2329,5.3322,5.276,5.476,5.5376,5.4799,5.5407,5.5345,5.4829,5.617,5.6779,5.6816,5.7494,5.8572,5.9747,5.9778,6.0209,6.0794,6.0794,6.0794,6.0886,0.8025,0.8657,0.8933,0.8308,0.916,1.0333,1.1639,1.2673,1.3839,1.5356,1.6339,1.7472,1.8988,2.002,2.1045,2.2197,2.3428,2.3618,2.2391,2.011,1.9723,2.176,1.4393,1.1998,1.5706,1.1164,0.8298,0.7403,0.7327,0.7246,0.7157,0.6902,0.7109,0.7896,1.2539,1.6111,1.8853,2.1983,2.4734,2.6974,2.7042,2.9556,3.3169,3.2386,3.3304,3.4959,3.4426,3.4021,3.3584,3.2421,3.1118,3.0181,3.1459,3.0513,2.9251,3.0897,3.1151,3.0684,2.9595,3.0554,3.0393,2.436,2.3531,2.2857,1.7728,1.7409,1.7873,1.6771,1.8259,1.9682,1.9478,1.9101,0.0,0.0,0.0,0.0,0.0,1.6108,1.6792,1.8397,2.3973,2.8147,2.9248,3.1486,3.5234,4.0837,4.0034,4.201,4.8265,4.8583,4.8583,4.8583,4.9312,4.9918,5.0359,5.2144,5.3137,5.3383,5.4491,5.5137,5.5345,5.5137,5.5438,5.6108,5.6077,5.6601,5.7494,5.8202,5.9003,5.9839,6.027,6.0609,6.0794,6.0794,6.0794,6.0948,0.9036,0.9232,0.9108,0.8498,0.9196,1.032,1.1767,1.339,1.5016,1.6579,1.7518,1.8632,2.0211,2.0827,2.1568,2.2699,2.3713,2.4045,2.3489,2.1491,2.1149,2.3038,1.7496,1.564,1.8411,1.4115,1.1233,1.0038,0.8818,0.7962,0.7484,0.7187,0.7415,0.8156,1.1565,1.6032,2.1119,2.321,2.6164,2.944,2.9358,3.0682,3.2782,3.3422,3.3628,3.3699,3.4217,3.4042,3.356,3.356,3.2765,3.2093,3.4086,3.3102,3.165,3.3784,3.3566,3.2613,3.2354,3.3516,3.3499,2.8173,2.752,2.6575,2.059,2.0107,2.0524,1.9217,1.9759,2.1094,2.3125,2.1162,1.9566,0.0,0.0,0.0,0.0,1.5639,1.6282,1.7335,2.1505,2.4724,2.5916,2.8209,3.2505,3.9461,3.8852,4.1075,4.7747,4.8093,4.8271,4.8583,4.9558,5.0266,5.0697,5.2267,5.3137,5.3353,5.4029,5.4553,5.4976,5.4799,5.5345,5.6385,5.617,5.6878,5.8202,5.8633,5.9341,6.0178,6.064,6.0794,6.0794,6.0794,6.1101,6.1625,1.0007,0.9726,0.9426,0.947,1.0228,1.1306,1.2726,1.4578,1.6225,1.7336,1.872,2.003,2.1091,2.2408,2.3375,2.3856,2.5143,2.5751,2.5283,2.3321,2.3859,2.7598,2.3012,2.2031,2.552,1.9574,1.5769,1.4384,1.1099,0.9174,0.8568,0.799,0.8016,0.8568,0.9792,1.448,2.1577,2.3353,2.8081,3.4335,3.3894,3.342,3.3011,3.3668,3.3157,3.236,3.3873,3.4413,3.4413,3.4413,3.4968,3.579,3.6654,3.7519,3.8233,3.827,3.8289,3.7883,3.6119,3.5625,3.4869,3.1673,3.083,2.9479,2.4418,2.4721,2.5732,2.4454,2.3751,2.4986,3.0262,2.5749,2.1782,0.0,0.0,0.0,1.5552,1.5871,1.648,1.7206,0.0,0.0,0.0,0.0,2.5455,3.6891,3.4746,3.7084,4.6676,4.7031,4.7437,4.8624,4.9989,5.0697,5.0759,5.2698,5.3353,5.2737,5.3383,5.3722,5.3814,5.446,5.5106,5.5776,5.6429,5.7506,5.8818,5.8737,5.9537,6.0794,6.0794,6.0768,6.0716,6.0716,6.1577,6.2687,1.0204,1.0473,1.1039,1.1847,1.1614,1.1798,1.327,1.5103,1.7199,1.9647,2.1516,2.3375,2.5426,2.5994,2.6235,2.6366,2.6715,2.7444,2.8654,2.6226,2.673,3.1166,2.6061,2.4316,2.6938,2.0429,1.6563,1.5724,1.145,0.904,0.8453,0.8246,0.7803,0.7287,0.979,1.4601,2.0964,2.3156,2.7893,3.3873,3.3768,3.2639,3.1306,3.3172,3.2879,3.1724,3.3849,3.4632,3.4632,3.4632,3.5218,3.6114,3.7006,3.7934,3.8828,3.942,3.9596,3.9509,3.9015,3.887,3.825,3.5503,3.4138,3.2571,2.9363,2.9348,2.9682,2.8405,2.9145,2.9479,2.7607,2.579,2.3641,2.0785,1.8143,1.6509,0.0,0.0,0.0,1.8433,0.0,0.0,0.0,0.0,2.8527,3.2459,3.4792,3.9314,4.6796,4.4629,4.512,4.9312,5.0236,5.0944,5.1436,5.2452,5.3106,5.3445,5.3629,5.4214,5.5191,5.5376,5.5862,5.646,5.5802,5.6777,5.8712,5.7896,5.884,6.0794,6.0794,6.0268,5.9439,5.9439,6.031,6.1456,1.1025,1.164,1.2462,1.3129,1.3685,1.4307,1.515,1.5968,1.7562,2.0522,2.2364,2.3987,2.5558,2.6671,2.7282,2.7282,2.7282,2.7475,2.7862,2.6961,2.7625,3.0445,2.8315,2.7964,2.9807,2.4905,2.1095,1.8559,1.4281,1.0883,0.8385,0.8373,0.7889,0.7213,0.9901,1.3933,1.9049,2.4071,2.8358,3.1948,3.3347,3.3131,0.0,3.3935,3.3953,3.3288,3.4866,3.5127,3.4703,3.4703,3.5591,3.6737,3.7256,3.8345,3.9513,3.9971,4.0089,4.0147,4.0466,4.0525,4.0263,3.9131,3.8289,3.6954,3.3806,3.3354,3.3396,3.2671,3.2293,3.2235,3.2803,2.8768,2.3804,1.9043,1.7359,1.6771,0.0,0.0,0.0,0.0,2.0524,0.0,0.0,0.0,0.0,2.9835,3.2587,3.6637,4.2149,4.1902,4.3627,4.8103,4.9236,5.0389,5.1682,5.1775,5.246,5.3691,5.3691,5.4135,5.4983,5.4983,5.5103,5.529,5.4629,5.5325,5.6852,5.6469,5.7315,5.8861,5.9105,5.8491,5.7411,5.7411,5.8594,6.0307,1.2174,1.2969,1.3679,1.3826,1.5833,1.7556,1.7904,1.7657,1.8414,2.1113,2.2757,2.3853,2.4314,2.6235,2.7501,2.7501,2.7612,2.7212,2.6103,2.7286,2.8226,2.8662,3.0376,3.1893,3.3034,3.0124,2.6355,2.1748,1.7619,1.3141,0.8496,0.842,0.8098,0.7683,0.9941,1.3277,1.7666,2.5645,2.9409,3.0286,3.3174,3.4246,3.4223,3.5132,3.5533,3.5707,3.6205,3.5778,3.4904,3.4904,3.6129,3.7642,3.7642,3.8878,4.035,4.035,4.035,4.0495,4.1076,4.1221,4.1366,4.1947,4.2092,4.1221,3.7825,3.707,3.707,3.707,3.4847,3.4615,4.0292,3.2613,2.3838,1.9005,1.8279,1.8453,0.0,0.0,0.0,0.0,0.0,0.0,0.0,0.0,0.0,2.7888,2.8953,3.1685,3.6466,3.9035,4.2386,4.681,4.821,4.971,5.1475,5.1124,5.1734,5.3292,5.3499,5.3763,5.3997,5.3997,5.379,5.3387,5.3256,5.363,5.4427,5.4877,5.5626,5.646,5.6816,5.6337,5.5412,5.5412,5.6759,5.8987,1.3074,1.3759,1.4406,1.4649,1.6582,1.8871,2.1071,2.2,2.2917,2.4266,2.6016,2.7326,2.7851,2.8266,2.8552,2.8552,2.9262,2.9913,3.0438,3.1442,3.2368,3.3224,3.3581,3.3824,3.3891,2.9366,2.5544,2.2501,1.6733,1.2208,0.8954,0.8514,0.8,0.7512,0.9428,1.4523,2.2006,2.7318,3.1015,3.3458,3.4527,3.5032,3.5232,3.5433,3.5807,3.6256,3.638,3.6256,3.6105,3.6105,3.7322,3.8884,3.8884,4.0216,4.1744,4.1744,4.1744,4.1773,4.1889,4.1918,4.1947,4.2063,4.2092,4.1918,4.125,4.1076,4.1076,4.1076,4.0641,3.9654,3.768,3.2642,2.7622,2.4123,2.3961,2.521,2.7895,0.0,0.0,0.0,0.0,2.6475,0.0,0.0,0.0,0.0,2.48,2.9218,3.845,3.671,3.9895,4.9653,5.0202,5.0358,5.0472,5.1733,5.194,5.1155,5.2491,5.3248,5.3526,5.3526,5.348,5.3361,5.2404,5.2909,5.4374,5.4056,5.5137,5.6958,5.6051,5.5587,5.5412,5.5412,5.5691,5.6409,1.424,1.4603,1.5278,1.6539,1.8606,2.0917,2.3422,2.5004,2.5763,2.5252,2.5972,2.6649,2.6889,2.8049,2.8792,2.8792,2.9209,2.9623,2.992,3.0822,3.1709,3.2562,3.3036,3.3211,3.3022,3.1104,2.7368,2.1756,1.8725,1.445,0.9088,0.883,0.8272,0.7628,1.1412,1.6232,2.1848,2.7139,3.0577,3.2592,3.4527,3.5372,3.5533,3.5832,3.6155,3.6405,3.6405,3.6405,3.6405,3.6405,3.7658,3.921,3.921,4.0524,4.2092,4.2092,4.2092,4.2092,4.2092,4.2092,4.2092,4.2092,4.2092,4.2092,4.2092,4.2092,4.2092,4.2092,4.2092,4.0902,3.7012,3.2919,2.961,2.8085,2.6416,2.6533,3.0089,0.0,0.0,0.0,0.0,0.0,0.0,0.0,0.0,0.0,0.0,2.8097,3.6175,3.4875,3.8065,4.714,4.7859,4.8633,4.9876,5.0001,5.0396,5.1058,5.1854,5.2344,5.2511,5.2511,5.2217,5.1593,5.1072,5.1488,5.2631,5.2958,5.3989,5.5295,5.4704,5.4467,5.4467,5.4467,5.4844,5.5757,1.5778,1.6036,1.6785,1.8773,2.0927,2.3011,2.4895,2.6774,2.7522,2.6148,2.5907,2.5886,2.5949,2.7655,2.8792,2.8792,2.8932,2.8955,2.8792,2.9555,3.0306,3.0935,3.1623,3.1996,3.1999,3.2326,2.9007,2.1942,2.0817,1.6737,0.9993,0.9542,0.93,0.9476,1.4476,1.8661,2.2286,2.7364,3.0402,3.2033,3.4648,3.5707,3.5732,3.623,3.6405,3.6405,3.6405,3.6405,3.6405,3.6405,3.752,3.8944,3.9144,4.0395,4.1814,4.2051,4.2092,4.2092,4.2092,4.2092,4.2092,4.2092,4.2092,4.2092,4.2092,4.2092,4.2092,4.2092,4.2092,4.0902,3.7012,3.4532,3.2587,3.1222,2.9116,2.8725,3.1773,3.186,0.0,0.0,0.0,0.0,2.5658,0.0,0.0,0.0,0.0,2.7348,3.3138,3.3546,3.6788,4.3732,4.4675,4.6007,4.7917,4.8133,4.9029,5.0637,5.11,5.1323,5.1347,5.1487,5.1044,5.02,5.0335,5.0743,5.1367,5.2316,5.3076,5.3592,5.3592,5.3592,5.3592,5.3592,5.4297,5.5473,1.7916,1.8782,1.9726,2.0928,2.3063,2.4724,2.5062,2.6741,2.81,2.8417,2.8234,2.821,2.8441,2.8661,2.8792,2.8792,2.9348,2.9784,3.0011,3.0462,3.0865,3.1156,3.1021,3.1265,3.1977,3.0373,2.8138,2.5331,2.094,1.6801,1.295,1.0946,1.1812,1.5142,1.8051,2.233,2.7523,2.9916,3.2532,3.513,3.5979,3.6306,3.6306,3.638,3.6405,3.6405,3.6405,3.6405,3.6405,3.6405,3.7083,3.8069,3.8921,3.9913,4.093,4.1835,4.2092,4.2092,4.2092,4.2092,4.2092,4.2092,4.2092,4.2092,4.2092,4.2092,4.2092,4.2092,4.2092,4.0902,3.7012,3.8899,3.9102,3.3251,3.4905,3.707,3.7447,3.6014,3.5142,0.0,0.0,0.0,0.0,2.3487,0.0,0.0,2.533,2.6457,3.1714,3.3033,3.6343,4.2315,4.3107,4.3133,4.2553,4.7664,4.9396,4.7806,4.9815,5.0543,5.0179,5.0724,5.0911,5.0851,5.1392,5.1961,5.2561,5.2669,5.3076,5.3592,5.3592,5.3592,5.3592,5.3592,5.3999,5.463,2.1153,2.136,2.2039,2.4011,2.4743,2.5685,2.7393,2.8073,2.8557,2.9091,2.8573,2.8256,2.8535,2.8558,2.8628,2.8769,2.9047,2.9118,2.891,2.9601,2.992,2.9692,3.017,3.0305,3.0034,2.9852,2.8068,2.4603,2.1805,1.8547,1.4878,1.4607,1.6663,2.0681,2.3817,2.6942,3.0062,3.2814,3.4768,3.6056,3.6306,3.6405,3.6405,3.6405,3.6405,3.6405,3.6405,3.6405,3.6405,3.6405,3.7013,3.7864,3.8251,3.9409,4.0689,4.1078,4.1619,4.2092,4.2092,4.2092,4.2092,4.2092,4.2092,4.2092,4.2092,4.2092,4.2092,4.2092,4.2092,4.1628,4.006,3.9131,3.8551,3.8318,3.7593,3.7883,4.0205,3.9886,3.9528,3.9741,0.0,0.0,0.0,0.0,2.5966,0.0,0.0,2.3684,3.009,3.154,3.4112,3.8218,4.2111,4.3751,4.2991,4.6734,4.8584,4.8436,4.931,5.0021,5.0553,5.0797,5.1095,5.1473,5.207,5.2477,5.275,5.3103,5.3375,5.3592,5.3592,5.3592,5.3592,5.3592,5.3972,5.4518,2.4054,2.3929,2.4386,2.6604,2.6549,2.6858,2.8852,2.8832,2.8732,2.9105,2.8585,2.8352,2.8778,2.8625,2.8634,2.8964,2.8647,2.835,2.8139,2.8583,2.8723,2.8375,2.898,2.9142,2.8701,2.9119,2.8144,2.5667,2.3691,2.1377,1.8828,1.9278,2.1595,2.5505,2.8547,3.0855,3.2668,3.5105,3.6238,3.6405,3.6405,3.6405,3.6405,3.6405,3.6405,3.6405,3.6405,3.6405,3.6405,3.6405,3.6826,3.7453,3.773,3.8899,4.026,4.0518,4.1318,4.2092,4.2092,4.1877,4.164,4.164,4.1451,4.1262,4.1262,4.1262,4.1262,4.1262,4.1472,4.164,4.164,3.9187,3.7996,4.0532,3.9063,3.8361,4.063,4.1105,4.1105,4.0728,3.8754,0.0,3.5601,3.1168,2.8385,2.8284,2.4517,2.4666,3.0263,3.1667,3.3702,3.6666,4.1408,4.3687,4.3278,4.6346,4.83,4.9087,4.9466,5.0091,5.0905,5.1258,5.1774,5.2341,5.2805,5.2968,5.3022,5.3429,5.3592,5.3592,5.3592,5.3592,5.3592,5.3592,5.3863,5.4216,2.6291,2.654,2.6975,2.8338,2.8541,2.8562,2.8607,2.8582,2.8582,2.8607,2.8607,2.8906,2.9695,2.9122,2.8916,2.9443,2.8346,2.7854,2.8371,2.7712,2.7428,2.7618,2.7428,2.7762,2.8678,2.7809,2.8236,3.0101,2.6785,2.534,2.5671,2.4802,2.6165,2.9423,3.139,3.3588,3.5895,3.6455,3.6568,3.6405,3.6405,3.6405,3.6405,3.6405,3.6405,3.6405,3.6405,3.6405,3.6405,3.6405,3.6405,3.6593,3.7523,3.8428,3.9409,4.0346,4.1318,4.2092,4.2092,4.136,4.0625,4.0625,3.9935,3.9232,3.9232,3.9232,3.9232,3.9232,3.9978,4.0625,4.0625,3.9814,3.895,3.8352,3.9552,4.0016,3.8447,3.8812,3.8783,3.7506,3.2309,3.0695,3.5424,2.9193,2.7388,3.3441,3.1639,3.107,3.2952,3.4136,3.6151,3.9156,4.1055,4.2032,4.2032,4.67,4.9087,4.9114,5.0308,5.0878,5.0932,5.2126,5.3022,5.3565,5.3592,5.3592,5.3592,5.3592,5.3592,5.3592,5.3592,5.3592,5.3592,5.3592,5.3592,5.3619,2.8752,2.8922,2.9042,2.9477,2.9559,2.9559,2.9559,2.9559,2.9559,2.9559,2.9559,2.9714,3.0155,2.9429,2.9042,2.9409,2.9062,2.883,2.8806,2.8586,2.8414,2.8271,2.8218,2.8174,2.8154,2.7841,2.8177,2.9165,2.6859,2.6718,2.854,2.8754,3.0648,3.3852,3.4674,3.5555,3.6455,3.6633,3.6593,3.6405,3.6405,3.6607,3.6959,3.6959,3.7185,3.7487,3.7487,3.7487,3.7487,3.7487,3.7487,3.7536,3.7826,3.8098,3.8319,3.8585,3.9365,4.0136,4.0136,3.9891,3.9673,3.9673,3.9431,3.921,3.921,3.921,3.921,3.921,3.9453,3.9673,3.9673,3.9409,3.9142,3.8933,3.9864,4.0428,3.9916,4.0604,4.1018,4.0612,3.8957,3.8323,3.9528,3.5713,3.3178,3.3193,3.0699,2.9794,3.1178,3.5066,3.7127,3.6856,4.2195,4.4664,4.385,4.7324,4.9493,5.0335,5.0715,5.1339,5.2154,5.2968,5.3429,5.3592,5.3592,5.3592,5.3592,5.3592,5.3592,5.3592,5.3592,5.3592,5.3592,5.3592,5.3592,5.3592,3.047,3.0512,3.0512,3.0512,3.0512,3.0512,3.0512,3.0512,3.0512,3.0512,3.0512,3.0592,3.0778,3.0109,2.9652,2.965,2.931,2.9076,2.9002,2.8902,2.8778,2.8607,2.8582,2.8458,2.8169,2.8148,2.8709,2.9813,2.9465,3.0084,3.1662,3.2419,3.3958,3.6057,3.6333,3.6613,3.6851,3.6664,3.6649,3.6708,3.6708,3.7034,3.7487,3.7487,3.7713,3.8015,3.8015,3.8015,3.8015,3.8015,3.8015,3.8015,3.8015,3.7925,3.7908,3.8048,3.8774,3.9459,3.9242,3.8944,3.8653,3.8653,3.8405,3.8157,3.8157,3.8405,3.8563,3.8225,3.8428,3.8653,3.8653,3.8383,3.8383,3.9099,3.9409,3.9804,4.0518,4.112,4.1315,4.0717,4.0641,4.0487,4.0084,3.8432,3.7071,3.6308,3.4854,3.4399,3.5384,3.6666,3.8103,3.9699,4.4556,4.6889,4.6374,4.8626,5.0146,5.0905,5.1367,5.2099,5.3049,5.3429,5.3592,5.3592,5.3592,5.3592,5.3592,5.3592,5.3592,5.3592,5.3592,5.3592,5.3592,5.3592,5.3592,5.3592,3.1381,3.1408,3.1408,3.1408,3.1408,3.1408,3.1408,3.1408,3.1408,3.1408,3.1408,3.1408,3.1408,3.1015,3.0599,3.0211,2.9279,2.8786,2.9057,2.8836,2.8711,2.8711,2.8711,2.8665,2.8644,2.8644,2.9599,3.159,3.3653,3.464,3.4663,3.5534,3.6088,3.6371,3.6576,3.6854,3.7117,3.6669,3.6758,3.7261,3.7261,3.7563,3.8065,3.8065,3.809,3.8115,3.8115,3.8115,3.8115,3.8115,3.8115,3.8115,3.8115,3.8115,3.8187,3.8469,3.92,3.9752,3.9258,3.847,3.7811,3.7811,3.7164,3.6507,3.6507,3.7187,3.7557,3.6671,3.7211,3.7811,3.7811,3.7117,3.7068,3.8827,3.8448,3.8516,4.0263,4.063,4.0166,3.8678,3.8571,3.8496,3.8255,3.8198,3.9192,4.1626,4.2324,4.2952,4.3576,3.8857,3.9319,4.6291,4.7595,4.849,4.9087,5.0308,5.0932,5.1041,5.2208,5.3076,5.3592,5.3592,5.3592,5.3592,5.3592,5.3592,5.3592,5.3592,5.3592,5.3592,5.3592,5.3592,5.3592,5.3592,5.3592,5.3592,3.1196,3.1408,3.1408,3.1408,3.1408,3.1408,3.1408,3.1408,3.1408,3.1408,3.1408,3.1408,3.1408,3.1305,3.1214,3.1094,3.0218,2.9689,2.9741,2.9689,2.9663,2.9663,2.9663,2.9497,2.9145,2.9145,2.9588,3.0482,3.296,3.4166,3.4214,3.56,3.6524,3.6975,3.6625,3.6978,3.7759,3.7233,3.7336,3.7814,3.7814,3.814,3.8693,3.8693,3.8944,3.9295,3.9295,3.9295,3.9295,3.9295,3.9295,3.9295,3.9295,3.9295,3.9145,3.8362,3.8302,3.8445,3.8317,3.8123,3.7954,3.7954,3.7784,3.7613,3.7613,3.7784,3.7906,3.7662,3.7808,3.7954,3.7954,3.776,3.776,3.8219,3.8698,3.9171,3.9614,4.1023,4.1834,4.1466,4.2122,4.2589,4.2551,4.2241,4.1421,3.9837,3.9985,4.0621,4.1679,4.0974,4.2358,4.6373,4.7595,4.849,4.9087,5.0308,5.1367,5.2289,5.3022,5.3456,5.3592,5.3592,5.3592,5.3592,5.3592,5.3592,5.3592,5.3592,5.3592,5.3592,5.3592,5.3592,5.3592,5.3592,5.3592,5.3592,3.173,3.2002,3.2002,3.2002,3.2002,3.2002,3.2002,3.2002,3.2002,3.2002,3.2002,3.2002,3.2002,3.1795,3.1671,3.1671,3.1029,3.0636,3.0636,3.0429,3.0305,3.0305,3.0098,2.987,2.9622,2.9622,2.9989,3.0796,3.3186,3.439,3.4414,3.5758,3.6754,3.7379,3.6957,3.7284,3.8162,3.7737,3.7889,3.8391,3.8391,3.8743,3.9271,3.9271,3.9446,3.9697,3.9697,3.9697,3.9697,3.9697,3.9697,3.9697,3.9697,3.9697,3.9572,3.8969,3.8592,3.8341,3.8065,3.8015,3.8015,3.8015,3.8015,3.8015,3.8015,3.8015,3.8015,3.8015,3.8015,3.8015,3.8015,3.8015,3.8015,3.8015,3.8025,3.8517,3.9938,4.0627,4.1614,4.3332,4.4079,4.4443,4.4511,4.4362,4.3495,4.1664,4.1932,4.2575,4.3525,4.4122,4.5451,4.7622,4.8273,4.8897,4.9493,5.0715,5.1936,5.313,5.3429,5.3592,5.3592,5.3592,5.3592,5.3592,5.3592,5.3592,5.3592,5.3592,5.3592,5.3592,5.3592,5.3592,5.3592,5.3592,5.3592,5.3646,3.2182,3.2584,3.2698,3.2698,3.2698,3.2698,3.2698,3.2698,3.2698,3.2698,3.2698,3.2698,3.2698,3.2346,3.2119,3.2119,3.1795,3.1553,3.1408,3.1036,3.0828,3.0828,3.0408,3.0201,3.0201,3.0201,3.0653,3.1572,3.3558,3.4501,3.4526,3.5599,3.6524,3.7266,3.7118,3.7541,3.834,3.819,3.8467,3.9019,3.9019,3.9296,3.9697,3.9697,3.9697,3.9697,3.9697,3.9697,3.9697,3.9697,3.9697,3.9697,3.9697,3.9747,3.9798,3.9722,3.9421,3.9019,3.8417,3.8266,3.8266,3.8266,3.8266,3.8266,3.8266,3.8266,3.8266,3.8266,3.8266,3.8266,3.8266,3.8266,3.8115,3.7713,3.7236,3.7659,3.9847,3.9914,4.0913,4.4111,4.4825,4.5136,4.5246,4.5364,4.5276,4.4899,4.5319,4.594,4.6726,4.7323,4.8165,4.9195,4.9141,4.9466,5.0253,5.1283,5.2395,5.3592,5.3592,5.3592,5.3592,5.3592,5.3592,5.3592,5.3592,5.3592,5.3592,5.3592,5.3592,5.3592,5.3592,5.3592,5.3592,5.3592,5.3646,5.3809,3.0898,3.196,3.2698,3.2698,3.2698,3.2698,3.2698,3.2698,3.2698,3.2698,3.2698,3.2698,3.2698,3.2636,3.2595,3.2595,3.2533,3.2188,3.145,3.1326,3.1305,3.1305,3.1222,3.1181,3.1181,3.1181,3.1262,3.1425,3.2623,3.3188,3.3214,3.4308,3.5132,3.5754,3.6231,3.7026,3.8026,3.8538,3.9095,3.9597,3.9597,3.9622,3.9697,3.9697,3.9697,3.9697,3.9697,3.9697,3.9697,3.9697,3.9697,3.9697,3.9697,4.0023,4.03,3.9823,3.9973,4.0149,3.9572,3.9446,3.9446,3.9446,3.9446,3.9446,3.9446,3.9446,3.9446,3.9446,3.9446,3.9446,3.9446,3.9446,3.8668,3.626,3.7739,3.8516,3.6605,3.944,4.1884,4.2473,4.4511,4.5914,4.5954,4.5994,4.6231,4.6668,4.6013,4.6292,4.7866,4.8517,4.9141,4.9819,4.9358,4.9873,5.15,5.1717,5.2395,5.3592,5.3592,5.3592,5.3592,5.3592,5.3592,5.3592,5.3592,5.3592,5.3592,5.3592,5.3592,5.3592,5.3592,5.3592,5.3592,5.3592,5.3917,5.4382,3.2216,3.2927,3.3236,3.343,3.3306,3.3265,3.343,3.3451,3.3451,3.3451,3.3451,3.3348,3.3099,3.3078,3.2975,3.2719,3.2698,3.2533,3.2126,3.1878,3.1733,3.1733,3.1533,3.1408,3.1408,3.1408,3.1408,3.1408,3.241,3.2899,3.2925,3.3986,3.4837,3.5401,3.5698,3.6262,3.6996,3.7292,3.7944,3.8738,3.8738,3.9128,3.9697,3.9697,3.9697,3.9747,4.0023,4.0149,4.0174,4.0449,4.0549,4.0549,4.0549,4.0725,4.0876,4.0625,4.0524,4.045,4.0199,4.0149,4.0149,4.0149,3.9923,3.9697,3.9697,3.9697,3.9697,3.9697,3.9697,3.9697,3.9697,3.9697,3.927,3.7965,3.8617,3.9222,3.9082,4.053,4.205,4.3189,4.4443,4.5181,4.5181,4.5105,4.5365,4.6121,4.5502,4.5758,4.7376,4.7551,4.8248,4.9669,4.9971,5.0605,5.1799,5.2124,5.275,5.3592,5.3592,5.3592,5.3592,5.3592,5.3592,5.3592,5.3592,5.3592,5.3592,5.3592,5.3592,5.3592,5.3592,5.3592,5.3592,5.3592,5.3782,5.4107,3.3215,3.3688,3.3803,3.406,3.3895,3.3803,3.406,3.4102,3.4102,3.4102,3.4102,3.3957,3.3605,3.3563,3.3439,3.3078,3.3037,3.3037,3.3037,3.2574,3.2284,3.2181,3.1878,3.1692,3.1692,3.1692,3.1692,3.1692,3.2481,3.2841,3.2868,3.3705,3.4334,3.4778,3.507,3.5436,3.5804,3.6077,3.67,3.7527,3.7791,3.8451,3.9335,3.9719,3.9898,3.9948,4.0474,4.0675,4.075,4.1177,4.1302,4.1302,4.1302,4.1403,4.1478,4.1352,4.1102,4.0877,4.0725,4.0675,4.0675,4.0675,4.0374,4.0074,4.0074,4.0074,4.0074,4.0074,4.0074,4.0074,4.0074,4.0074,3.9873,3.922,3.9321,3.9803,4.082,4.1232,4.2058,4.3696,4.4218,4.4533,4.4641,4.4625,4.497,4.574,4.5231,4.5479,4.674,4.663,4.7372,4.9284,5.0486,5.1421,5.1988,5.2449,5.3022,5.3592,5.3592,5.3592,5.3592,5.3592,5.3592,5.3592,5.3592,5.3592,5.3592,5.3592,5.3592,5.3592,5.3592,5.3592,5.3619,5.3754,5.389,5.4162,3.2107,3.3265,3.4081,3.4102,3.4081,3.4081,3.4102,3.4102,3.4102,3.4102,3.4102,3.4081,3.404,3.404,3.404,3.3998,3.3998,3.3998,3.3998,3.3563,3.3099,3.2677,3.2615,3.2595,3.2595,3.2595,3.2595,3.2595,3.268,3.2708,3.2708,3.2794,3.2871,3.2949,3.4062,3.4586,3.4692,3.5749,3.624,3.6402,3.7474,3.795,3.821,3.9829,4.0424,4.0499,4.1051,4.1225,4.1252,4.1302,4.1302,4.1302,4.1302,4.1681,4.2009,4.1453,4.1681,4.1959,4.1378,4.1225,4.1225,4.1225,4.1227,4.1202,4.1202,4.1202,4.1202,4.1202,4.1202,4.1202,4.1202,4.1202,4.0349,3.7789,3.9471,4.0275,3.7911,4.0205,4.2173,4.2355,4.3714,4.4856,4.5379,4.5895,4.6459,4.7044,4.6288,4.6091,4.6766,4.7019,4.7697,4.8891,5.0747,5.2016,5.2612,5.2696,5.3022,5.3592,5.3592,5.3592,5.3592,5.3592,5.3592,5.3592,5.3592,5.3592,5.3592,5.3592,5.3592,5.3592,5.3592,5.3592,5.3673,5.4216,5.4786,5.5383,3.2692,3.3992,3.49,3.49,3.49,3.49,3.49,3.49,3.49,3.49,3.49,3.4797,3.4558,3.4516,3.4413,3.4123,3.4102,3.4102,3.4102,3.3936,3.3492,3.2739,3.2698,3.2698,3.2698,3.2698,3.2698,3.2698,3.2698,3.2698,3.2698,3.2698,3.2698,3.2727,3.319,3.3388,3.3416,3.3847,3.4469,3.5273,3.6749,3.7787,3.864,4.0349,4.1001,4.1076,4.1656,4.1856,4.1907,4.2233,4.2359,4.2359,4.2359,4.2509,4.2663,4.2409,4.2537,4.2637,4.2409,4.2108,4.1856,4.1856,4.1605,4.1302,4.1302,4.1302,4.1302,4.1302,4.1302,4.1302,4.1302,4.1302,4.0976,3.9897,4.0927,4.1507,4.0451,4.1683,4.2813,4.3165,4.3731,4.4367,4.49,4.5008,4.5266,4.5799,4.5125,4.4962,4.5535,4.6386,4.7165,4.7951,4.9604,5.0895,5.177,5.2776,5.3375,5.3592,5.3592,5.3592,5.3592,5.3592,5.3592,5.3592,5.3592,5.3592,5.3592,5.3592,5.3809,5.4134,5.4134,5.4379,5.4758,5.4976,5.522,5.5491,3.2441,3.3851,3.4777,3.4777,3.5139,3.5387,3.5387,3.5387,3.5387,3.5387,3.5387,3.5314,3.5034,3.4993,3.4868,3.4558,3.4516,3.4516,3.4516,3.4392,3.3978,3.3182,3.3161,3.3161,3.3161,3.3161,3.3161,3.3161,3.2967,3.2934,3.2934,3.276,3.2698,3.2698,3.2698,3.2698,3.2698,3.2698,3.3245,3.428,3.5798,3.6979,3.8075,4.019,4.101,4.1087,4.2098,4.2436,4.2487,4.2889,4.3014,4.3014,4.3014,4.3014,4.3014,4.3014,4.3014,4.3014,4.3014,4.2738,4.2436,4.2436,4.2133,4.1829,4.1829,4.1829,4.1829,4.1829,4.1829,4.1829,4.1829,4.1829,4.1829,4.1829,4.2185,4.2512,4.2688,4.3014,4.3438,4.3991,4.4066,4.4292,4.4844,4.4744,4.4793,4.5221,4.4735,4.4488,4.4631,4.5753,4.6567,4.6936,4.8586,4.9816,5.0504,5.2253,5.3288,5.3592,5.3592,5.3592,5.3592,5.3592,5.3592,5.3592,5.3592,5.3592,5.3592,5.3592,5.3944,5.4518,5.4518,5.4867,5.5437,5.5627,5.5681,5.579,3.095,3.2409,3.3379,3.3379,3.4496,3.5356,3.5387,3.5387,3.5387,3.5387,3.5387,3.5387,3.5387,3.5387,3.5387,3.5387,3.5387,3.5387,3.5387,3.5034,3.4599,3.4123,3.4102,3.4102,3.4102,3.4102,3.4102,3.4102,3.3646,3.3418,3.3397,3.2934,3.2719,3.2719,3.2719,3.2719,3.2719,3.2719,3.2975,3.3485,3.4647,3.5388,3.6129,3.9132,4.0278,4.0519,4.2342,4.2986,4.2986,4.3014,4.3014,4.3014,4.3014,4.3014,4.3014,4.3014,4.3014,4.3014,4.3014,4.3014,4.3014,4.3014,4.3014,4.3014,4.3014,4.3014,4.3014,4.3014,4.3014,4.3014,4.3014,4.3014,4.3014,4.3014,4.3014,4.3215,4.374,4.3815,4.4016,4.4539,4.4614,4.4815,4.5447,4.5497,4.5604,4.5793,4.5483,4.4994,4.4347,4.5325,4.5902,4.5902,4.7929,4.899,4.899,5.1042,5.2588,5.3561,5.3561,5.3561,5.3592,5.3592,5.3592,5.3592,5.3619,5.3619,5.3619,5.3619,5.3972,5.4518,5.4518,5.4867,5.5491,5.6088,5.6305,5.6387,2.9328,3.0628,3.1593,3.1593,3.2104,3.2759,3.3466,3.38,3.434,3.5263,3.5387,3.5387,3.5387,3.5387,3.5387,3.5387,3.5387,3.5387,3.5387,3.5293,3.5169,3.5024,3.4433,3.4102,3.4102,3.4102,3.4102,3.4102,3.3957,3.3895,3.3895,3.377,3.3658,3.3687,3.3327,3.3182,3.3182,3.3182,3.3265,3.3547,3.5408,3.6253,3.6604,3.8715,3.9512,3.9709,4.1167,4.1672,4.181,4.2709,4.3014,4.3014,4.3014,4.3014,4.3014,4.3014,4.3014,4.3014,4.3014,4.3014,4.3014,4.3014,4.3014,4.3014,4.3014,4.3014,4.3014,4.3014,4.3014,4.3115,4.3489,4.3564,4.3689,4.4066,4.4141,4.4192,4.4342,4.4338,4.4593,4.5171,4.5221,4.5447,4.6024,4.6075,4.5975,4.5793,4.527,4.4748,4.4316,4.5325,4.5902,4.5902,4.7238,4.8297,4.899,5.034,5.1189,5.1502,5.1502,5.1877,5.2558,5.2558,5.2926,5.3619,5.4053,5.4216,5.4243,5.4704,5.522,5.5762,5.5762,5.6115,5.6685,5.6848,5.6929,5.6956,2.7618,2.8822,2.9947,3.0531,3.1318,3.2295,3.3434,3.3945,3.4496,3.5294,3.5387,3.5387,3.5387,3.5387,3.5387,3.5387,3.5387,3.5387,3.5387,3.5387,3.5387,3.5387,3.49,3.461,3.461,3.461,3.461,3.461,3.4454,3.4371,3.4371,3.4185,3.4102,3.4081,3.3812,3.3687,3.3687,3.3687,3.3791,3.4057,3.5376,3.5965,3.6308,3.7858,3.8447,3.8625,3.989,4.0668,4.1215,4.198,4.2597,4.3014,4.3014,4.3014,4.3014,4.3014,4.3014,4.3014,4.3014,4.3014,4.3014,4.3014,4.3014,4.3014,4.3014,4.3014,4.3065,4.3263,4.3313,4.3463,4.4016,4.4141,4.4213,4.4539,4.4589,4.4665,4.4945,4.497,4.5171,4.5748,4.5824,4.5949,4.6276,4.6301,4.609,4.5635,4.5117,4.4656,4.4316,4.5325,4.5902,4.5902,4.6944,4.7795,4.8396,4.9047,4.979,5.0588,5.0588,5.0936,5.1507,5.1507,5.1846,5.243,5.3014,5.3499,5.3926,5.4544,5.5356,5.6305,5.6305,5.6658,5.7206,5.7206,5.7206,5.7206,2.6011,2.7085,2.8361,2.9655,3.1157,3.2689,3.4215,3.4746,3.5077,3.5325,3.5387,3.5387,3.5387,3.5387,3.5387,3.5387,3.5387,3.5387,3.5387,3.5387,3.5387,3.5387,3.5387,3.5387,3.5387,3.5387,3.5387,3.5387,3.5024,3.4848,3.4827,3.4413,3.4226,3.4205,3.4185,3.4164,3.4164,3.4164,3.4413,3.4786,3.4827,3.5066,3.5541,3.6694,3.7127,3.7309,3.8566,3.9832,4.0957,4.1186,4.2037,4.3014,4.3014,4.3014,4.3014,4.3014,4.3014,4.3014,4.3014,4.3014,4.3014,4.3014,4.3039,4.309,4.309,4.309,4.3212,4.3765,4.3865,4.4041,4.4564,4.4665,4.469,4.474,4.474,4.4916,4.5472,4.5573,4.5748,4.625,4.6301,4.6301,4.6301,4.6301,4.6029,4.5361,4.5025,4.4711,4.4388,4.5349,4.5926,4.5974,4.6968,4.7497,4.7497,4.7497,4.8428,5.0334,5.0334,5.0366,5.0461,5.0461,5.0493,5.0639,5.1139,5.1968,5.2971,5.357,5.4762,5.6259,5.6259,5.6648,5.7206,5.7206,5.7206,5.7206,2.5626,2.5962,2.6249,2.6584,2.7135,2.8295,3.0498,3.1382,3.2581,3.4715,3.5232,3.5387,3.5387,3.5387,3.5387,3.5387,3.5387,3.5387,3.5387,3.5387,3.5387,3.5387,3.5387,3.5387,3.5387,3.5387,3.5387,3.5387,3.5314,3.5273,3.5273,3.5169,3.5128,3.5107,3.4786,3.464,3.464,3.464,3.4703,3.4827,3.5128,3.5304,3.5418,3.5705,3.5798,3.5982,3.7248,3.8536,3.9919,4.1923,4.2765,4.3014,4.3014,4.3014,4.3014,4.3014,4.3014,4.3014,4.3014,4.3014,4.3014,4.3014,4.3341,4.3614,4.3614,4.3614,4.379,4.4342,4.4414,4.4618,4.5196,4.5296,4.5447,4.5874,4.5919,4.5999,4.6125,4.6125,4.6175,4.6301,4.6301,4.6301,4.6301,4.6301,4.6029,4.5361,4.5239,4.5103,4.4948,4.5541,4.607,4.6503,4.7161,4.7497,4.7497,4.7497,4.7729,4.819,4.819,4.8592,4.9346,4.9346,4.9822,5.0639,5.1581,5.2147,5.2452,5.3458,5.4607,5.5755,5.5755,5.6358,5.7206,5.7206,5.7206,5.7206,2.5322,2.5356,2.5558,2.6215,2.6602,2.7717,3.0304,3.1157,3.2263,3.4372,3.4953,3.517,3.517,3.5294,3.5387,3.5387,3.5387,3.5387,3.5387,3.5387,3.5387,3.5387,3.5387,3.5387,3.5387,3.5387,3.5387,3.5387,3.5387,3.5387,3.5387,3.5387,3.5387,3.5387,3.519,3.5096,3.5096,3.5096,3.5096,3.5086,3.5335,3.5387,3.5387,3.5387,3.5387,3.5572,3.6824,3.8513,4.0384,4.2347,4.3014,4.3014,4.3014,4.3014,4.3014,4.3014,4.3014,4.3014,4.3014,4.3014,4.3065,4.3313,4.3589,4.379,4.379,4.4016,4.4342,4.492,4.5045,4.5196,4.5773,4.5874,4.5974,4.625,4.6301,4.6301,4.6301,4.6301,4.6301,4.6301,4.6301,4.6301,4.6301,4.6301,4.609,4.5574,4.5638,4.5599,4.5336,4.595,4.6407,4.6704,4.7233,4.7497,4.7497,4.7497,4.7497,4.7497,4.7497,4.7795,4.8297,4.8297,4.8592,4.9162,5.0257,5.1005,5.1546,5.2658,5.3793,5.4794,5.4794,5.5452,5.6432,5.6432,5.6946,5.764,2.5086,2.5086,2.5442,2.6568,2.7219,2.8443,3.0983,3.183,3.2708,3.4121,3.4673,3.4891,3.4891,3.5201,3.5387,3.5387,3.5387,3.5387,3.5387,3.5387,3.5387,3.5387,3.5387,3.5387,3.5387,3.5387,3.5387,3.5387,3.5387,3.5387,3.5387,3.5387,3.5387,3.5387,3.5387,3.5387,3.5387,3.5387,3.5387,3.5387,3.5387,3.5387,3.5387,3.5387,3.5387,3.5541,3.6603,3.8454,4.0673,4.2178,4.2681,4.2709,4.2905,4.3014,4.3014,4.3014,4.3014,4.3039,4.3115,4.314,4.3291,4.379,4.4016,4.4091,4.4091,4.4443,4.4945,4.5497,4.5623,4.5773,4.6225,4.6301,4.6301,4.6301,4.6301,4.6301,4.6301,4.6301,4.6301,4.6301,4.6301,4.6301,4.6301,4.6301,4.612,4.5757,4.5872,4.5851,4.567,4.6231,4.6655,4.6848,4.7281,4.7497,4.7497,4.7497,4.7497,4.7497,4.7497,4.7497,4.7497,4.7497,4.7497,4.7569,4.8628,4.9607,5.0502,5.1555,5.2657,5.3623,5.3623,5.4325,5.5319,5.5391,5.6332,5.7548,2.5086,2.5086,2.5153,2.5356,2.6368,2.7701,2.9313,3.0886,3.2378,3.3796,3.4517,3.4891,3.4891,3.5201,3.5387,3.5387,3.5387,3.5387,3.5387,3.5387,3.5387,3.5387,3.5387,3.5387,3.5387,3.5387,3.5387,3.5387,3.5387,3.5387,3.5387,3.5387,3.5387,3.5387,3.5387,3.5387,3.5387,3.5387,3.5387,3.5387,3.5387,3.5387,3.5387,3.5387,3.5387,3.5418,3.5603,3.6603,3.8186,4.0558,4.1358,4.1529,4.2653,4.3014,4.3014,4.3014,4.3014,4.3115,4.3564,4.3689,4.3815,4.4338,4.4895,4.5271,4.5271,4.5321,4.5522,4.6075,4.62,4.6225,4.6301,4.6301,4.6301,4.6301,4.6301,4.6301,4.6301,4.6301,4.6301,4.6301,4.6301,4.6301,4.6301,4.6301,4.6029,4.5422,4.5404,4.5537,4.583,4.5958,4.6407,4.7377,4.7473,4.7497,4.7497,4.7497,4.7497,4.7497,4.7497,4.7497,4.7497,4.7497,4.7497,4.7569,4.8628,4.9187,4.9396,5.0484,5.1562,5.2519,5.2519,5.3206,5.4208,5.4663,5.4963,5.5365,2.5593,2.5593,2.5593,2.5593,2.6096,2.7264,2.9513,3.0514,3.1746,3.3745,3.4615,3.4831,3.4381,3.4797,3.5201,3.5387,3.5387,3.5387,3.5387,3.5387,3.5387,3.5387,3.5387,3.5387,3.5387,3.5387,3.5387,3.5387,3.5387,3.5387,3.5387,3.5387,3.5387,3.5387,3.5387,3.5387,3.5387,3.5387,3.5387,3.5387,3.5387,3.5387,3.5387,3.5387,3.5387,3.5479,3.6227,3.7278,3.8655,4.0471,4.11,4.1329,4.2597,4.3014,4.3014,4.3014,4.3187,4.3489,4.374,4.4016,4.4364,4.497,4.5045,4.5095,4.5422,4.5246,4.5246,4.6125,4.6301,4.6301,4.6301,4.6301,4.6301,4.6301,4.6301,4.6301,4.6301,4.6301,4.6301,4.6301,4.6547,4.6622,4.6351,4.6853,4.6831,4.5928,4.6353,4.6599,4.6453,4.6682,4.7016,4.7497,4.7497,4.7497,4.7497,4.7497,4.7497,4.7497,4.7497,4.7497,4.7497,4.7497,4.7497,4.7569,4.8628,4.9119,4.9191,5.0263,5.0978,5.1436,5.1728,5.2703,5.3993,5.4838,5.5362,5.5774]},{"header":{"parameterUnit":"m.s-1","parameterCategory":1,"la1":30.6,"la2":28.766,"lo1":-90.7593,"lo2":-88.6598,"dx":0.0162,"dy":0.0183,"nx":116,"ny":114,"refTime":"2022-11-08T06:00:00:Z","depth":0,"parameterNumber":3,"parameterNumberName":"V-component_of_WINDS"},"data":[0.0,0.0,0.0,0.0,0.0,0.0,0.0,0.0,0.0,0.0,0.0,0.0,0.0,0.0,0.0,0.0,0.0,0.0,0.0,0.0,0.0,0.0,0.0,0.0,0.0,0.0,0.0,0.0,0.0,0.0,0.0,0.0,0.0,0.0,0.0,0.0,0.0,0.0,0.0,0.0,0.0,0.0,0.0,0.0,0.0,0.0,0.0,0.0,0.0,0.0,0.0,0.0,0.0,0.0,0.0,0.0,0.0,0.0,0.0,0.0,0.0,0.0,0.0,0.0,0.0,0.0,0.0,0.0,0.0,0.0,0.0,0.0,0.0,0.0,0.0,0.0,0.0,0.0,0.0,0.0,0.0,0.0,0.0,0.0,0.0,0.0,0.0,0.0,0.0,0.0,0.0,0.0,0.0,0.0,0.0,0.0,0.0,0.0,0.0,0.0,0.0,0.0,0.0,0.0,0.0,0.0,0.0,0.0,0.0,0.0,0.0,0.0,0.0,0.0,0.0,0.0,0.0,0.0,0.0,0.0,0.0,0.0,0.0,0.0,0.0,0.0,0.0,0.0,0.0,0.0,0.0,0.0,0.0,0.0,0.0,0.0,0.0,0.0,0.0,0.0,0.0,0.0,0.0,0.0,0.0,0.0,0.0,0.0,0.0,0.0,0.0,0.0,0.0,0.0,0.0,0.0,0.0,0.0,0.0,0.0,0.0,0.0,0.0,0.0,0.0,0.0,0.0,0.0,0.0,0.0,0.0,0.0,0.0,0.0,0.0,0.0,0.0,0.0,0.0,0.0,0.0,0.0,0.0,0.0,0.0,0.0,0.0,0.0,0.0,0.0,0.0,0.0,0.0,0.0,0.0,0.0,0.0,0.0,0.0,0.0,0.0,0.0,0.0,0.0,0.0,0.0,0.0,0.0,0.0,0.0,0.0,0.0,0.0,0.0,0.0,0.0,0.0,0.0,0.0,0.0,0.0,0.0,0.0,0.0,0.0,0.0,0.0,0.0,0.0,0.0,0.0,0.0,0.0,0.0,0.0,0.0,0.0,0.0,0.0,0.0,0.0,0.0,0.0,0.0,0.0,0.0,0.0,0.0,0.0,0.0,0.0,0.0,0.0,0.0,0.0,0.0,0.0,0.0,0.0,0.0,0.0,0.0,0.0,0.0,0.0,0.0,0.0,0.0,0.0,0.0,0.0,0.0,0.0,0.0,0.0,0.0,0.0,0.0,0.0,0.0,0.0,0.0,0.0,0.0,0.0,0.0,0.0,0.0,0.0,0.0,0.0,0.0,0.0,0.0,0.0,0.0,0.0,0.0,0.0,0.0,0.0,0.0,0.0,0.0,0.0,0.0,0.0,0.0,0.0,0.0,0.0,0.0,0.0,0.0,0.0,0.0,0.0,0.0,0.0,0.0,0.0,0.0,0.0,0.0,0.0,0.0,0.0,0.0,0.0,0.0,0.0,0.0,0.0,0.0,0.0,0.0,0.0,0.0,0.0,0.0,0.0,0.0,0.0,0.0,0.0,0.0,0.0,0.0,0.0,0.0,0.0,0.0,0.0,0.0,0.0,0.0,0.0,0.0,0.0,0.0,0.0,0.0,0.0,0.0,0.0,0.0,0.0,0.0,0.0,0.0,0.0,0.0,0.0,0.0,0.0,0.0,0.0,0.0,0.0,0.0,0.0,0.0,0.0,0.0,0.0,0.0,0.0,0.0,0.0,0.0,0.0,0.0,0.0,0.0,0.0,0.0,0.0,0.0,0.0,0.0,0.0,0.0,0.0,0.0,0.0,0.0,0.0,0.0,0.0,0.0,0.0,0.0,0.0,0.0,0.0,0.0,0.0,0.0,0.0,0.0,0.0,0.0,0.0,0.0,0.0,0.0,0.0,0.0,0.0,0.0,0.0,0.0,0.0,0.0,0.0,0.0,0.0,0.0,0.0,0.0,0.0,0.0,0.0,0.0,0.0,0.0,0.0,0.0,0.0,0.0,0.0,0.0,0.0,0.0,0.0,0.0,0.0,0.0,0.0,0.0,0.0,0.0,0.0,0.0,0.0,0.0,0.0,0.0,0.0,0.0,0.0,0.0,0.0,0.0,0.0,0.0,0.0,0.0,0.0,0.0,0.0,0.0,0.0,0.0,0.0,0.0,0.0,0.0,0.0,0.0,0.0,0.0,0.0,0.0,0.0,0.0,0.0,0.0,0.0,0.0,0.0,0.0,0.0,0.0,0.0,0.0,0.0,0.0,0.0,0.0,0.0,0.0,0.0,0.0,0.0,0.0,0.0,0.0,0.0,0.0,0.0,0.0,0.0,0.0,0.0,0.0,0.0,0.0,0.0,0.0,0.0,0.0,0.0,0.0,0.0,0.0,0.0,0.0,0.0,0.0,0.0,0.0,0.0,0.0,0.0,0.0,0.0,0.0,0.0,0.0,0.0,0.0,0.0,0.0,0.0,0.0,0.0,0.0,0.0,0.0,0.0,0.0,0.0,0.0,0.0,0.0,0.0,0.0,0.0,0.0,0.0,0.0,0.0,0.0,0.0,0.0,0.0,0.0,0.0,0.0,0.0,0.0,0.0,0.0,0.0,0.0,0.0,0.0,0.0,0.0,0.0,0.0,0.0,0.0,0.0,0.0,0.0,0.0,0.0,0.0,0.0,0.0,0.0,0.0,0.0,0.0,0.0,0.0,0.0,0.0,0.0,0.0,0.0,0.0,0.0,0.0,0.0,0.0,0.0,0.0,0.0,0.0,0.0,0.0,0.0,0.0,0.0,0.0,0.0,0.0,0.0,0.0,0.0,0.0,0.0,0.0,0.0,0.0,0.0,0.0,0.0,0.0,0.0,0.0,0.0,0.0,0.0,0.0,0.0,0.0,0.0,0.0,0.0,0.0,0.0,0.0,0.0,0.0,0.0,0.0,0.0,0.0,0.0,0.0,0.0,0.0,0.0,0.0,0.0,0.0,0.0,0.0,0.0,0.0,0.0,0.0,0.0,0.0,0.0,0.0,0.0,0.0,0.0,0.0,0.0,0.0,0.0,0.0,0.0,0.0,0.0,0.0,0.0,0.0,0.0,0.0,0.0,0.0,0.0,0.0,0.0,0.0,0.0,0.0,0.0,0.0,0.0,0.0,0.0,0.0,0.0,0.0,0.0,0.0,0.0,0.0,0.0,0.0,0.0,0.0,0.0,0.0,0.0,0.0,0.0,0.0,0.0,0.0,0.0,0.0,0.0,0.0,0.0,0.0,0.0,0.0,0.0,0.0,0.0,0.0,0.0,0.0,0.0,0.0,0.0,0.0,0.0,0.0,0.0,0.0,0.0,0.0,0.0,0.0,0.0,0.0,0.0,0.0,0.0,0.0,0.0,0.0,0.0,0.0,0.0,0.0,0.0,0.0,0.0,0.0,0.0,0.0,0.0,0.0,0.0,0.0,0.0,0.0,0.0,0.0,0.0,0.0,0.0,0.0,0.0,0.0,0.0,0.0,0.0,0.0,0.0,0.0,0.0,0.0,0.0,0.0,0.0,0.0,0.0,0.0,0.0,0.0,0.0,0.0,0.0,0.0,0.0,0.0,0.0,0.0,0.0,0.0,0.0,0.0,0.0,0.0,0.0,0.0,0.0,0.0,0.0,0.0,0.0,0.0,0.0,0.0,0.0,0.0,0.0,0.0,0.0,0.0,0.0,0.0,0.0,0.0,0.0,0.0,0.0,0.0,0.0,0.0,0.0,0.0,0.0,0.0,0.0,0.0,0.0,0.0,0.0,0.0,0.0,0.0,0.0,0.0,0.0,0.0,0.0,0.0,0.0,0.0,0.0,0.0,0.0,0.0,0.0,0.0,0.0,0.0,0.0,0.0,0.0,0.0,0.0,0.0,0.0,0.0,0.0,0.0,0.0,0.0,0.0,0.0,0.0,0.0,0.0,0.0,0.0,0.0,0.0,0.0,0.0,0.0,0.0,0.0,0.0,0.0,0.0,0.0,0.0,0.0,0.0,0.0,0.0,0.0,0.0,0.0,0.0,0.0,0.0,0.0,0.0,0.0,0.0,0.0,0.0,0.0,0.0,0.0,0.0,0.0,0.0,0.0,0.0,0.0,0.0,0.0,0.0,0.0,0.0,0.0,0.0,0.0,0.0,0.0,0.0,0.0,0.0,0.0,0.0,0.0,0.0,0.0,0.0,0.0,0.0,0.0,0.0,0.0,0.0,0.0,0.0,0.0,0.0,0.0,0.0,0.0,0.0,0.0,0.0,0.0,0.0,0.0,0.0,0.0,0.0,0.0,0.0,0.0,0.0,0.0,0.0,0.0,0.0,0.0,0.0,0.0,0.0,0.0,0.0,0.0,0.0,0.0,0.0,0.0,0.0,0.0,0.0,0.0,0.0,0.0,0.0,0.0,0.0,0.0,0.0,0.0,0.0,0.0,0.0,0.0,0.0,0.0,0.0,0.0,0.0,0.0,0.0,0.0,0.0,0.0,0.0,0.0,0.0,0.0,0.0,0.0,0.0,0.0,0.0,0.0,0.0,0.0,0.0,0.0,0.0,0.0,0.0,0.0,0.0,0.0,0.0,0.0,0.0,0.0,0.0,0.0,0.0,0.0,0.0,0.0,0.0,0.0,0.0,0.0,0.0,0.0,0.0,0.0,0.0,0.0,0.0,0.0,0.0,0.0,0.0,0.0,0.0,0.0,0.0,0.0,0.0,0.0,0.0,0.0,0.0,0.0,0.0,0.0,0.0,0.0,0.0,0.0,0.0,0.0,0.0,0.0,0.0,0.0,0.0,0.0,0.0,0.0,0.0,0.0,0.0,0.0,0.0,0.0,0.0,0.0,0.0,0.0,0.0,0.0,0.0,0.0,0.0,0.0,0.0,0.0,0.0,0.0,0.0,0.0,0.0,0.0,0.0,0.0,0.0,0.0,0.0,0.0,0.0,0.0,0.0,0.0,0.0,0.0,0.0,0.0,0.0,0.0,0.0,0.0,0.0,0.0,0.0,0.0,0.0,0.0,0.0,0.0,0.0,0.0,0.0,0.0,0.0,0.0,0.0,0.0,0.0,0.0,0.0,0.0,0.0,0.0,0.0,0.0,0.0,0.0,0.0,0.0,0.0,0.0,0.0,0.0,0.0,0.0,0.0,0.0,0.0,0.0,0.0,0.0,0.0,0.0,0.0,0.0,0.0,0.0,0.0,0.0,0.0,0.0,0.0,0.0,0.0,0.0,0.0,0.0,0.0,0.0,0.0,0.0,0.0,0.0,0.0,0.0,0.0,0.0,0.0,0.0,0.0,0.0,0.0,0.0,0.0,0.0,0.0,0.0,0.0,0.0,0.0,0.0,0.0,0.0,0.0,0.0,0.0,0.0,0.0,0.0,0.0,0.0,0.0,0.0,0.0,0.0,0.0,0.0,0.0,0.0,0.0,0.0,0.0,0.0,0.0,0.0,0.0,0.0,0.0,0.0,0.0,0.0,0.0,0.0,0.0,0.0,0.0,0.0,0.0,0.0,0.0,0.0,0.0,0.0,0.0,0.0,0.0,0.0,0.0,0.0,0.0,0.0,0.0,0.0,0.0,0.0,0.0,0.0,0.0,0.0,0.0,0.0,0.0,0.0,0.0,0.0,0.0,0.0,0.0,0.0,0.0,0.0,0.0,0.0,0.0,0.0,0.0,0.0,0.0,0.0,0.0,0.0,0.0,0.0,0.0,0.0,0.0,0.0,0.0,0.0,0.0,0.0,0.0,0.0,0.0,0.0,0.0,0.0,0.0,0.0,0.0,0.0,0.0,0.0,0.0,0.0,0.0,0.0,0.0,0.0,0.0,0.0,0.0,0.0,0.0,0.0,0.0,0.0,0.0,0.0,0.0,0.0,0.0,0.0,0.0,0.0,0.0,0.0,0.0,0.0,0.0,0.0,0.0,0.0,0.0,0.0,0.0,0.0,0.0,0.0,0.0,0.0,0.0,0.0,0.0,0.0,0.0,0.0,0.0,0.0,0.0,0.0,0.0,0.0,0.0,0.0,0.0,0.0,0.0,0.0,0.0,0.0,0.0,0.0,0.0,0.0,0.0,0.0,0.0,0.0,0.0,0.0,0.0,0.0,0.0,0.0,1.9035,1.5468,0.0,0.0,0.0,0.0,0.0,0.0,0.0,0.0,0.0,0.0,0.0,0.0,0.0,0.0,0.0,0.0,0.0,0.0,0.0,0.0,0.0,0.0,0.0,0.2852,0.2904,0.2792,0.2726,0.0,0.0,0.0,0.0,0.0,0.0,0.0,0.1465,0.1699,0.1923,0.215,0.2708,0.3668,0.498,0.4439,0.3912,0.3388,0.0,0.0,0.0,0.0,0.0,0.0,0.0,0.0,0.0,0.0,0.0,0.0,0.0,0.0,0.0,0.0,0.0,0.0,0.0,0.0,0.0,0.0,0.0,0.0,0.0,0.0,0.0,0.0,0.0,0.0,0.0,0.0,0.0,0.0,0.0,0.0,0.0,0.0,0.0,0.0,0.0,0.0,0.0,0.0,0.0,0.0,0.0,0.0,0.0,0.0,0.0,0.0,0.0,0.0,0.0,0.0,0.0,0.0,0.0,0.0,0.0,0.0,0.0,0.0,0.0,0.0,0.0,0.0,0.0,0.0,2.1648,1.9625,0.0,0.0,0.0,0.0,0.0,0.0,0.0,0.0,0.0,0.0,0.0,0.0,0.0,0.0,0.0,0.0,0.0,0.0,0.0,0.0,0.0,0.27,0.2771,0.3002,0.315,0.3159,0.3114,0.2958,0.265,0.2321,0.0,0.0,0.1525,0.1327,0.1058,0.1357,0.1701,0.2084,0.3347,0.4548,0.5685,0.5875,0.5609,0.4953,0.4246,0.0,0.0,0.0,0.0,0.0,0.0,0.0,0.0,0.0,0.0,0.0,0.0,0.0,0.0,0.0,0.0,0.0,0.0,0.0,0.0,0.0,0.0,0.0,0.0,0.0,0.0,0.0,0.0,0.0,0.0,0.0,0.0,0.0,0.0,0.0,0.0,0.0,0.0,0.0,0.0,0.0,0.0,0.0,0.0,0.0,0.0,0.0,0.0,0.0,0.0,0.0,0.0,0.0,0.0,0.0,0.0,0.0,0.0,0.0,0.0,0.0,0.0,0.0,2.2823,2.3328,2.3873,2.3953,2.5155,2.7098,2.4811,2.4728,2.5901,2.1428,0.0,0.0,0.0,0.0,0.0,0.0,0.0,0.0,0.0,0.0,0.0,0.0,0.0,0.0,0.0,0.0,0.0,0.0,0.0,0.2753,0.3103,0.3026,0.308,0.3419,0.3444,0.3239,0.2801,0.2724,0.2447,0.1886,0.1732,0.1536,0.1264,0.1476,0.1726,0.2017,0.4305,0.5901,0.6799,0.7228,0.7373,0.7196,0.5557,0.4473,0.3857,0.0,0.0,0.0,0.0,0.0,0.0,0.0,0.0,0.0,0.0,0.0,0.0,0.0,0.0,0.0,0.0,0.0,0.0,0.0,0.0,0.0,0.0,0.0,0.0,0.0,0.0,0.0,0.0,0.0,0.0,0.0,0.0,0.0,0.0,0.0,0.0,0.0,0.0,0.0,0.0,0.0,1.2262,1.3154,0.0,0.0,0.0,0.0,0.0,0.0,0.0,0.0,0.0,0.0,0.0,0.0,0.0,2.1163,2.1981,2.4242,2.5643,2.6201,2.8522,2.9938,3.0443,3.0927,3.1336,3.1649,3.1741,0.0,2.6705,2.554,0.0,0.0,0.0,0.0,0.0,0.0,0.0,0.0,0.0,0.0,0.0,0.0,0.0,0.0,0.0,0.0,0.0,0.0,0.0,0.0,0.0,0.4221,0.4682,0.5047,0.5414,0.5189,0.4107,0.3826,0.3199,0.2056,0.1888,0.1883,0.2023,0.23,0.2966,0.4027,0.5835,0.6954,0.7399,0.7684,0.7735,0.7548,0.6757,0.5966,0.5215,0.4876,0.0,0.0,0.0,0.0,0.0,0.0,0.0,0.0,0.0,0.0,0.0,0.0,0.0,0.0,0.0,0.0,0.0,0.0,0.0,0.0,0.0,0.0,0.0,0.0,0.0,0.0,0.0,0.0,0.0,0.0,0.0,0.0,0.0,0.0,0.0,0.0,0.0,0.0,0.0,1.0436,1.1412,1.2888,1.1621,1.0454,0.0,0.0,0.0,0.0,0.0,0.0,0.0,0.0,0.0,2.4393,2.4231,2.4917,2.6691,2.7279,2.7692,2.7919,2.9671,3.0635,3.0892,3.2001,3.2491,3.2539,3.3068,3.2226,3.0374,2.8619,2.6622,2.4526,0.0,0.0,0.0,0.0,2.4874,2.6246,0.0,0.0,0.0,0.0,0.0,0.0,0.0,0.0,0.0,0.0,0.0,0.0,0.4659,0.5694,0.652,0.6977,0.748,0.7208,0.5831,0.5159,0.4171,0.2752,0.2363,0.2359,0.2718,0.3353,0.4432,0.5958,0.6728,0.7242,0.749,0.752,0.7505,0.7464,0.7607,0.7167,0.6272,0.5959,0.5281,0.4369,0.0,0.0,0.0,0.0,0.0,0.0,0.0,0.0,0.0,0.0,0.0,0.0,0.0,0.0,0.0,0.0,0.0,0.0,0.0,0.0,0.0,0.0,0.0,0.0,0.0,0.0,0.0,0.0,0.0,0.0,0.0,0.0,0.0,0.0,0.0,0.0,0.0,1.0973,1.1557,1.2995,1.2452,1.1604,0.0,0.0,0.0,0.0,0.0,0.0,2.125,2.2648,2.4639,2.7268,2.7019,2.7795,2.9806,2.9073,2.8704,2.8704,2.9464,2.9966,3.0261,3.1664,3.2454,3.2731,3.3404,3.3669,3.3501,3.124,2.9773,2.8767,2.7429,2.681,2.6901,2.8787,3.0234,3.1696,0.0,0.0,0.0,0.0,0.0,0.0,0.0,0.0,0.0,0.0,0.0,0.5381,0.6122,0.7153,0.8106,0.8889,0.9047,0.8723,0.7811,0.6597,0.5437,0.4326,0.3424,0.2979,0.3064,0.452,0.5819,0.6931,0.6361,0.6375,0.6939,0.6683,0.6828,0.7344,0.7916,0.7573,0.6562,0.6291,0.5955,0.5504,0.4256,0.0,0.0,0.0,0.0,0.0,0.0,0.0,0.0,0.0,0.0,0.0,0.0,0.0,0.0,0.0,0.0,0.0,0.0,0.0,0.0,0.0,0.0,0.0,0.0,0.0,0.0,0.0,0.0,0.0,0.0,0.0,0.0,0.0,0.0,0.0,0.0,0.0,0.0,1.4404,1.4697,0.0,0.0,0.0,0.0,1.5919,1.7692,2.005,2.3085,2.4118,2.5846,2.8512,2.8599,2.8642,2.8773,2.8727,2.8704,2.8704,2.875,2.928,3.0261,3.1343,3.2371,3.3308,3.4294,3.4727,3.4631,3.3549,3.1865,3.0136,3.116,3.0526,2.9548,3.3678,3.5432,3.6211,0.0,0.0,0.0,0.3353,0.3142,0.298,0.2932,0.3131,0.3361,0.3624,0.5305,0.6777,0.751,0.9508,1.0909,1.1199,1.1922,1.1697,1.0186,0.8488,0.7377,0.6997,0.5036,0.4887,0.6865,0.7937,0.8628,0.8931,0.9002,0.872,0.8125,0.8031,0.808,0.8268,0.8496,0.8126,0.736,0.7128,0.664,0.596,0.5287,0.4513,0.0,0.0,0.0,0.0,0.0,0.0,0.0,0.0,0.0,0.0,0.0,0.0,0.0,0.0,0.0,0.0,0.0,0.0,0.0,0.0,0.0,0.0,0.0,0.0,0.0,0.0,0.0,0.0,0.0,0.0,0.0,0.0,0.0,0.0,0.0,0.0,0.0,1.3381,1.4188,0.0,1.4375,1.6247,1.8151,1.9707,2.2281,2.4218,2.5214,2.6556,2.7403,2.7664,2.7725,2.7722,2.7722,2.7081,2.6768,2.6768,2.7437,2.8457,2.9816,3.1174,3.2511,3.379,3.4679,3.5042,3.5042,3.487,3.4562,3.439,3.5326,3.5785,3.613,3.8137,3.8947,3.9219,0.0,0.0,0.0,0.3347,0.3181,0.3056,0.3006,0.3371,0.398,0.4966,0.6804,0.8608,1.014,1.2132,1.3503,1.3811,1.4536,1.4157,1.2213,1.0476,0.9159,0.8376,0.6737,0.7217,1.0118,1.0668,1.0988,1.1148,1.1062,1.0379,0.9129,0.8994,0.8806,0.861,0.8803,0.8655,0.8203,0.7782,0.7141,0.6395,0.6024,0.5416,0.4747,0.0,0.0,0.0,0.0,0.0,0.0,0.0,0.0,0.0,0.0,0.0,0.0,0.0,0.0,0.0,0.0,0.0,0.0,0.0,0.0,0.0,0.0,0.0,0.0,0.0,0.0,0.0,0.0,0.0,0.0,0.0,0.0,0.0,0.0,1.1783,1.323,1.2551,1.4276,1.5448,1.5291,1.7642,1.9859,2.1551,2.3725,2.5015,2.5022,2.6032,2.6264,2.5571,2.5586,2.5794,2.6152,2.5489,2.5333,2.5718,2.6544,2.7833,2.9562,3.0874,3.2457,3.4173,3.48,3.5163,3.5356,3.5428,3.6124,3.7217,3.7779,3.8477,3.9259,4.069,4.1233,4.1262,0.0,0.0,0.3336,0.3401,0.3298,0.3203,0.3201,0.3845,0.5066,0.714,0.8795,1.0913,1.3897,1.4915,1.5754,1.6667,1.6751,1.5871,1.3806,1.246,1.0694,0.8359,0.8545,0.9911,1.252,1.2435,1.273,1.3461,1.2315,1.1125,0.9895,0.9498,0.8949,0.833,0.8911,0.9153,0.9064,0.8207,0.7483,0.6875,0.6426,0.6232,0.6162,0.0,0.0,0.0,0.0,0.0,0.0,0.0,0.0,0.0,0.0,0.0,0.0,0.0,0.0,0.0,0.0,0.0,0.0,0.0,0.0,0.0,0.0,0.0,0.0,0.0,0.0,0.0,0.0,0.0,0.0,0.0,0.0,0.0,1.0062,1.1983,1.3086,1.2213,1.5156,1.7026,1.6352,1.8128,1.986,2.1114,2.165,2.2057,2.2416,2.2484,2.2484,2.2458,2.2484,2.301,2.4097,2.4097,2.4652,2.5737,2.6191,2.7525,2.9582,3.0502,3.2199,3.4458,3.4752,3.5163,3.5646,3.5405,3.6421,3.8206,3.8443,3.8387,3.8557,4.1318,4.2331,4.2417,0.367,0.3592,0.348,0.3422,0.338,0.3336,0.3283,0.4102,0.5455,0.744,0.9912,1.2373,1.4674,1.635,1.7376,1.7494,1.7723,1.7099,1.5313,1.338,1.1488,0.9726,1.1751,1.3304,1.4159,1.4083,1.4278,1.479,1.3681,1.2903,1.2392,1.1844,1.1232,1.0594,1.0765,1.0298,0.936,0.9034,0.8199,0.7136,0.729,0.7106,0.6793,0.0,0.0,0.0,0.0,0.0,0.0,0.0,0.0,0.0,0.0,0.0,0.0,0.0,0.0,0.0,0.0,0.0,0.0,0.0,0.0,0.0,0.0,0.0,0.0,0.0,0.0,0.0,0.0,0.0,0.0,0.0,0.8865,1.0205,1.0846,1.2485,1.3804,1.4271,1.5607,1.6927,1.7979,1.9312,2.0557,2.1635,2.2099,2.203,2.1387,2.208,2.2131,2.1362,2.208,2.301,2.4097,2.4434,2.5152,2.6211,2.6641,2.8136,3.0521,3.096,3.2809,3.5673,3.6063,3.6529,3.7047,3.7195,3.7442,3.7835,3.8632,3.9791,4.1126,4.2316,4.2864,4.3147,0.3668,0.3622,0.3578,0.349,0.348,0.3476,0.3463,0.4441,0.6231,0.9171,1.1366,1.3875,1.704,1.8209,1.8807,1.891,1.8717,1.767,1.5453,1.3119,1.1947,1.2193,1.3755,1.4959,1.5654,1.5716,1.5963,1.6385,1.5581,1.4826,1.4174,1.358,1.281,1.1903,1.1623,1.1076,1.0307,0.9653,0.8908,0.8159,0.8114,0.7755,0.7371,0.8162,0.82,0.7886,0.8194,0.8181,0.8075,0.8494,0.0,0.0,0.0,0.0,0.0,0.0,0.0,0.0,0.0,0.0,0.0,0.0,0.0,0.0,0.0,0.0,0.0,0.0,0.0,0.0,0.0,0.0,0.0,0.0,0.9873,1.0918,1.1654,1.2853,1.4053,1.5087,1.5923,1.7036,1.8643,1.9364,2.0031,2.0751,2.102,2.0893,2.0251,2.0816,2.0851,2.0266,2.0826,2.1987,2.3659,2.3941,2.4965,2.666,2.7198,2.885,3.1425,3.1876,3.38,3.6751,3.6924,3.732,3.7767,3.7792,3.7967,3.8191,0.0,0.0,0.0,0.0,4.349,4.4486,0.3678,0.3646,0.3646,0.3646,0.3646,0.3672,0.374,0.4831,0.718,1.1455,1.2838,1.5187,1.9902,2.0037,1.9984,2.0468,1.9658,1.7906,1.502,1.2772,1.2581,1.4955,1.5,1.5589,1.6907,1.7134,1.7469,1.7946,1.744,1.6652,1.5578,1.4856,1.3864,1.2687,1.2012,1.1639,1.1421,1.0227,0.964,0.946,0.8855,0.8378,0.8043,0.8167,0.8614,0.9176,0.918,0.9356,0.9646,1.0132,0.0,0.0,0.0,0.0,0.0,0.0,0.0,0.0,0.0,0.0,0.0,0.0,0.0,0.0,0.0,0.0,0.0,0.0,0.0,0.0,0.0,0.0,0.0,0.0,1.1133,1.1941,1.2393,1.3084,1.3933,1.4963,1.6031,1.7186,1.8528,1.8767,1.899,1.9283,1.9298,1.9298,1.9298,1.9298,0.0,0.0,0.0,2.0685,2.3083,2.335,2.4706,2.7141,2.7922,2.9622,3.2059,3.2932,3.4843,3.7518,3.7492,3.7742,3.8191,3.7992,3.8416,3.9196,3.936,3.9521,3.9922,4.2043,4.4123,4.5773,0.3941,0.3918,0.3918,0.3918,0.3918,0.3947,0.4002,0.5143,0.7472,1.1624,1.3254,1.5662,1.9935,2.0318,2.0326,2.0494,2.0062,1.8779,1.6371,1.5725,1.5423,1.5408,1.6259,1.684,1.7144,1.7333,1.7694,1.8221,1.7491,1.7203,1.7363,1.5891,1.4787,1.4013,1.3403,1.2504,1.1483,1.1217,1.048,0.948,0.9352,0.934,0.9418,0.9432,0.979,1.0361,1.0767,1.0829,1.0771,1.1282,1.0755,0.9969,1.0458,0.9414,0.0,0.0,0.0,0.0,0.0,0.0,0.0,0.0,0.0,0.0,0.0,0.0,0.0,0.0,0.0,0.0,0.0,0.0,0.0,1.0205,1.1413,1.2371,1.2675,1.3003,1.3503,1.4373,1.5658,1.679,1.7677,1.8623,1.9239,1.9298,1.9298,1.9298,1.9298,1.9298,1.9298,1.9298,2.0435,2.1739,2.3083,2.4909,2.6525,2.7883,2.894,0.0,3.1675,3.3317,3.5095,3.696,3.8086,3.8893,3.9396,3.977,4.0271,4.0881,4.1337,4.2177,4.3233,4.3823,4.4341,4.4706,0.4165,0.4056,0.3996,0.3996,0.4034,0.4083,0.4138,0.5049,0.7146,1.1052,1.2465,1.4445,1.7932,1.8314,1.8127,1.7732,1.7273,1.6621,1.5773,1.5708,1.5946,1.6487,1.6844,1.7063,1.7094,1.7291,1.7693,1.8307,1.7755,1.764,1.7866,1.6489,1.5507,1.486,1.3914,1.3132,1.249,1.2135,1.1422,1.0465,1.0148,1.0117,1.0272,0.999,1.0307,1.0898,1.1342,1.1614,1.1841,1.2521,1.2455,1.2233,1.2977,1.2131,1.0661,0.0,0.0,0.0,0.0,0.0,0.0,0.0,0.0,0.0,0.0,0.0,0.0,0.0,0.0,0.9545,0.9892,0.0,1.0656,1.1241,1.1951,1.2533,1.2913,1.3136,1.3811,1.5179,1.5972,1.6923,1.8274,1.8936,1.9298,1.9298,1.9298,1.9298,1.9298,1.9298,1.9371,1.9547,2.0261,2.1629,2.3676,2.496,2.6536,2.841,2.9474,3.0733,3.2142,3.3453,3.5253,3.7331,3.8087,3.9055,4.0149,4.0675,4.1227,4.1785,4.2046,4.2549,4.3151,4.3257,4.3835,4.444,0.4309,0.4168,0.4043,0.4053,0.411,0.4168,0.4245,0.4922,0.6662,1.0191,1.1308,1.2809,1.5643,1.5829,1.5413,1.4587,1.4459,1.4579,1.4966,1.5332,1.6114,1.7439,1.7105,1.6941,1.6968,1.7251,1.7704,1.8389,1.8129,1.8057,1.8165,1.701,1.6226,1.5695,1.4555,1.3952,1.3765,1.3215,1.2492,1.1672,1.1119,1.1006,1.1115,1.0701,1.0819,1.1236,1.1594,1.2038,1.256,1.3249,1.361,1.3908,1.4676,1.416,1.3014,1.1783,1.1242,0.0,0.0,0.0,0.0,0.0,0.0,0.0,0.0,0.9087,0.9376,1.026,1.0804,1.1133,1.1155,1.1362,1.1725,1.2364,1.2522,1.2753,1.3404,1.3671,1.4525,1.6471,1.6562,1.7146,1.8878,1.9194,1.9298,1.9298,1.9298,1.9298,1.9298,1.9356,1.9518,1.9781,2.014,2.1625,2.4351,2.495,2.6493,2.898,2.9985,3.1171,3.2609,3.3519,3.5143,3.726,3.7833,3.912,4.0877,4.1277,4.1831,4.2363,4.2363,4.2363,4.2363,4.2363,4.3192,4.4206,0.4313,0.4246,0.4203,0.425,0.4275,0.4335,0.4453,0.4988,0.6468,0.9462,1.0418,1.1918,1.4746,1.447,1.3829,1.3253,1.4852,1.5815,1.5706,1.6968,1.7663,1.7503,1.7105,1.691,1.692,1.7394,1.8002,1.8742,1.8487,1.8663,1.9186,1.7779,1.7052,1.6968,1.6277,1.5556,1.4826,1.4749,1.3844,1.2478,1.2394,1.2377,1.2411,1.2461,1.207,1.1509,1.1973,1.2183,1.2274,1.2543,1.2463,1.2372,1.3043,1.3353,1.3251,1.2155,1.1924,1.1655,0.9923,0.9619,0.9789,0.9802,1.0035,1.0872,0.0,1.3085,1.2625,1.33,1.3375,1.3162,1.2577,1.2372,1.2375,1.2697,1.2923,1.3465,1.47,1.4908,1.564,1.758,1.7147,1.7068,1.8042,1.884,1.9298,1.9298,1.9298,1.9298,1.9298,1.9576,1.9752,1.9796,2.1344,2.2983,2.4637,2.6288,2.8083,3.0038,3.0881,3.1553,3.2128,3.3714,3.4592,3.5019,3.757,3.9959,4.2009,4.206,4.2411,4.2914,4.2914,4.2914,4.2914,4.2914,4.3022,4.3101,0.4232,0.4196,0.4159,0.4231,0.4258,0.4331,0.4412,0.4689,0.5621,0.7691,0.8213,0.8967,1.0479,1.0203,0.9785,0.9544,1.2631,1.453,1.4407,1.6876,1.8157,1.7686,1.7292,1.6968,1.6793,1.6737,1.7266,1.8391,1.7763,1.8005,1.9012,1.7779,1.701,1.6652,1.6054,1.5511,1.5059,1.5059,1.4584,1.3817,1.3817,1.3585,1.3267,1.352,1.3401,1.3015,1.2509,1.219,0.0,1.2167,1.1881,1.1729,1.318,1.3361,1.2982,1.2739,1.2808,1.2875,1.2444,1.1839,1.1387,1.1717,1.1897,1.2336,1.3627,1.3579,1.3357,1.3579,1.3647,1.3432,1.2518,1.2495,1.2863,1.3607,1.3895,1.4459,1.5685,1.5864,1.638,1.7817,1.7674,1.7805,1.8658,1.9089,1.9298,1.9298,1.9298,1.9386,1.9576,1.9723,1.9957,2.0311,2.1389,2.2533,2.3707,2.581,2.7546,2.8941,3.0615,3.1609,3.2016,3.3008,3.3968,3.5041,3.8278,4.0203,4.1166,4.2235,4.2788,4.3014,4.3014,4.3014,4.3014,4.3014,4.2902,4.2678,0.4198,0.4152,0.411,0.4197,0.4224,0.4258,0.4364,0.4405,0.49,0.6147,0.6297,0.6475,0.6863,0.6705,0.6595,0.6655,1.0185,1.2697,1.3364,1.6149,1.7778,1.7808,1.7276,1.6884,1.6654,1.6465,1.6885,1.794,1.7348,1.7601,1.8639,1.7738,1.7143,1.6765,1.6169,1.5836,1.5756,1.5585,1.5239,1.4828,1.4828,1.4479,1.3966,1.4227,1.4229,1.3966,1.2837,1.2271,1.2006,1.1585,1.1093,1.0899,1.2321,1.2413,1.2127,1.2569,1.2835,1.2996,1.3184,1.2785,1.2444,1.2898,1.3327,1.3722,1.3975,1.4033,1.3982,1.3854,1.3851,1.3623,1.2755,1.3014,1.3597,1.4446,1.4913,1.5551,1.6691,1.6834,1.7224,1.8224,1.8356,1.8605,1.9246,1.9298,1.9342,1.943,1.943,1.9576,1.9898,2.0001,2.0237,2.0678,2.1201,2.2009,2.3099,2.5328,2.7013,2.8235,3.0419,3.1684,3.2089,3.2649,3.3867,3.5662,3.8166,3.9499,4.0007,4.1638,4.2263,4.2234,4.2597,4.2762,4.2762,4.2762,4.265,4.2453,0.4203,0.4152,0.411,0.4197,0.4143,0.4137,0.427,0.4292,0.4539,0.525,0.5341,0.529,0.5181,0.5157,0.5343,0.5802,0.823,1.0772,1.3241,1.5023,1.6531,1.7743,1.6974,1.6522,1.6511,1.7074,1.7406,1.7521,1.7629,1.789,1.8306,1.7879,1.781,1.8016,1.7407,1.7261,1.7394,1.6806,1.603,1.5172,1.5172,1.4933,1.4575,1.4575,1.4316,1.3777,1.2834,1.249,1.2238,1.0616,0.9827,0.9529,0.9402,0.9832,1.0519,1.1244,1.1555,1.1483,1.0732,1.1335,1.2334,1.2863,1.4175,1.5329,1.5344,1.5344,1.5258,1.4925,1.4613,1.4282,1.3909,1.4271,1.473,1.5026,1.58,1.6717,1.7804,1.7949,1.8277,1.9168,1.9246,1.9272,1.9298,1.9298,1.943,1.9752,1.9767,1.9913,2.0181,2.0488,2.0678,2.0692,2.1028,2.19,2.3363,2.5321,2.7102,2.8699,3.0666,3.1855,3.2334,3.3045,3.4529,3.6558,3.6669,3.7495,3.8846,4.0123,4.0471,4.0326,4.1606,4.2139,4.2139,4.2139,4.2284,4.24,0.4054,0.4005,0.3968,0.3952,0.3929,0.3925,0.3946,0.4037,0.4191,0.4405,0.4384,0.0,0.0,0.0,0.0,0.0,0.8456,1.0629,1.1797,1.4285,1.5882,1.6266,1.673,1.682,1.6511,1.6398,1.6669,1.7364,1.7093,1.7381,1.8166,1.803,1.7581,1.6905,1.6694,1.6484,1.6303,1.6096,1.5967,1.5917,1.5917,1.554,1.495,1.5217,1.4403,1.2957,0.0,1.0979,1.0257,0.9462,0.8768,0.8409,0.9424,0.9354,0.9058,0.9892,1.0607,1.1308,1.2111,1.2699,1.3303,1.433,1.5008,1.5402,1.5402,1.5402,1.5374,1.5245,1.4583,1.3952,1.3793,1.4163,1.4724,1.5401,1.6604,1.8048,1.9705,1.9927,2.0313,2.1311,2.0775,2.0354,2.0354,1.9934,1.9679,1.9781,1.9959,2.0196,2.0517,2.0634,2.0795,2.1014,2.1515,2.2363,2.352,2.5533,2.7322,2.886,3.104,3.2277,3.2726,3.3264,3.3976,3.4795,3.5915,3.6682,3.7205,3.8721,3.9252,3.9281,4.0611,4.1095,4.1153,4.1606,4.1834,4.1863,0.4007,0.3958,0.388,0.3833,0.381,0.0,0.0,0.0,0.0,0.0,0.0,0.0,0.0,0.0,0.0,0.0,0.0,0.9704,1.0633,1.269,1.4017,1.4445,1.4808,1.491,1.4794,1.4512,1.4753,1.5496,1.5751,1.6293,1.7136,1.7206,1.6876,1.6266,1.6065,1.6049,1.6188,1.6,1.6251,1.6717,1.5984,1.5216,1.4532,1.413,1.2919,0.0,1.0367,0.9403,0.8494,0.8058,0.7657,0.7533,0.8631,0.8832,0.8767,0.9274,1.0216,1.1392,1.2809,1.3346,1.3799,1.5081,1.5402,1.5402,1.5402,1.549,1.5661,1.5885,1.4959,1.4143,1.4356,1.4714,1.506,1.5269,1.6884,1.8644,2.0162,2.0482,2.1019,2.2324,2.1878,2.136,2.1103,2.0744,2.0345,1.9984,2.0196,2.0517,2.0853,2.0868,2.097,2.1203,2.1987,2.2795,2.3598,2.6024,2.8097,2.9776,3.1527,3.2513,3.2841,3.3526,3.3933,3.4082,3.516,3.5633,3.5756,3.7257,3.782,3.7828,3.9098,3.9803,4.0147,4.0582,4.1038,4.1463,0.3996,0.3947,0.3934,0.0,0.0,0.0,0.0,0.0,0.0,0.0,0.0,0.0,0.0,0.0,0.0,0.0,0.0,0.0,0.9741,1.0334,1.1174,1.2382,1.1523,1.1232,1.1658,1.1771,1.1972,1.2287,1.3696,1.4694,1.5267,1.5457,1.572,1.5954,1.5457,1.5813,1.6797,1.6297,1.6584,1.7215,1.5191,1.3988,1.3248,1.1562,1.0128,0.8995,0.8636,0.793,0.7075,0.6537,0.6662,0.7076,0.7248,0.8341,0.9547,0.9452,1.0399,1.1715,1.2765,1.3316,1.3887,1.5096,1.5417,1.5432,1.5432,1.568,1.6096,1.669,1.5635,1.4767,1.5318,1.5795,1.5754,1.4772,1.6748,1.8699,1.9455,1.9886,2.0745,2.2407,2.2568,2.224,2.148,2.1618,2.131,2.0307,2.0532,2.0853,2.1189,2.1203,2.1203,2.1203,2.2312,2.3177,2.3716,2.6864,2.9393,3.1315,3.2104,3.2544,3.2713,3.3761,3.4298,3.436,3.436,3.436,3.4454,3.5736,3.6084,3.593,3.721,3.8298,3.9128,3.9187,4.0054,4.1201,0.0,0.0,0.0,0.0,0.0,0.0,0.0,0.0,0.0,0.0,0.0,0.0,0.0,0.0,0.0,0.0,0.0,0.0,0.7939,0.8932,0.9697,1.0133,1.104,1.149,1.1392,1.1759,1.2026,1.2137,1.2478,1.2921,1.3464,1.3526,1.3422,1.3206,1.2972,1.3002,1.3228,1.3074,1.3112,1.3194,1.2732,1.198,1.1119,1.0957,0.9748,0.8154,0.8416,0.7747,0.678,0.6912,0.7902,0.9168,0.9751,1.0211,1.0607,1.0913,1.1768,1.2754,1.3546,1.4326,1.4993,1.5329,1.5592,1.5768,1.5768,1.6038,1.6191,1.5862,1.5022,1.4085,1.3089,1.4501,1.5525,1.4655,1.7742,2.0575,2.1578,2.2487,2.3302,2.3978,2.3372,2.2574,2.1777,2.1261,2.0866,2.0603,2.0868,2.1115,2.1203,2.1203,2.1203,2.1203,2.1489,2.2848,2.5345,2.8597,3.0587,3.1315,3.1869,3.2306,3.2653,3.3273,3.3587,3.3639,3.3639,3.3639,3.3702,3.4298,3.4496,3.4528,3.5869,3.7119,3.8238,3.8951,4.0054,4.1201,0.0,0.0,0.0,0.0,0.0,0.0,0.0,0.0,0.0,0.0,0.0,0.0,0.0,0.0,0.0,0.0,0.0,0.0,0.0,0.7585,0.8008,0.8019,0.8516,0.8809,0.8839,0.8707,0.9062,0.9999,0.975,1.0353,1.1735,1.1367,1.1271,1.1419,1.1423,1.1697,1.2113,1.2067,1.2223,0.0,0.0,1.0691,1.0019,0.9477,0.8555,0.7571,0.7831,0.8289,0.8785,0.9013,1.0209,1.156,1.1319,1.1495,1.1833,1.2089,1.2779,1.3671,1.4687,1.5178,1.5619,1.6573,1.6354,1.5845,1.5721,1.572,1.5438,1.435,1.3597,1.2853,1.1974,1.3672,1.4868,1.3987,1.7175,2.0069,2.1007,2.1898,2.285,2.3791,2.3488,2.2907,2.2089,2.164,2.1268,2.0953,2.1101,2.1203,2.1203,2.1203,2.1203,2.1203,2.2409,2.4592,2.7794,2.9891,3.0966,3.1141,3.192,3.2355,3.2441,3.3226,3.3516,3.3386,3.3386,3.3481,3.3639,3.3827,3.389,3.3985,3.4715,3.5715,3.6794,3.7339,3.8969,4.0932,0.0,0.0,0.0,0.0,0.0,0.0,0.0,0.0,0.0,0.5811,0.5591,0.5394,0.5394,0.5898,0.0,0.0,0.0,0.0,0.0,0.0,0.6386,0.6238,0.5528,0.5299,0.5595,0.4828,0.5272,0.7013,0.6565,0.7507,0.9709,0.8953,0.9018,0.9781,0.9992,1.0666,1.1642,1.1552,1.2029,1.2626,1.0596,0.9638,0.928,0.0,0.724,0.7203,0.7255,0.905,1.143,1.152,1.2706,1.391,1.2605,1.2645,1.3202,1.3212,1.3657,1.4415,1.5866,1.5945,1.6065,1.8087,1.7355,1.6043,1.564,1.5199,1.4404,1.267,1.1917,1.1493,1.1196,1.2878,1.4014,1.3202,1.6064,1.8692,1.9542,2.0287,2.1282,2.2729,2.3152,2.3023,2.2222,2.2142,2.1892,2.1246,2.1203,2.1203,2.1203,2.1203,2.1318,2.152,2.415,2.6964,2.9919,3.0606,3.0898,3.0898,3.2087,3.2471,3.2218,3.3308,3.367,3.3386,3.3386,3.3544,3.3827,3.3827,3.3827,3.3827,3.3827,3.4465,3.5407,3.55,3.7658,4.0572,0.0,0.0,0.0,0.0,0.0,0.0,0.0,0.0,0.0,0.0,0.7056,0.5793,0.0,0.0,0.0,0.0,0.0,0.0,0.0,0.0,0.0,0.5333,0.5402,0.5333,0.5125,0.5069,0.5185,0.5486,0.5175,0.5432,0.6188,0.6079,0.6187,0.6441,0.6708,0.7173,0.7776,0.7926,0.8238,0.8612,0.8194,0.7838,0.7565,0.7604,0.7447,0.0,0.752,0.9083,1.1101,1.1642,1.342,1.531,1.4897,1.4748,1.4746,1.485,1.4817,1.5013,1.6269,1.6549,1.6819,1.8253,1.7983,1.719,1.6409,1.5552,1.4214,1.1823,1.139,1.0886,0.9126,1.1192,1.3219,1.3391,1.6503,1.9391,2.0845,2.1921,2.2528,2.2424,2.2459,2.221,2.1456,2.14,2.1344,2.1203,2.1203,2.1203,2.1203,2.1203,2.1809,2.3145,2.5223,2.7064,2.8692,3.018,3.0898,3.0898,3.1848,3.2259,3.2237,3.309,3.3449,3.3386,3.3386,3.3418,3.3481,3.3481,3.3481,3.3481,3.3481,3.4278,3.5479,3.6154,3.8126,4.0588,0.0,0.0,0.0,0.0,0.0,0.0,0.0,0.8173,0.9003,1.0965,0.9896,0.8675,0.791,0.7094,0.6483,0.0,0.0,0.0,0.0,0.0,0.0,0.4903,0.4883,0.4858,0.4799,0.472,0.5038,0.5766,0.0,0.4734,0.5804,0.4956,0.4942,0.5605,0.573,0.6169,0.6801,0.6901,0.7065,0.7236,0.7265,0.7314,0.7392,0.7622,0.7589,0.0,0.7632,0.9223,1.1182,1.1022,1.3068,1.564,1.5372,1.5547,1.573,1.5161,1.549,1.623,1.7009,1.7093,1.7485,1.9769,1.8784,1.7048,1.61,1.4872,1.3035,0.9965,0.9535,0.936,0.8165,1.0133,1.2068,1.2446,1.5654,1.8454,1.9399,2.0856,2.1732,2.1496,2.161,2.1579,2.1217,2.1203,2.1203,2.1203,2.1788,2.2157,2.2157,2.2297,2.3527,2.6001,2.6368,2.7517,2.9687,3.05,3.0898,3.0898,3.1523,3.1953,3.2218,3.2812,3.3223,3.3386,3.3386,3.3386,3.3386,3.3386,3.3386,3.3386,3.3386,3.4061,3.5006,3.5208,3.7525,4.0594,0.0,0.0,0.0,0.0,0.0,0.0,0.0,0.9453,1.0405,1.2708,1.2285,1.1332,1.0141,0.8194,0.6752,0.0,0.0,0.0,0.0,0.0,0.0,0.0,0.4406,0.4396,0.4616,0.0,0.0,0.6199,0.4708,0.0,0.0,0.0,0.0,0.0,0.5438,0.5916,0.6651,0.6549,0.6687,0.0,0.0,0.7132,0.7514,0.0,0.0,0.0,0.0,0.893,1.0525,1.0219,1.2095,1.4559,1.4649,1.5393,1.6076,1.5257,1.5941,1.71,1.7701,1.7664,1.8099,2.0752,1.9274,1.6854,1.5618,1.4075,1.1957,0.862,0.8014,0.8034,0.7847,0.9392,1.0916,1.1591,1.4326,1.6732,1.7755,1.9216,2.0327,2.0751,2.1029,2.1203,2.1203,2.1203,2.1203,2.1203,2.2629,2.3509,2.3509,2.3901,2.5447,2.8326,2.7499,2.8256,3.0879,3.0898,3.0898,3.0898,3.1328,3.1758,3.2218,3.2628,3.3027,3.3386,3.3386,3.3386,3.3386,3.3386,3.3386,3.3386,3.3386,3.385,3.4532,3.4707,3.7212,4.0549,0.0,0.0,0.0,0.0,0.0,0.0,0.0,0.9614,1.1037,1.3642,1.2704,1.1671,1.1352,0.9469,0.7626,0.0,0.0,0.0,0.0,0.0,0.0,0.0,0.0,0.0,0.0,0.0,0.0,0.5592,0.5106,0.0,0.0,0.0,0.0,0.0,0.0,0.5478,0.6132,0.5776,0.0,0.0,0.0,0.0,0.0,0.0,0.0,0.0,0.0,0.7654,0.7855,0.9534,1.04,1.1044,1.2474,1.4081,1.5497,1.593,1.6297,1.6831,1.8077,1.84,1.8608,1.9561,1.8946,1.7562,1.5573,1.3789,1.1816,0.9233,0.8187,0.7833,0.8107,0.8821,0.9949,1.1675,1.2772,1.4545,1.7808,1.8408,1.9184,2.0926,2.1189,2.1203,2.1203,2.1203,2.1203,2.1203,2.3675,2.519,2.519,2.5844,2.69,2.8344,2.8575,2.9375,3.0898,3.0898,3.0898,3.0898,3.1328,3.1758,3.2218,3.2628,3.3027,3.3386,3.3386,3.3386,3.3386,3.3386,3.3386,3.3386,3.3386,3.3723,3.4379,3.6291,3.8316,4.0342,0.0,0.0,0.0,0.0,0.0,0.0,0.9569,0.9806,1.105,1.4761,1.381,1.2736,1.2664,1.0578,0.8222,0.5843,0.0,0.0,0.0,0.0,0.0,0.0,0.0,0.0,0.0,0.0,0.5787,0.6287,0.5781,0.0,0.0,0.0,0.0,0.0,0.0,0.5195,0.5744,0.5694,0.0,0.0,0.0,0.0,0.0,0.0,0.0,0.0,0.0,0.0,0.7673,0.8404,0.9394,1.0338,1.0467,1.1846,1.3652,1.5064,1.6014,1.6831,1.7798,1.8204,1.8534,1.9387,1.8295,1.6612,1.5134,1.3441,1.1584,0.9377,0.8696,0.8489,0.8552,0.894,0.9607,1.0682,1.2056,1.3638,1.5473,1.7208,1.8657,1.9638,2.0442,2.097,2.1189,2.1393,2.2208,2.3895,2.6048,2.757,2.8256,2.7832,2.8297,2.9861,2.926,2.953,3.0898,3.0898,3.0898,3.0898,3.1055,3.1504,3.2198,3.2374,3.2793,3.3386,3.3386,3.3386,3.3386,3.3386,3.3386,3.3406,3.3711,3.4243,3.5032,3.6764,3.8691,4.0647,0.0,0.0,0.0,0.0,0.0,0.7248,0.9741,0.9878,1.0847,1.4202,1.36,1.2761,1.2542,1.0365,0.812,0.6074,0.5462,0.0,0.0,0.0,0.0,0.0,0.0,0.0,0.0,0.0,0.6503,0.6876,0.6442,0.6266,0.0,0.0,0.5185,0.5305,0.0,0.0,0.0,0.0,0.0,0.0,0.0,0.0,0.0,0.0,0.0,0.0,0.0,0.0,0.0,0.0,0.0,0.9509,0.9189,1.0154,1.1798,1.3963,1.5425,1.6501,1.7286,1.7846,1.8326,1.8803,1.7551,1.5876,1.4628,1.3141,1.145,0.9565,0.9078,0.8953,0.8818,0.9066,0.9464,1.0003,1.1326,1.2687,1.3847,1.5766,1.7352,1.8251,1.9271,2.0324,2.1374,2.2396,2.3927,2.6272,2.772,2.8971,3.0138,2.9478,2.9629,3.085,2.9991,2.9932,3.0898,3.0898,3.0898,3.0898,3.1016,3.1465,3.2198,3.2335,3.2734,3.3386,3.3386,3.3386,3.3386,3.3386,3.3464,3.3684,3.4425,3.5204,3.6188,3.8015,3.9777,4.1354,0.0,0.0,0.0,0.0,0.0,0.0,0.8775,0.9751,1.0579,1.136,1.1491,1.124,1.0506,0.8445,0.7116,0.709,0.5862,0.0,0.0,0.0,0.0,0.0,0.0,0.0,0.0,0.0,0.6765,0.7108,0.7016,0.6877,0.6693,0.6406,0.6038,0.5593,0.0,0.0,0.0,0.0,0.0,0.0,0.0,0.0,0.704,0.0,0.0,0.0,0.0,0.0,0.0,0.0,0.0,0.0,0.0,0.9391,1.0241,1.2844,1.4529,1.5705,1.6577,1.7497,1.8051,1.747,1.6756,1.5777,1.4164,1.2869,1.1542,0.9936,0.9278,0.8953,0.8818,0.9073,0.9473,1.0003,1.0403,1.1415,1.3686,1.4023,1.4855,1.7048,1.7734,1.9119,2.1921,2.4473,2.6451,2.77,2.8181,2.8923,3.0138,3.0625,3.0879,3.0898,3.0898,3.0898,3.0898,3.0898,3.0898,3.0898,3.1309,3.1738,3.2218,3.2598,3.3027,3.3386,3.3386,3.3386,3.3386,3.3386,3.3672,3.4223,3.5618,3.6714,3.7817,4.0558,4.1896,4.2483,0.0,0.0,0.0,0.0,0.0,0.0,0.0,0.7431,0.7833,0.9725,0.9231,0.901,0.9826,0.8227,0.715,0.729,0.5831,0.0,0.0,0.0,0.0,0.0,0.0,0.0,0.0,0.7279,0.772,0.8188,0.8043,0.8017,0.8121,0.7055,0.6227,0.56,0.5487,0.5532,0.0,0.0,0.0,0.0,0.0,0.6649,0.6547,0.0,0.0,0.0,0.0,0.0,0.0,0.0,0.0,0.0,0.0,0.0,0.0,1.0949,1.244,1.3762,1.4262,1.4728,1.4942,1.4494,1.4081,1.3606,1.2805,1.2161,1.1407,1.0316,0.9981,0.9855,0.9709,0.9544,0.9738,1.0691,1.0705,1.1092,1.2436,1.5088,1.7122,1.7829,2.0966,2.3597,2.5002,2.6675,2.7893,2.8517,2.9502,3.0287,3.0664,3.082,3.0898,3.0898,3.0898,3.0898,3.0898,3.0898,3.0898,3.0898,3.1035,3.1465,3.2198,3.2335,3.2754,3.3386,3.3386,3.3386,3.3501,3.4788,3.4851,3.4379,3.7308,3.806,3.7879,4.0931,4.2164,4.2483,0.0,0.0,0.0,0.0,0.0,0.0,0.0,0.6321,0.651,0.79,0.7426,0.7448,0.8798,0.7451,0.6703,0.7348,0.6078,0.0,0.0,0.0,0.0,0.0,0.0,0.0,0.7197,0.7421,0.7975,0.8876,0.9125,0.9111,0.886,0.8094,0.7167,0.6149,0.5898,0.5689,0.0,0.0,0.0,0.0,0.6308,0.6498,0.6306,0.0,0.0,0.0,0.0,0.0,0.0,0.0,0.0,0.0,0.0,0.0,0.0,0.0,1.0917,1.2015,1.2705,1.322,1.3545,1.3502,1.3164,1.2811,1.2609,1.2047,1.1375,1.0665,1.0399,1.0214,0.9958,0.9956,1.0211,1.0873,1.1148,1.1657,1.2728,1.5613,1.8153,1.954,2.331,2.6072,2.6865,2.8401,2.9444,2.963,3.0421,3.0898,3.0898,3.0898,3.0898,3.0898,3.0898,3.0898,3.0898,3.0898,3.0898,3.0898,3.1055,3.1484,3.2198,3.2374,3.2773,3.3386,3.3386,3.3516,0.0,3.4914,3.5396,3.561,3.8413,3.943,3.9605,4.2123,4.3051,4.3169,0.0,0.0,0.0,0.0,0.0,0.0,0.0,0.6249,0.6342,0.6102,0.6134,0.6518,0.7451,0.6294,0.5941,0.7207,0.0,0.0,0.0,0.0,0.0,0.0,0.0,0.0,0.741,0.7152,0.7749,0.927,1.0187,1.0171,0.9275,0.9441,0.8687,0.7142,0.6806,0.6229,0.5489,0.5489,0.5489,0.5578,0.6243,0.6401,0.0,0.0,0.0,0.0,0.0,0.0,0.0,0.0,0.0,0.0,0.0,0.0,0.0,0.0,0.0,0.0,0.0,1.265,1.3396,1.3849,1.347,1.2997,1.3138,1.2297,0.0,1.0981,1.0582,1.0186,0.981,1.0306,1.0775,1.0814,1.173,1.2923,1.4306,1.6115,1.8595,2.2123,2.4996,2.6934,2.7663,2.9676,3.0898,3.0898,3.0898,3.0898,3.0898,3.0898,3.0898,3.0898,3.0898,3.0898,3.0898,3.0898,3.0898,3.0898,3.1328,3.1758,3.2218,3.2628,3.3027,3.3386,3.3425,3.3691,3.4114,3.4379,3.565,3.7589,3.9183,4.0832,4.2451,4.3795,4.4285,4.4285,0.0,0.0,0.0,0.0,0.0,0.0,0.0,0.0,0.0,0.0,0.5812,0.5916,0.6155,0.5992,0.6037,0.0,0.0,0.0,0.0,0.0,0.0,0.0,0.0,0.0,0.7413,0.7867,0.8678,0.9799,1.0704,1.1388,1.1882,1.112,0.9679,0.7691,0.7369,0.649,0.5278,0.5278,0.5477,0.585,0.636,0.6708,0.0,0.0,0.0,0.0,0.7522,0.768,0.0,0.0,0.0,0.0,0.0,0.0,0.0,0.0,0.9743,1.029,1.0299,0.0,1.1084,1.0906,1.1288,1.1739,0.0,1.1634,1.1396,1.0981,1.0582,1.0478,1.1027,1.0741,1.0988,1.269,1.2905,1.373,1.6161,2.0183,2.3645,2.5643,2.7882,2.9004,2.8223,2.9805,3.0898,3.0898,3.0898,3.0898,3.0898,3.0898,3.0898,3.0898,3.0898,3.0898,3.0898,3.0898,3.0898,3.0898,3.1328,3.1758,3.2218,3.2628,3.3027,3.3406,3.3769,3.4016,3.4314,3.7104,3.7909,3.7858,4.1673,4.2809,4.2451,4.3795,4.4285,4.4285,0.0,0.0,0.0,0.0,0.0,0.0,0.0,0.0,0.0,0.0,0.0,0.597,0.597,0.6145,0.0,0.0,0.0,0.0,0.0,0.0,0.0,0.0,0.0,0.7413,0.7413,0.8009,0.9119,1.0729,1.1169,1.2015,1.3192,1.2244,1.0619,0.8444,0.7308,0.6262,0.5345,0.5533,0.576,0.605,0.6738,0.0,0.0,0.0,0.0,0.0,0.7536,0.7696,0.0,0.8766,0.905,0.9087,0.0,0.0,0.0,0.0,0.9223,0.9686,0.9837,1.0712,1.1612,1.1624,1.2066,1.2553,1.2801,1.2165,1.145,1.1224,1.086,1.0802,1.1478,1.2161,1.2852,1.3501,1.5238,1.7287,1.958,2.2176,2.4694,2.7026,2.8367,2.9188,2.9453,3.0332,3.0898,3.0898,3.0898,3.0898,3.0898,3.0898,3.0898,3.0898,3.0898,3.0898,3.0898,3.0898,3.0898,3.0898,3.1328,3.1758,3.2218,3.2628,3.3027,3.3406,3.3887,3.4547,3.5505,3.7643,3.8992,3.9939,4.2431,4.3326,4.3326,4.4037,4.4285,4.4285,0.0,0.0,0.0,0.0,0.0,0.0,0.0,0.0,0.0,0.0,0.0,0.0,0.0,0.0,0.0,0.0,0.0,0.0,0.0,0.0,0.0,0.0,0.7413,0.7526,0.7836,0.8098,0.937,1.1685,1.1826,1.2431,1.3466,1.3141,1.1648,0.9161,0.7165,0.5977,0.5481,0.5817,0.6033,0.6249,0.703,0.0,0.0,0.0,0.0,0.0,0.0,0.0,0.0,0.9059,0.9528,0.9666,0.9472,0.0,0.0,0.0,0.0,0.0,1.0196,1.2062,1.3735,1.3659,1.3878,1.4187,1.4426,1.3043,1.1686,1.1611,1.1285,1.13,1.221,1.388,1.4947,1.4473,1.8103,2.1602,2.3357,2.3749,2.4796,2.7402,2.7995,2.8797,3.0351,3.0742,3.0898,3.0898,3.0898,3.0898,3.0898,3.0898,3.0898,3.0898,3.0898,3.0898,3.0898,3.0898,3.0898,3.0898,3.1387,3.1816,3.2218,3.2676,3.3086,3.3425,3.3945,3.5176,3.6859,3.7529,3.9595,4.2325,4.2515,4.3295,4.4285,4.4285,4.4285,4.4285,0.0,0.0,0.0,0.0,0.0,0.0,0.0,0.0,0.0,0.0,0.0,0.0,0.0,0.0,0.0,0.0,0.0,0.0,0.0,0.0,0.0,0.7413,0.7413,0.8146,0.9748,0.9115,0.9842,1.2016,1.3158,1.3291,1.2551,1.4351,1.3147,0.9389,0.781,0.6418,0.5249,0.5303,0.5797,0.653,0.6611,0.0,0.0,0.0,0.0,0.0,0.0,0.0,0.0,0.8154,0.8803,0.9509,0.8428,0.0,0.0,0.0,0.0,0.0,1.161,1.4527,1.6538,1.36,1.3981,1.479,1.3673,1.3041,1.2567,1.2173,1.1771,1.2406,1.5376,1.4752,1.4805,1.7927,2.0879,2.3518,2.5586,2.7693,2.8715,2.7793,2.9305,2.9941,2.8809,3.0019,3.0898,3.0898,3.0898,3.0898,3.0898,3.0898,3.0898,3.0898,3.0898,3.0898,3.0898,3.0898,3.0898,3.0898,3.1729,3.214,3.2237,3.2969,3.3328,3.3445,3.4258,3.5423,3.6944,3.8937,4.0773,4.242,4.3545,4.413,4.4285,4.4285,4.4285,4.4285,0.0,0.0,0.0,0.0,0.0,0.0,0.0,0.0,0.0,0.0,0.0,0.0,0.0,0.0,0.0,0.0,0.0,0.0,0.0,0.0,0.7893,0.8976,0.8638,0.8827,0.9702,1.0092,1.1309,1.3392,1.4483,1.4685,1.4005,1.3073,1.1202,0.8575,0.7162,0.6013,0.5098,0.5369,0.5909,0.6601,0.0,0.0,0.0,0.0,0.0,0.0,0.0,0.0,0.0,0.0,0.9069,0.9308,0.8949,0.0,0.0,0.0,0.0,0.0,1.1622,1.3804,1.5553,1.4732,1.6441,1.8216,1.7838,1.6653,1.5392,1.4453,1.4153,1.4578,1.6356,1.684,1.8477,2.3088,2.3655,2.4359,2.6763,2.748,2.7832,2.7988,2.8887,2.9531,2.9687,3.043,3.0898,3.0898,3.0898,3.0898,3.0898,3.0898,3.0898,3.0898,3.0898,3.0898,3.0898,3.0898,3.0898,3.0898,3.1788,3.2198,3.2237,3.3047,3.3386,3.3489,3.5136,3.6625,3.8101,4.0408,4.2143,4.3451,4.4068,4.4285,4.4285,4.4285,4.4285,4.4285,0.0,0.0,0.0,0.0,0.0,0.0,0.0,0.0,0.0,0.0,0.0,0.0,0.0,0.0,0.0,0.0,0.0,0.0,0.0,0.7612,0.8236,0.9877,0.9727,0.9984,1.0835,1.1669,1.3083,1.5031,1.5957,1.62,1.5706,1.2074,0.9631,0.8218,0.6784,0.5723,0.5028,0.5388,0.5915,0.6549,0.0,0.0,0.0,0.0,0.0,0.0,0.0,0.0,0.0,0.0,0.0,0.0,0.0,0.0,0.0,0.9361,0.9483,1.014,1.1697,1.3173,1.4649,1.6175,1.8142,1.9954,2.0776,1.9267,1.7502,1.69,1.6816,1.7008,1.7522,1.9297,2.1973,2.5981,2.5792,2.5844,2.8009,2.7759,2.7732,2.8777,2.8906,2.9434,3.0762,3.0898,3.0898,3.0898,3.0898,3.0898,3.0898,3.0898,3.0898,3.0898,3.117,3.1199,3.0898,3.146,3.15,3.1055,3.1846,3.2257,3.2374,3.3086,3.3386,3.354,3.582,3.7594,3.9098,4.1384,4.3106,4.4285,4.4285,4.4285,4.4285,4.4285,4.4285,4.434,0.0,0.0,0.0,0.0,0.0,0.0,0.0,0.0,0.0,0.0,0.0,0.0,0.0,0.0,0.0,0.0,0.0,0.0,0.0,0.7775,0.8024,0.8611,0.9788,1.2002,1.534,1.4439,1.4822,1.6627,1.7683,1.7668,1.6549,1.3098,1.0724,0.9303,0.7658,0.62,0.5009,0.5028,0.5535,0.6328,0.6477,0.0,0.0,0.0,0.0,0.0,0.0,0.0,0.0,0.0,0.0,0.0,0.0,0.0,0.9225,0.9414,0.9765,1.0542,1.277,1.4515,1.6085,1.7499,1.706,1.6746,1.8659,1.7849,1.7155,1.8736,1.9079,1.9335,2.0156,2.1779,2.309,2.346,2.6607,2.9233,2.9934,3.1269,3.1844,3.0828,3.0703,3.0762,3.0879,3.0898,3.0898,3.0898,3.0898,3.0898,3.0898,3.0898,3.0898,3.0898,3.1989,3.2047,3.0928,3.3063,3.3244,3.1455,3.1983,3.2413,3.2773,3.3223,3.3386,3.354,3.582,3.7594,3.9098,4.1384,4.3106,4.4285,4.4285,4.4285,4.4285,4.4285,4.4285,4.4357,0.0,0.0,0.0,0.0,0.0,0.0,0.0,0.0,0.0,0.0,0.0,0.0,0.0,0.0,0.0,0.0,0.0,0.0,0.0,0.7797,0.8302,0.9686,1.0151,1.1582,1.4162,1.5124,1.6315,1.7799,1.7229,1.6409,1.5244,1.162,0.941,0.843,0.6575,0.5554,0.5169,0.4923,0.5363,0.6236,0.6291,0.6822,0.0,0.0,0.0,0.0,0.0,0.0,0.0,0.0,0.8261,0.8507,0.8507,0.9285,1.0182,1.0028,1.0288,1.0935,1.2452,1.3824,1.5047,1.6162,1.6174,1.6826,2.0434,2.0677,2.0213,2.043,2.1348,2.1855,2.1113,2.3733,2.5727,2.4887,2.7631,3.0336,3.1584,3.2297,3.2514,3.2076,3.2018,3.173,3.0966,3.0898,3.0898,3.0898,3.0898,3.0898,3.0898,3.0898,3.1228,3.1989,3.173,3.2055,3.3063,3.3261,3.3464,3.3754,3.4244,3.4318,3.4014,3.524,3.5386,3.4818,3.7941,3.9601,4.0278,4.2599,4.3826,4.4285,4.4285,4.4285,4.4285,4.4285,4.4285,4.4357,0.0,0.0,0.0,0.0,0.0,0.0,0.0,0.0,0.0,0.0,0.0,0.0,0.0,0.0,0.0,0.0,0.0,0.0,0.8099,0.7899,0.8415,0.9869,1.0082,1.1014,1.2869,1.501,1.66,1.7577,1.652,1.54,1.4165,1.0983,0.92,0.8544,0.6603,0.5882,0.6082,0.5373,0.5649,0.6545,0.6434,0.6916,0.0,0.0,0.0,0.0,0.0,0.0,0.0,0.0,0.8079,0.8326,0.8737,0.9637,1.0503,1.0446,1.128,1.2382,1.3113,1.3979,1.4931,1.6084,1.6143,1.699,2.1174,2.1758,2.1665,2.2545,2.339,2.3672,2.2615,2.5078,2.7037,2.623,2.8838,3.1397,3.253,3.3027,3.3233,3.3233,3.2913,3.2391,3.1547,3.1112,3.0898,3.0898,3.0898,3.0898,3.0898,3.1257,3.1672,3.2133,3.2428,3.2978,3.3832,3.4196,3.4827,3.5706,3.6645,3.645,3.5297,3.6699,3.6824,3.6187,3.9391,4.0793,4.0984,4.3312,4.4285,4.4285,4.4285,4.4285,4.4285,4.4285,4.4412,4.4652,0.0,0.0,0.0,0.0,0.0,0.0,0.0,0.0,0.0,0.0,0.0,0.0,0.0,0.0,0.0,0.0,0.0,0.0,0.8109,0.8106,0.8264,0.8659,0.9407,1.0573,1.2207,1.4212,1.5419,1.5799,1.5774,1.5053,1.3635,1.1686,1.0581,1.0108,0.817,0.7538,0.7805,0.6469,0.6446,0.7276,0.6942,0.7438,0.8382,0.0,0.0,0.0,0.0,0.0,0.0,0.0,0.8032,0.7945,0.9282,0.9704,0.986,1.0495,1.2793,1.5074,1.5074,1.5472,1.6285,1.789,1.7108,1.6821,2.0139,2.0185,2.0749,2.5121,2.516,2.4551,2.5028,2.5849,2.6568,2.6979,3.0228,3.2685,3.2714,3.3713,3.4391,3.4391,3.3402,3.2714,3.2685,3.1614,3.0898,3.0928,3.0928,3.0928,3.0928,3.2047,3.2162,3.0995,3.4336,3.508,3.2771,3.6208,3.7675,3.7045,3.8769,3.8534,3.655,3.709,3.7339,3.7443,3.9787,4.0823,4.1007,4.3336,4.4285,4.4285,4.4285,4.4285,4.4285,4.4285,4.4652,4.5181,0.0,0.0,0.0,0.0,0.0,0.0,0.0,0.0,0.0,0.0,0.0,0.0,0.0,0.0,0.0,0.0,0.0,0.0,0.8109,0.7973,0.7945,0.8075,0.858,0.8839,0.8781,1.0328,1.2551,1.5456,1.4598,1.3373,1.1775,1.0671,0.9875,0.9337,0.881,0.8238,0.7652,0.6965,0.6874,0.717,0.7258,0.7543,0.7941,0.0,0.0,0.0,0.0,0.0,0.0,0.0,0.0,0.0,0.8929,1.0083,1.1059,1.0452,1.1835,1.3465,1.3097,1.4526,1.6189,1.654,1.7878,1.9473,2.0758,2.1187,2.2372,2.6084,2.5805,2.5283,2.6533,2.8246,2.9461,2.9533,3.1314,3.2998,3.3797,3.4196,3.4084,3.3289,3.3628,3.3572,3.2771,3.1614,3.1257,3.2104,3.1373,3.1286,3.2133,3.1701,3.2428,3.4558,3.405,3.4586,3.6398,3.6638,3.7243,3.8275,3.918,3.8986,3.7901,3.936,3.9718,3.9311,4.1325,4.2386,4.2797,4.3849,4.4285,4.4285,4.4285,4.4285,4.4364,4.4724,4.4965,4.5229,0.0,0.0,0.0,0.0,0.0,0.0,0.0,0.0,0.0,0.0,0.7914,0.7938,0.0,0.0,0.0,0.0,0.0,0.0,0.8106,0.7949,0.7942,0.8156,0.8177,0.8109,0.7969,0.9286,1.0821,1.2588,1.2451,1.1713,1.0408,1.0584,1.0487,1.024,1.0772,1.0392,0.9329,0.8647,0.8088,0.7708,0.7749,0.7891,0.8128,0.0,0.0,0.0,0.0,0.0,0.0,0.0,0.0,0.0,0.8945,0.9905,1.0934,1.1373,1.2849,1.4568,1.5475,1.6539,1.7655,1.8727,1.9522,2.0484,2.2171,2.3098,2.439,2.7284,2.7402,2.7572,2.9335,3.083,3.1859,3.206,3.2819,3.3797,3.4947,3.4934,3.4808,3.4814,3.4383,3.409,3.4084,3.2141,3.1585,3.3261,3.2285,3.1932,3.2657,3.2892,3.3572,3.4775,3.4808,3.5608,3.7281,3.7042,3.754,3.8788,3.9345,3.9459,3.9247,4.0564,4.1031,4.088,4.2413,4.3361,4.3835,4.4172,4.4285,4.4285,4.4285,4.4436,4.4676,4.4989,4.5373,4.583,0.0,0.0,0.0,0.0,0.0,0.0,0.0,0.0,0.0,0.7631,0.7665,0.7724,0.0,0.0,0.0,0.7883,0.789,0.7936,0.8075,0.794,0.8087,0.8584,0.801,0.8075,0.8893,0.9933,0.9754,0.8324,0.9812,1.0147,0.9438,1.103,1.1841,1.2032,1.3286,1.3094,1.1786,1.0705,0.956,0.8476,0.8291,0.8333,0.8599,0.905,0.0,0.0,0.0,0.0,0.0,0.0,0.0,0.0,0.927,0.9484,1.0016,1.2491,1.4731,1.7025,1.9785,1.9878,1.9855,2.2831,2.1746,2.085,2.4239,2.558,2.6672,2.8551,2.943,3.0566,3.2748,3.3361,3.3791,3.4576,3.457,3.488,3.5972,3.5722,3.5931,3.7432,3.5372,3.4464,3.6049,3.3176,3.2141,3.4391,3.3487,3.2913,3.3027,3.4941,3.5162,3.3233,3.6208,3.7361,3.6367,3.7441,3.8286,3.886,3.9369,3.9898,4.0475,4.0984,4.1538,4.214,4.3144,4.3835,4.4285,4.4285,4.4285,4.4285,4.4285,4.4652,4.5109,4.5157,4.5806,4.6728,0.0,0.0,0.0,0.0,0.0,0.0,0.0,0.0,0.7709,0.7683,0.7691,0.7724,0.7786,0.7794,0.0,0.7823,0.7823,0.7834,0.7863,0.7746,0.7723,0.7842,0.7736,0.7822,0.8125,0.793,0.756,0.7014,0.8488,0.8978,0.8603,1.0666,1.1409,1.1072,1.2645,1.2127,1.0033,0.9336,0.8525,0.7683,0.806,0.8161,0.8177,0.8529,0.8764,0.0,0.0,0.0,0.0,0.0,0.0,0.0,0.9476,1.0113,1.0537,1.0359,1.2579,1.5154,1.541,1.7104,1.94,2.1832,2.3762,2.5292,2.6287,2.7563,2.8695,2.9186,2.9635,3.0803,3.3771,3.4549,3.5228,3.6673,3.5941,3.5267,3.5531,3.547,3.5207,3.4598,3.5188,3.5768,3.6177,3.4642,3.4252,3.5713,3.4697,3.4447,3.5411,3.503,3.5416,3.6827,3.6692,3.6908,3.7601,3.7868,3.8479,3.9441,3.9561,4.009,4.1028,4.1153,4.173,4.2669,4.3667,4.4196,4.4285,4.4285,4.4285,4.4285,4.4285,4.4652,4.5157,4.5565,4.6118,4.6776,0.0,0.0,0.0,0.0,0.0,0.0,0.0,0.0,0.7657,0.7657,0.7601,0.7578,0.7612,0.7612,0.0,0.0,0.7705,0.7728,0.779,0.7676,0.7552,0.7425,0.7914,0.7817,0.7068,0.6958,0.6671,0.6173,0.6929,0.7607,0.82,0.9954,1.0897,1.1191,1.258,1.2025,1.0048,0.9638,0.8911,0.8057,0.8441,0.8416,0.8186,0.8628,0.855,0.8247,0.8361,0.0,0.0,0.0,0.0,0.0,0.0,0.0,1.0181,1.0858,1.2211,1.3839,1.5675,1.7321,1.9263,2.2141,2.4744,2.6733,2.7254,2.838,2.9668,3.0891,3.1303,3.226,3.5013,3.5703,3.616,3.7083,3.6558,3.604,3.5913,3.5866,3.5727,3.5378,3.5627,3.6145,3.6965,3.5443,3.514,3.6935,3.5936,3.5548,3.6177,3.6127,3.6426,3.712,3.7093,3.7479,3.8383,3.8118,3.8647,3.997,3.9729,4.0282,4.161,4.1851,4.226,4.2862,4.3859,4.4285,4.4285,4.4285,4.4285,4.4285,4.4285,4.4796,4.5517,4.5782,4.6383,4.7136,0.0,0.0,0.0,0.0,0.0,0.0,0.0,0.0,0.0,0.7574,0.7479,0.7413,0.7413,0.7413,0.7456,0.0,0.0,0.0,0.7724,0.7601,0.7426,0.7243,0.8034,0.7803,0.6329,0.6613,0.6435,0.5728,0.5739,0.6555,0.8109,0.9299,1.0418,1.1475,1.238,1.1888,1.0345,0.9951,0.9201,0.8316,0.8612,0.8466,0.8155,0.8629,0.8301,0.7634,0.7963,0.8181,0.837,0.8807,0.0,0.0,0.0,0.0,0.9513,1.1551,1.2105,1.2823,1.6536,1.8181,1.9695,2.2974,2.5475,2.7298,2.8046,2.9136,3.0632,3.2928,3.3241,3.3764,3.5968,3.6497,3.6617,3.6646,3.659,3.6435,3.6237,3.6313,3.6579,3.7012,3.6344,3.6417,3.7846,3.6181,3.5854,3.7841,3.7069,3.6503,3.6503,3.7468,3.7548,3.653,3.7495,3.8238,3.8788,3.8262,3.8818,4.0379,4.0042,4.0619,4.2019,4.2549,4.2837,4.2982,4.3883,4.4285,4.4285,4.4285,4.4285,4.4285,4.4285,4.4965,4.5902,4.5902,4.6583,4.7497,0.0,0.0,0.0,0.0,0.0,0.0,0.0,0.0,0.0,0.0,0.7425,0.7413,0.7413,0.7413,0.7421,0.7437,0.744,0.7448,0.7464,0.0,0.0,0.7373,0.7496,0.741,0.7064,0.6774,0.6375,0.5876,0.5924,0.6809,0.8446,0.9257,1.0052,1.0833,1.0976,1.03,0.8998,0.8161,0.7335,0.6676,0.734,0.7465,0.7299,0.7536,0.7626,0.7576,0.7285,0.7661,0.8318,0.8393,0.8715,0.0,0.0,0.0,0.912,0.9167,1.0353,1.1893,1.2929,1.6941,2.138,2.3637,2.6693,2.924,2.9751,3.1367,3.3123,3.4321,3.3793,3.3768,3.5921,3.6183,3.6114,3.6124,3.5718,3.5408,3.5387,3.597,3.6435,3.6507,3.717,3.7743,3.7974,3.7708,3.7655,3.7974,3.7841,3.7761,3.7761,3.7894,3.7921,3.7761,3.7921,3.8238,3.8788,3.8262,3.8818,4.0403,4.0787,4.1345,4.2019,4.2549,4.303,4.3433,4.4051,4.4285,4.4285,4.4285,4.4285,4.4285,4.4285,4.4965,4.5902,4.5902,4.6583,4.7497,0.0,0.0,0.0,0.0,0.0,0.0,0.0,0.0,0.0,0.0,0.0,0.7413,0.7413,0.7413,0.7413,0.7413,0.7413,0.7367,0.7225,0.7161,0.7055,0.6946,0.6852,0.6672,0.643,0.6269,0.6007,0.5623,0.5761,0.6518,0.7839,0.8629,0.9601,1.0701,1.0382,0.9617,0.8475,0.7723,0.7226,0.6937,0.7308,0.8345,0.9517,0.794,0.8147,0.9079,0.747,0.7333,0.7939,0.8209,0.8669,0.9106,0.9106,0.0,0.0,0.0,0.9684,1.1142,1.3674,1.7203,2.0874,2.3886,2.7106,2.9713,3.048,3.2012,3.3593,3.4601,3.4765,3.5041,3.6098,3.5972,3.569,3.557,3.5105,3.4722,3.4589,3.5479,3.6181,3.6181,3.727,3.8,3.8,3.8,3.8,3.8,3.8,3.8,3.8,3.8,3.8,3.8,3.8,3.8383,3.9248,3.8719,3.9104,4.0403,4.0932,4.1658,4.2452,4.2693,4.3078,4.3553,4.4075,4.4285,4.4285,4.4285,4.4285,4.4309,4.4652,4.5229,4.5926,4.6214,4.6848,4.7497,0.0,0.0,0.0,0.0,0.0,0.0,0.0,0.0,0.0,0.0,0.0,0.7413,0.7413,0.0,0.0,0.0,0.7413,0.7288,0.7076,0.7011,0.6845,0.653,0.6382,0.6169,0.5874,0.5943,0.5837,0.556,0.5712,0.6392,0.7591,0.8262,0.9304,1.0585,1.0111,0.9311,0.8312,0.7663,0.7469,0.7593,0.8168,0.9633,1.1318,0.9855,1.0418,1.1592,0.8953,0.8417,0.8899,0.85,0.8708,0.9106,0.9106,0.9106,0.0,0.0,0.0,1.0401,1.396,1.6458,1.9006,2.2959,2.6267,2.8907,3.0308,3.1892,3.3361,3.4395,3.5072,3.5611,3.6022,3.5844,3.5468,3.4982,3.4523,3.4161,3.4035,3.5109,3.5926,3.6002,3.7113,3.7945,3.7974,3.8,3.8,3.8,3.8,3.8,3.8,3.8,3.8,3.8,3.8,3.8503,3.9609,3.9489,3.9753,4.0403,4.1105,4.1899,4.2789,4.2934,4.3168,4.3553,4.4075,4.4285,4.4285,4.4285,4.4285,4.4333,4.4893,4.5421,4.595,4.6511,4.704,4.7497,0.0,0.0,0.0,0.0,0.0,0.0,0.0,0.0,0.0,0.0,0.0,0.7413,0.7413,0.7413,0.7413,0.7413,0.7413,0.7249,0.6941,0.6727,0.6526,0.6329,0.6312,0.0,0.6098,0.6142,0.612,0.5961,0.5975,0.6796,0.8357,0.8658,0.9325,1.0316,1.0031,0.9384,0.8435,0.7698,0.7632,0.8144,1.0053,1.0825,1.113,1.377,1.5143,1.5251,1.2367,1.1902,1.2208,0.949,0.8824,0.9106,0.9106,0.9106,0.9106,0.0,0.0,0.0,1.1727,1.3445,1.5738,2.0266,2.3649,2.6545,2.9022,3.1111,3.2835,3.3843,3.4076,3.44,3.5359,3.5788,3.5532,3.4273,3.3889,3.3739,3.3741,3.483,3.5697,3.5977,3.698,3.7729,3.7974,3.8,3.8,3.8,3.8,3.8,3.8,3.8,3.8,3.8,3.8,3.8503,3.9609,4.0571,4.0836,4.0403,4.1466,4.226,4.2813,4.3265,4.3481,4.3553,4.4075,4.4285,4.4285,4.4285,4.4285,4.4333,4.4893,4.5421,4.595,4.6511,4.704,4.7497,0.0,0.0,0.0,0.0,0.0,0.0,0.0,0.0,0.0,0.0,0.0,0.0,0.0,0.7413,0.7413,0.7413,0.7268,0.7132,0.692,0.6706,0.6504,0.6316,0.6164,0.6133,0.6156,0.6183,0.6138,0.5998,0.6119,0.6576,0.7325,0.8169,0.8516,0.8538,0.9483,0.9523,0.885,0.8246,0.8063,0.8429,1.1029,1.3162,1.484,1.5527,1.7261,1.8933,1.5554,1.3804,1.2921,1.1903,1.0636,0.948,0.948,0.948,0.948,0.948,0.9603,1.0041,1.1469,1.2834,1.466,1.7922,2.1514,2.4824,2.7068,2.9972,3.2676,3.4465,3.4932,3.5202,3.5716,3.5198,3.4546,3.4078,3.3692,3.3419,3.3419,3.4528,3.5439,3.572,3.6825,3.7729,3.7947,3.8,3.8,3.8,3.8,3.8,3.8,3.8,3.8,3.8,3.8,3.8503,3.9609,4.0643,4.1076,4.0908,4.1658,4.2284,4.2813,4.3289,4.3505,4.3529,4.3691,4.3625,4.3361,4.3643,4.3979,4.4412,4.5277,4.5926,4.6487,4.7016,4.7329,4.7497,0.0,0.0,0.0,0.0,0.0,0.7413,0.7413,0.7413,0.7413,0.7413,0.0,0.0,0.0,0.0,0.7386,0.7292,0.7149,0.6974,0.6812,0.6608,0.6443,0.6334,0.6205,0.6192,0.6307,0.6307,0.629,0.6226,0.629,0.6488,0.6847,0.7625,0.7853,0.7633,0.8611,0.9148,0.9243,0.8765,0.8663,0.9157,1.2719,1.4828,1.6044,1.7797,1.9437,2.0486,1.8077,1.6381,1.5292,1.5069,1.393,1.2431,1.1456,1.0483,0.9697,0.9697,0.9963,1.0391,1.0881,1.2044,1.3673,1.6112,1.9066,2.2147,2.506,2.7959,3.0715,3.3101,3.3839,3.427,3.4967,3.4225,3.3545,3.3729,3.3499,3.3317,3.3317,3.4321,3.5204,3.5542,3.6667,3.7572,3.7947,3.8,3.8,3.8,3.8,3.8,3.8,3.8,3.8,3.8,3.8166,3.8599,3.9317,4.0379,4.0908,4.0932,4.1851,4.2452,4.2813,4.3481,4.3601,4.3265,4.3265,4.3168,4.3078,4.3385,4.3907,4.4676,4.5541,4.6214,4.6776,4.7305,4.7497,4.7497,0.0,0.0,0.0,0.0,0.7413,0.7413,0.7413,0.7413,0.7413,0.7413,0.0,0.0,0.0,0.0,0.0,0.7141,0.7017,0.685,0.6616,0.6426,0.6338,0.6402,0.6406,0.643,0.6501,0.651,0.6561,0.6689,0.6439,0.6585,0.7099,0.7158,0.7407,0.7776,0.7517,0.8205,0.9536,0.9205,0.9378,1.0321,1.503,1.5656,1.4469,2.0781,2.1864,2.0022,2.0022,1.9822,1.9495,1.8944,1.8496,1.7688,1.4814,1.1984,0.9717,0.9717,1.0151,1.0507,0.0,0.0,0.0,1.4748,1.6313,1.8477,2.2959,2.5015,2.678,2.9546,3.0537,3.1387,3.2951,3.2789,3.2628,3.3132,3.3271,3.3317,3.3317,3.4165,3.4993,3.554,3.6508,3.7358,3.7921,3.8,3.8,3.8,3.8,3.8,3.8,3.8,3.8,3.8,3.8527,3.8788,3.8788,3.985,4.0379,4.0427,4.2019,4.2789,4.2837,4.3835,4.3739,4.2789,4.2813,4.3078,4.3481,4.3481,4.41,4.5157,4.5686,4.6214,4.68,4.7305,4.7497,4.7497,0.0,0.0,0.0,0.7413,0.7772,0.7908,0.747,0.7772,0.7884,0.0,0.0,0.0,0.7442,0.78,0.8028,0.7973,0.7757,0.742,0.6996,0.6732,0.6595,0.6604,0.6706,0.6689,0.6506,0.6634,0.6689,0.6616,0.6543,0.6583,0.6752,0.7018,0.7261,0.7527,0.7681,0.8096,0.8614,0.8098,0.8871,1.0754,1.3925,1.6297,1.8326,2.1863,2.4096,2.5312,2.4924,2.3417,2.1641,2.1863,1.9109,1.5184,1.2755,1.112,1.0129,1.0129,1.0687,1.1206,1.0713,0.0,0.0,0.0,0.0,0.0,1.789,2.1039,2.4321,2.7271,2.8201,2.9182,3.1565,3.1344,3.1019,3.1547,3.2558,3.3317,3.3317,3.4165,3.4993,3.554,3.6508,3.7358,3.7921,3.8,3.8,3.8,3.8,3.8,3.8,3.8,3.8,3.8,3.8527,3.8788,3.8788,3.9489,4.021,4.098,4.1827,4.2597,4.3337,4.4003,4.3739,4.2813,4.3174,4.3168,4.3006,4.3006,4.3818,4.5157,4.5686,4.6455,4.7305,4.7449,4.7497,4.7497,0.0,0.0,0.7987,0.8261,0.9128,0.9609,0.9184,0.9404,0.9366,0.0,0.0,0.0,0.8235,0.8734,0.887,0.8275,0.8082,0.773,0.7099,0.692,0.6841,0.687,0.6949,0.6873,0.6668,0.6791,0.6774,0.6634,0.6634,0.6664,0.6719,0.6962,0.7113,0.7207,0.7393,0.7673,0.7935,0.7317,0.8214,1.0397,1.4576,1.6881,1.8263,2.2372,2.4256,2.4779,2.5657,2.4584,2.2961,2.4476,2.1316,1.6493,1.4908,1.2852,1.0919,1.0449,1.1168,1.2034,1.151,1.1849,1.2427,1.273,0.0,0.0,1.6905,1.9002,2.1412,2.5081,2.6,2.6866,2.9263,2.9301,2.9252,3.0239,3.1295,3.2236,3.2881,3.3821,3.4739,3.5517,3.632,3.7121,3.7897,3.8,3.8,3.8,3.8,3.8,3.8,3.8,3.8,3.8,3.831,3.8479,3.8479,3.9008,3.9801,4.0888,4.1658,4.2549,4.3529,4.4051,4.3739,4.2813,4.3102,4.3054,4.2789,4.2789,4.3818,4.5469,4.5782,4.6583,4.7497,4.7497,4.7497,4.7497,0.0,0.0,0.8947,0.9702,1.098,1.1868,1.1772,1.1761,1.1465,0.0,1.0072,0.9687,0.9712,1.0089,0.9817,0.8567,0.8314,0.7931,0.7219,0.7082,0.7072,0.7132,0.7153,0.7092,0.6932,0.6953,0.6895,0.6753,0.6753,0.682,0.6941,0.7006,0.699,0.6908,0.6908,0.7092,0.7364,0.696,0.7854,1.0064,1.5743,1.7181,1.6545,2.2608,2.3553,2.1996,2.4547,2.4741,2.4137,2.6435,2.4163,2.0205,1.9147,1.6117,1.268,1.1134,1.2016,1.3312,1.2497,1.3113,1.4124,1.4657,1.3976,0.0,1.7693,1.7825,1.8375,2.2399,2.3352,2.406,2.6092,2.6507,2.7036,2.8489,2.9433,3.0583,3.2192,3.3269,3.4324,3.547,3.6062,3.6817,3.7899,3.8,3.8,3.8,3.8,3.8,3.8,3.8,3.8,3.8,3.8,3.8,3.8,3.8479,3.932,4.0499,4.1466,4.2495,4.3625,4.41,4.3739,4.2789,4.2862,4.2837,4.2789,4.2862,4.4058,4.5902,4.5902,4.6583,4.7497,4.7497,4.7497,4.7497,0.9189,0.9328,0.9748,1.1119,1.2009,1.2695,1.3285,1.3308,1.3224,1.3105,1.2541,1.2159,1.2272,1.1669,1.107,1.0632,0.9607,0.8749,0.8252,0.7606,0.7233,0.7249,0.7402,0.7351,0.708,0.7205,0.7225,0.7116,0.7116,0.7128,0.7157,0.7197,0.7108,0.6908,0.6908,0.6842,0.683,0.7628,0.9679,1.2479,1.3514,1.6167,1.9837,2.305,2.5667,2.7714,2.8246,2.8011,2.72,2.5918,2.4835,2.3303,1.9484,1.8595,1.8225,1.428,1.5012,1.666,1.4637,1.4611,1.4994,1.4211,1.4515,0.0,1.3739,1.4833,1.6238,1.7046,1.8053,1.9436,2.1504,2.2242,2.2811,2.3646,2.6632,2.9557,3.1641,3.2812,3.3979,3.5423,3.6062,3.6817,3.7899,3.8,3.8,3.8,3.8,3.8,3.8,3.8,3.8,3.8,3.8,3.8,3.8,3.8094,3.9128,4.1057,4.1273,4.2327,4.4148,4.4268,4.3739,4.2813,4.3192,4.3144,4.2813,4.3192,4.4371,4.5902,4.5902,4.6583,4.7497,4.7497,4.7497,4.7497,0.9506,1.0239,1.1196,1.2659,1.4036,1.5162,1.5757,1.5833,1.5684,1.5256,1.4907,1.4484,1.391,1.3318,1.2372,1.0919,0.9925,0.8967,0.8105,0.7673,0.7464,0.7464,0.754,0.7483,0.7241,0.7363,0.7319,0.7185,0.7221,0.7221,0.7189,0.7264,0.8406,1.0297,0.7945,0.8078,0.9981,0.8206,0.8749,1.1105,1.474,1.8731,2.2853,2.5616,2.7775,2.9292,2.9292,2.9109,2.8664,2.7604,2.5663,2.3517,2.2417,2.1025,1.9235,1.6346,1.6911,1.7983,1.5692,1.5483,1.5875,1.5561,1.5265,0.0,0.0,1.4777,1.532,1.7002,1.7219,1.7738,1.9851,2.0262,2.0528,2.1385,2.5129,2.785,2.7551,3.0859,3.3771,3.5047,3.5662,3.6415,3.7488,3.7856,3.8,3.8,3.8,3.8,3.8,3.8,3.8,3.8,3.8,3.8,3.8,3.8262,3.9345,4.1201,4.149,4.2543,4.4285,4.4285,4.3739,4.2813,4.3289,4.3216,4.2837,4.3313,4.4467,4.5902,4.5902,4.6583,4.7497,4.7497,4.7497,4.7497,0.9713,1.1127,1.2612,1.3855,1.5713,1.7224,1.7729,1.7859,1.7615,1.6833,1.7247,1.7157,1.6081,1.6128,1.5361,1.3145,1.2193,1.0965,0.9182,0.8843,0.8721,0.8721,0.7988,0.7908,0.854,0.7833,0.741,0.7304,0.7371,0.7371,0.7304,0.7371,0.9264,1.2515,0.9582,0.9873,1.2347,0.9375,0.9128,1.1283,1.7197,2.0888,2.3223,2.6892,2.8429,2.8734,2.9548,2.9749,2.96,2.9393,2.6735,2.3698,2.4715,2.3058,2.0236,1.8031,1.8662,1.9499,1.6859,1.6608,1.7042,1.7042,1.6232,1.562,0.0,0.0,0.0,1.7688,1.7199,1.6905,1.8865,1.878,1.8729,1.9697,2.3341,2.5276,2.3041,2.7941,3.2087,3.3028,3.4604,3.5823,3.6358,3.6723,3.7254,3.7952,3.735,3.7254,3.7976,3.8,3.8,3.8,3.8,3.8,3.8,3.8647,3.9705,4.1225,4.1851,4.2904,4.4285,4.4285,4.3739,4.2813,4.3289,4.3216,4.2837,4.3313,4.4467,4.5902,4.5902,4.6583,4.7497,4.7497,4.7497,4.7497,1.0914,1.2164,1.3256,1.4114,1.5496,1.6721,1.7376,1.7462,1.7431,1.7309,1.9536,2.0969,2.0597,2.1958,2.2703,2.2135,2.0636,1.8171,1.4559,1.3326,1.274,1.274,0.9425,0.9213,1.2628,0.9344,0.7635,0.7731,0.7683,0.7683,0.7728,0.7679,0.7826,0.8292,1.1731,1.1589,0.8928,1.2163,1.5728,1.9238,1.9491,1.8322,1.7047,2.2594,2.5312,2.6689,3.0457,3.1348,3.0579,2.9254,2.8233,2.681,2.2644,2.4012,2.594,1.9801,2.1001,2.3474,1.9577,1.8938,1.895,1.6963,1.746,1.7594,1.4527,0.0,1.522,1.4857,0.0,1.5245,1.6565,0.0,0.0,1.7019,1.9432,2.1145,2.0991,2.3932,2.6368,2.7011,3.2136,3.5038,3.3624,3.3262,3.4463,3.776,3.4968,3.4535,3.7832,3.8,3.8,3.8,3.8,3.8,3.8,3.9008,4.009,4.1196,4.2236,4.3265,4.4285,4.4285,4.3739,4.2813,4.3289,4.3216,4.2837,4.3313,4.4467,4.5902,4.5902,4.6583,4.7497,4.7497,4.7497,4.7497,1.0473,1.1742,1.2905,1.3655,1.493,1.6257,1.734,1.8207,1.8776,1.8889,2.0217,2.0972,2.0488,2.0688,2.098,2.1247,1.997,1.801,1.538,1.4403,1.3105,1.1256,0.9287,0.9005,1.0647,0.8722,0.7742,0.7794,0.7805,0.7728,0.7574,0.7586,0.9088,1.1864,1.3297,1.4698,1.5974,1.5795,1.6284,1.7195,1.7956,1.7456,1.7127,2.5391,2.939,3.0717,3.2507,3.3254,3.3413,3.3188,3.0406,2.7291,2.8708,2.6729,2.3706,2.2963,2.2844,2.2374,1.9656,2.0074,2.0675,1.8035,1.8401,1.8588,1.5351,1.4575,1.4584,1.4883,0.0,0.0,0.0,0.0,0.0,0.0,1.8575,1.9838,1.7703,2.1726,2.5064,2.5472,2.8217,3.0789,3.2545,3.3118,3.4679,3.7784,3.5136,3.4727,3.7832,3.8,3.8,3.8,3.8,3.8142,3.8455,3.9537,4.0595,4.1682,4.2687,4.3601,4.4285,4.3979,4.3625,4.3216,4.3409,4.3385,4.3265,4.4075,4.5013,4.5926,4.6238,4.6848,4.7497,4.7497,4.7497,4.7497,1.0149,1.1457,1.2619,1.311,1.45,1.6054,1.7469,1.8534,1.9415,2.0012,2.0894,2.1434,2.1398,2.1922,2.2556,2.3238,2.2892,2.1547,1.9035,1.7338,1.5786,1.4368,1.087,0.9865,1.1774,0.9326,0.7934,0.7768,0.7797,0.779,0.7755,0.7611,0.9571,1.3289,1.4105,1.6618,2.0111,1.9045,1.8749,1.9058,2.0069,2.1096,2.2728,2.8709,3.2056,3.3634,3.4074,3.4481,3.4863,3.496,3.1671,2.8142,3.1625,2.8339,2.361,2.5667,2.5119,2.3327,2.0976,2.1577,2.2047,1.8689,1.8479,1.8375,1.5666,1.4751,1.4698,1.5343,1.5352,0.0,0.0,0.0,1.5666,1.5928,0.0,1.8502,1.5556,1.9205,2.2253,2.2464,2.4099,2.6852,3.0955,3.1474,3.305,3.664,3.4315,3.4268,3.7808,3.8,3.8,3.8,3.8142,3.8407,3.8788,4.0162,4.1177,4.1803,4.2952,4.3649,4.3883,4.3625,4.3433,4.3313,4.3601,4.3715,4.3787,4.4724,4.5493,4.6142,4.6559,4.704,4.7497,4.7497,4.7497,4.7521,1.0549,1.1705,1.2612,1.2607,1.4383,1.6268,1.767,1.7926,1.8526,2.0081,2.1947,2.3699,2.5255,2.9092,3.1875,3.2599,3.4018,3.2951,2.8467,2.4143,2.3112,2.6106,1.5553,1.2756,1.9595,1.2414,0.8285,0.7702,0.7646,0.7962,0.8647,0.7921,0.8025,0.9012,1.4013,1.6264,1.6667,2.1395,2.5988,2.9972,2.888,3.1265,3.5002,3.0582,3.0485,3.2929,3.4499,3.4565,3.3711,3.2269,3.1392,3.0378,2.7115,2.7713,2.9225,2.7259,2.8168,2.8952,2.4999,2.4006,2.2935,1.8375,1.7251,1.6676,1.4385,1.5143,1.6163,1.5604,1.7225,1.8573,1.814,1.8009,1.78,0.0,1.6807,0.0,0.0,1.5664,1.5794,1.5802,2.0126,2.4493,2.8085,2.6588,2.7832,3.3788,3.1302,3.2034,3.769,3.8,3.8,3.8,3.8503,3.8764,3.8788,4.0884,4.1706,4.122,4.2784,4.3265,4.2862,4.3289,4.3241,4.2886,4.3835,4.4261,4.434,4.4869,4.571,4.668,4.6704,4.704,4.7497,4.7497,4.7497,4.7569,1.1926,1.2819,1.3151,1.2159,1.3422,1.5176,1.7074,1.8591,2.0349,2.2766,2.4082,2.5721,2.8185,2.9751,3.1274,3.2947,3.3189,3.2137,2.9446,2.5481,2.3531,2.4193,1.6055,1.3428,1.7501,1.255,0.94,0.8367,0.8382,0.8245,0.7958,0.7819,0.8053,0.8817,1.3941,1.7873,2.087,2.4255,2.735,2.9958,3.0265,3.135,3.2845,3.3942,3.5172,3.64,3.6958,3.7331,3.7463,3.6928,3.5056,3.3009,3.326,3.0915,2.8248,2.9353,2.8796,2.7628,2.6618,2.748,2.7366,2.1982,2.1211,2.0558,1.598,1.5692,1.6111,1.5117,1.6441,1.7721,1.7539,1.7199,0.0,0.0,0.0,0.0,0.0,1.4157,1.4262,1.5082,1.937,2.2844,2.4272,2.6951,2.996,3.318,3.3112,3.44,3.7836,3.8,3.8,3.8,3.8527,3.8957,3.9345,4.0739,4.1562,4.1755,4.2621,4.3126,4.3241,4.3126,4.3313,4.3787,4.3763,4.4172,4.4869,4.5421,4.6046,4.6752,4.7088,4.7353,4.7497,4.7497,4.7497,4.7617,1.3412,1.3751,1.3599,1.2644,1.3681,1.5373,1.7507,1.9899,2.2289,2.458,2.5972,2.7624,2.9999,3.095,3.2052,3.3692,3.4182,3.3324,3.0819,2.8167,2.6352,2.567,2.0038,1.8132,2.0742,1.5885,1.2697,1.1459,1.0088,0.902,0.8294,0.8141,0.8409,0.9108,1.2872,1.7786,2.3403,2.5778,2.9058,3.2732,3.3587,3.3926,3.432,3.7241,3.7266,3.598,3.7628,3.8519,3.8991,3.8991,3.7197,3.5177,3.6313,3.3465,3.0035,3.1815,3.096,2.9397,2.91,3.0145,3.0163,2.5395,2.4779,2.3902,1.858,1.8125,1.8479,1.7303,1.7811,1.9014,2.0844,1.9054,1.7617,0.0,0.0,0.0,0.0,1.3745,1.4076,1.5069,1.8065,2.0792,2.2702,2.5122,2.8695,3.3852,3.3662,3.485,3.8364,3.8556,3.8396,3.8,3.8719,3.9272,3.9609,4.0836,4.1562,4.173,4.226,4.2669,4.2952,4.2862,4.3241,4.4003,4.3835,4.4388,4.5421,4.5758,4.631,4.7016,4.7377,4.7497,4.7497,4.7497,4.7738,4.8147,1.4783,1.4454,1.4091,1.4156,1.5199,1.6781,1.8933,2.1689,2.4112,2.5671,2.7753,2.9696,3.1195,3.3182,3.4696,3.5409,3.732,3.6904,3.3136,3.2209,3.1519,3.0921,2.7093,2.6285,2.9004,2.1955,1.7707,1.6584,1.2503,1.0189,0.9579,0.8942,0.8972,0.9579,1.0947,1.6135,2.399,2.5965,3.1222,3.8258,3.8649,3.8957,3.9254,4.0079,3.6744,3.2219,3.6724,3.8346,3.8346,3.8346,3.7787,3.69,3.6098,3.5256,3.4538,3.4497,3.4476,3.411,3.245,3.2006,3.1327,2.8456,2.7699,2.6514,2.2035,2.2283,2.3144,2.1995,2.1433,2.2572,2.7278,2.3184,1.9592,0.0,0.0,0.0,1.4018,1.4306,1.4855,1.5509,0.0,0.0,0.0,0.0,2.4475,3.5123,3.2901,3.3537,3.9296,3.942,3.8931,3.8075,3.9056,3.9609,3.9657,4.1172,4.173,4.1249,4.1755,4.2019,4.2091,4.2597,4.3102,4.3577,4.4137,4.4979,4.5902,4.5942,4.6568,4.7497,4.7497,4.753,4.7597,4.7597,4.8271,4.9197,1.5074,1.5693,1.6678,1.7688,1.728,1.7533,1.9697,2.2418,2.5528,2.906,3.1898,3.4696,3.7695,3.8537,3.894,3.9135,3.9653,3.9104,3.7048,3.4528,3.3642,3.4804,2.936,2.7514,3.0148,2.2763,1.8517,1.7851,1.3027,1.0308,0.9681,0.9549,0.9055,0.8365,1.1053,1.6341,2.3385,2.5774,3.1389,3.8668,3.876,3.7671,3.6293,3.9271,3.8032,3.5195,3.9154,4.0594,4.0594,4.0594,3.9982,3.9068,3.8279,3.7359,3.6486,3.5846,3.5652,3.5574,3.5129,3.4999,3.4403,3.1967,3.0738,2.9327,2.6409,2.6425,2.6755,2.5604,2.63,2.6572,2.4857,2.3196,2.1263,1.8715,1.6336,1.4881,0.0,0.0,0.0,1.6598,0.0,0.0,0.0,0.0,2.776,3.0601,3.2909,3.5789,3.9397,3.6994,3.6456,3.8527,3.9248,3.9801,4.0186,4.098,4.1538,4.1803,4.1947,4.2404,4.312,4.3265,4.3595,4.4161,4.5238,4.5772,4.5974,4.6936,4.7383,4.7497,4.7497,4.81,4.8998,4.8998,4.9661,5.0604,1.6499,1.7544,1.8828,1.9556,2.0312,2.1212,2.2434,2.3673,2.6037,3.0354,3.3117,3.5603,3.7936,3.9588,4.0495,4.0495,4.0495,3.9559,3.7355,3.6855,3.6164,3.5178,3.33,3.2778,3.3765,2.8088,2.3896,2.1444,1.6519,1.2589,0.9688,0.975,0.9187,0.8325,1.1216,1.5628,2.1272,2.6999,3.223,3.6874,3.8659,3.8536,0.0,4.0263,4.0196,3.9019,4.1368,4.1863,4.1403,4.1403,4.0539,3.9396,3.896,3.7888,3.6726,3.6227,3.6096,3.6149,3.6436,3.6488,3.6253,3.5234,3.4476,3.3273,3.0406,3.0032,3.0103,2.9449,2.9109,2.9057,2.9536,2.5903,2.1433,1.7146,1.563,1.5117,0.0,0.0,0.0,0.0,1.8479,0.0,0.0,0.0,0.0,2.916,3.1989,3.4767,3.7249,3.5986,3.6244,3.8607,3.8814,3.9369,4.0379,4.0451,4.1033,4.1995,4.1995,4.2821,4.4326,4.4326,4.4921,4.5985,4.6709,4.7096,4.7283,4.8283,4.8736,4.89,4.9157,5.0066,5.1242,5.1242,5.1556,5.1849,1.8502,1.971,2.0692,2.0594,2.3528,2.6088,2.6513,2.6208,2.73,3.1228,3.37,3.5364,3.6089,3.894,4.0772,4.0772,4.0697,3.9409,3.6511,3.8833,3.8495,3.4386,3.7428,3.8862,3.8001,3.4578,3.0452,2.5604,2.0859,1.554,0.985,0.9761,0.9368,0.8848,1.1285,1.4957,1.9836,2.905,3.3646,3.511,3.8756,4.0409,4.0786,4.1961,4.244,4.2601,4.31,4.2592,4.1643,4.1643,4.0479,3.9022,3.9022,3.7791,3.6332,3.6332,3.6332,3.6462,3.6985,3.7116,3.7246,3.7769,3.79,3.7116,3.4058,3.3378,3.3378,3.3378,3.1411,3.1201,3.6279,2.9397,2.1511,1.7131,1.6477,1.6634,0.0,0.0,0.0,0.0,0.0,0.0,0.0,0.0,0.0,2.8784,2.9982,3.1789,3.4379,3.5224,3.6562,3.8587,3.8348,3.8969,4.058,4.0078,4.0692,4.2438,4.2365,4.3536,4.5763,4.5763,4.6605,4.8123,4.8268,4.8554,4.8953,4.9737,5.0306,5.0781,5.1495,5.2478,5.351,5.351,5.3627,5.3345,2.0108,2.1339,2.2317,2.2158,2.5141,2.8545,3.135,3.2655,3.4016,3.5933,3.857,4.056,4.1242,4.1857,4.223,4.223,4.1694,4.0842,3.9668,3.9528,3.8875,3.747,3.804,3.8399,3.8392,3.4765,3.068,2.6142,2.113,1.5891,1.0589,1.0091,0.9503,0.8943,1.0954,1.667,2.5176,3.1116,3.5718,3.9131,4.0426,4.1381,4.2081,4.2321,4.272,4.316,4.326,4.316,4.298,4.298,4.177,4.0266,4.0266,3.9049,3.7586,3.7586,3.7586,3.7612,3.7717,3.7743,3.7769,3.7874,3.79,3.7743,3.7142,3.6985,3.6985,3.6985,3.6593,3.5704,3.3927,2.9423,2.4898,2.1721,2.1551,2.2674,2.5062,0.0,0.0,0.0,0.0,2.4128,0.0,0.0,0.0,0.0,2.5738,2.8618,3.4355,3.2017,3.3218,3.9231,3.9355,4.0102,4.1698,4.1197,4.2248,4.4813,4.4338,4.5378,4.7617,4.7617,4.7785,4.8152,4.9135,4.9338,4.9012,5.0685,5.1359,5.1454,5.267,5.3271,5.351,5.351,5.4847,5.6286,2.2191,2.284,2.3753,2.5076,2.8345,3.1828,3.4806,3.7554,3.8832,3.7482,3.8505,3.9509,3.9818,4.1486,4.2586,4.2586,4.2302,4.1965,4.1705,4.0995,4.0313,3.9677,3.9284,3.9187,3.9397,3.7233,3.3126,2.7017,2.3488,1.8004,1.0783,1.0489,0.9836,0.905,1.3318,1.8756,2.5106,3.1427,3.5683,3.8329,4.0785,4.2015,4.244,4.275,4.304,4.329,4.329,4.329,4.329,4.329,4.2099,4.0603,4.0603,3.9348,3.79,3.79,3.79,3.79,3.79,3.79,3.79,3.79,3.79,3.79,3.79,3.79,3.79,3.79,3.79,3.6828,3.3326,2.964,2.6661,2.526,2.3785,2.389,2.7062,0.0,0.0,0.0,0.0,0.0,0.0,0.0,0.0,0.0,0.0,2.825,3.463,3.2133,3.3789,4.0978,4.074,4.1399,4.3308,4.2564,4.3424,4.5923,4.5675,4.677,4.9021,4.9021,4.939,5.0041,5.0628,5.0874,5.0992,5.2555,5.3345,5.3631,5.4288,5.4527,5.4527,5.4527,5.5748,5.6987,2.4917,2.5262,2.6221,2.8702,3.2148,3.5266,3.7346,4.074,4.1978,3.8857,3.8454,3.8468,3.8426,4.0903,4.2586,4.2586,4.2492,4.2476,4.2586,4.1965,4.1426,4.0959,4.043,4.0135,4.0183,3.992,3.6223,2.8953,2.6466,2.0877,1.2465,1.1473,1.0961,1.1119,1.6763,2.1562,2.5864,3.2109,3.5833,3.7881,4.1246,4.2601,4.2631,4.313,4.329,4.329,4.329,4.329,4.329,4.329,4.2222,4.0859,4.0667,3.948,3.8148,3.7946,3.79,3.79,3.79,3.79,3.79,3.79,3.79,3.79,3.79,3.79,3.79,3.79,3.79,3.6828,3.3326,3.1059,2.9309,2.8081,2.6216,2.5892,2.8577,2.8656,0.0,0.0,0.0,0.0,2.4375,0.0,0.0,0.0,0.0,2.8165,3.3758,3.2572,3.4721,4.1364,4.0982,4.1607,4.3572,4.3625,4.473,4.6962,4.6979,4.8174,5.0294,5.043,5.1044,5.1983,5.2124,5.2545,5.3192,5.4175,5.4962,5.5496,5.5496,5.5496,5.5496,5.5496,5.6226,5.6882,2.8602,2.9949,3.134,3.289,3.6115,3.8531,3.8731,4.1227,4.286,4.218,4.2255,4.2319,4.2116,4.2392,4.2586,4.2586,4.2158,4.1803,4.164,4.1214,4.0913,4.0741,4.0795,4.0608,4.02,4.1377,3.9042,3.3049,2.9255,2.4191,1.7968,1.3654,1.3799,1.7787,2.0538,2.5773,3.2691,3.4912,3.8175,4.1912,4.2831,4.322,4.322,4.326,4.329,4.329,4.329,4.329,4.329,4.329,4.2659,4.1728,4.088,3.9913,3.8926,3.8125,3.79,3.79,3.79,3.79,3.79,3.79,3.79,3.79,3.79,3.79,3.79,3.79,3.79,3.6828,3.3326,3.5025,3.5208,2.9972,3.1463,3.3378,3.3718,3.2391,3.1608,0.0,0.0,0.0,0.0,2.2632,0.0,0.0,2.6258,2.6631,3.0194,3.1245,3.3595,3.7768,3.8348,3.9137,4.0337,4.3676,4.6518,4.8754,4.8899,4.9886,5.1623,5.2183,5.2491,5.2658,5.3276,5.3866,5.4428,5.454,5.4962,5.5496,5.5496,5.5496,5.5496,5.5496,5.5917,5.6448,3.3811,3.4142,3.51,3.7735,3.9121,4.0512,4.2434,4.3854,4.4611,4.4265,4.353,4.2944,4.2806,4.2791,4.2744,4.2602,4.2413,4.2317,4.2459,4.1933,4.1705,4.182,4.1477,4.1378,4.1624,4.1754,3.9715,3.5466,3.0605,2.5586,2.0478,1.8179,1.9467,2.3843,2.7068,3.0925,3.5198,3.8293,4.0888,4.297,4.322,4.329,4.329,4.329,4.329,4.329,4.329,4.329,4.329,4.329,4.2719,4.1914,4.1561,4.041,3.9121,3.8769,3.8304,3.79,3.79,3.79,3.79,3.79,3.79,3.79,3.79,3.79,3.79,3.79,3.79,3.7482,3.607,3.5234,3.4711,3.4502,3.3849,3.411,3.6201,3.5913,3.5552,3.5783,0.0,0.0,0.0,0.0,2.5295,0.0,0.0,2.4154,2.9959,3.1437,3.3669,3.7069,4.1022,4.3088,4.3132,4.6127,4.8478,5.0157,5.0178,5.0958,5.2349,5.2602,5.2911,5.336,5.3979,5.44,5.4625,5.499,5.5271,5.5496,5.5496,5.5496,5.5496,5.5496,5.5889,5.6393,3.8447,3.8248,3.8884,4.2012,4.2231,4.2774,4.5072,4.564,4.5703,4.5466,4.4547,4.3814,4.3582,4.3402,4.321,4.2941,4.2873,4.2882,4.3021,4.2727,4.2633,4.2819,4.2364,4.2253,4.2601,4.2269,4.0806,3.8098,3.3098,2.8791,2.5185,2.3595,2.5118,2.9276,3.248,3.5339,3.7955,4.1012,4.2664,4.329,4.329,4.329,4.329,4.329,4.329,4.329,4.329,4.329,4.329,4.329,4.288,4.2333,4.2087,4.0901,3.9563,3.9299,3.8571,3.79,3.79,3.808,3.8281,3.8281,3.8485,3.8688,3.8688,3.8688,3.8688,3.8688,3.8462,3.8281,3.8281,3.6503,3.5432,3.6655,3.56,3.5152,3.6663,3.7011,3.7011,3.6671,3.4894,0.0,3.4043,2.9804,2.7682,2.9161,2.536,2.5487,3.1269,3.2792,3.4899,3.801,4.2879,4.524,4.4766,4.794,5.0016,5.0886,5.128,5.1871,5.2714,5.3079,5.3613,5.426,5.4681,5.485,5.4906,5.5327,5.5496,5.5496,5.5496,5.5496,5.5496,5.5496,5.5777,5.6142,4.2024,4.2421,4.3116,4.5351,4.5731,4.5764,4.5781,4.5797,4.5797,4.5781,4.5781,4.5593,4.513,4.4525,4.4052,4.3702,4.3492,4.3252,4.2915,4.3343,4.3524,4.3404,4.3524,4.3265,4.2617,4.3235,4.2863,4.143,3.7465,3.4798,3.338,2.9722,3.01,3.3997,3.5754,3.8554,4.1981,4.2684,4.3101,4.329,4.329,4.329,4.329,4.329,4.329,4.329,4.329,4.329,4.329,4.329,4.329,4.313,4.2272,4.1344,4.041,3.9475,3.8571,3.79,3.79,3.8526,3.9188,3.9188,3.9891,4.0582,4.0582,4.0582,4.0582,4.0582,3.9847,3.9188,3.9188,3.9901,3.9163,3.5104,3.7085,3.8016,3.4884,3.4946,3.492,3.377,2.9091,2.8312,3.4395,2.8532,2.7358,3.4554,3.2764,3.2174,3.4048,3.5349,3.7476,4.0547,4.2514,4.3526,4.3526,4.8412,5.0886,5.0914,5.2096,5.2686,5.2742,5.3978,5.4906,5.5468,5.5496,5.5496,5.5496,5.5496,5.5496,5.5496,5.5496,5.5496,5.5496,5.5496,5.5496,5.5524,4.6013,4.6229,4.6477,4.7173,4.7305,4.7305,4.7305,4.7305,4.7305,4.7305,4.7305,4.7208,4.6881,4.5862,4.5043,4.4804,4.4751,4.4714,4.473,4.4871,4.498,4.5024,4.5103,4.4762,4.4034,4.4233,4.3648,4.2237,3.8226,3.5821,3.4893,3.4003,3.5726,3.9461,3.9887,4.1037,4.2684,4.2892,4.313,4.329,4.329,4.3579,4.3997,4.3997,4.4267,4.4676,4.4676,4.4676,4.4676,4.4676,4.4676,4.4635,4.4338,4.3015,4.1499,4.1197,4.0453,3.9744,3.9744,3.9935,4.0152,4.0152,4.0389,4.0603,4.0603,4.0603,4.0603,4.0603,4.0367,4.0152,4.0152,4.041,4.018,3.8848,3.8962,3.8829,3.7838,3.7329,3.6933,3.6567,3.5077,3.4963,3.7225,3.4151,3.2391,3.3374,3.1445,3.0853,3.2286,3.6351,3.8488,3.8207,4.3694,4.6251,4.5408,4.9059,5.1308,5.2124,5.2517,5.3164,5.4007,5.485,5.5327,5.5496,5.5496,5.5496,5.5496,5.5496,5.5496,5.5496,5.5496,5.5496,5.5496,5.5496,5.5496,5.5496,4.8763,4.8829,4.8829,4.8829,4.8829,4.8829,4.8829,4.8829,4.8829,4.8829,4.8829,4.8779,4.8662,4.7605,4.66,4.5766,4.5567,4.5531,4.5579,4.5642,4.572,4.5781,4.5797,4.5598,4.5134,4.5101,4.442,4.2976,3.9911,3.8161,3.7734,3.8168,3.9628,4.1893,4.212,4.2445,4.291,4.307,4.3339,4.3698,4.3698,4.4087,4.4676,4.4676,4.4945,4.5304,4.5304,4.5304,4.5304,4.5304,4.5304,4.5304,4.5304,4.4356,4.3131,4.2536,4.1716,4.0906,4.0681,4.0859,4.1134,4.1134,4.1365,4.1595,4.1595,4.1365,4.1218,4.1532,4.1344,4.1134,4.1134,4.1386,4.1386,4.071,4.041,4.0021,3.9299,3.8724,3.7941,3.6742,3.6593,3.6937,3.7831,3.6791,3.6231,3.6666,3.574,3.5583,3.6641,3.801,3.95,4.1109,4.6139,4.8555,4.8021,5.0408,5.1927,5.2714,5.3192,5.395,5.4934,5.5327,5.5496,5.5496,5.5496,5.5496,5.5496,5.5496,5.5496,5.5496,5.5496,5.5496,5.5496,5.5496,5.5496,5.5496,5.022,5.0203,5.0203,5.0203,5.0203,5.0203,5.0203,5.0203,5.0203,5.0203,5.0203,5.0203,5.0203,4.9574,4.8497,4.6799,4.6236,4.59,4.5775,4.5868,4.5947,4.5947,4.5947,4.5929,4.5896,4.5896,4.5146,4.368,4.2261,4.1558,4.1539,4.1929,4.2021,4.1932,4.2683,4.296,4.2887,4.322,4.3758,4.4356,4.4356,4.4766,4.5364,4.5364,4.5394,4.5424,4.5424,4.5424,4.5424,4.5424,4.5424,4.5424,4.5424,4.5424,4.5159,4.3625,4.2546,4.1707,4.1099,4.1571,4.2224,4.2224,4.2847,4.3459,4.3459,4.2826,4.245,4.3269,4.2806,4.2224,4.2224,4.2887,4.2878,4.1185,4.1592,4.1529,3.9782,3.9407,3.8199,3.521,3.4805,3.5352,3.6862,3.7089,3.8809,4.2777,4.3732,4.4429,4.5075,4.0238,4.0716,4.7884,4.934,5.0268,5.0886,5.2096,5.2742,5.2854,5.4063,5.4962,5.5496,5.5496,5.5496,5.5496,5.5496,5.5496,5.5496,5.5496,5.5496,5.5496,5.5496,5.5496,5.5496,5.5496,5.5496,5.5496,5.0289,5.0203,5.0203,5.0203,5.0203,5.0203,5.0203,5.0203,5.0203,5.0203,5.0203,5.0203,5.0203,5.0038,4.9772,4.934,4.8183,4.7455,4.7422,4.7455,4.7471,4.7471,4.7471,4.7206,4.6643,4.6643,4.5945,4.4508,4.3492,4.3001,4.3013,4.2995,4.324,4.3677,4.3359,4.3777,4.4652,4.4226,4.4446,4.5065,4.5065,4.5454,4.6061,4.6061,4.636,4.683,4.683,4.683,4.683,4.683,4.683,4.683,4.683,4.683,4.6548,4.5165,4.4599,4.4373,4.4225,4.4341,4.4537,4.4537,4.4682,4.4825,4.4825,4.4682,4.4578,4.4784,4.4661,4.4537,4.4537,4.4702,4.4702,4.4258,4.3788,4.3313,4.2855,4.1563,4.0354,3.9609,3.8852,3.8516,3.8906,4.0041,4.0219,3.8934,4.0556,4.2064,4.316,4.243,4.3863,4.7968,4.934,5.0268,5.0886,5.2096,5.3192,5.4147,5.4906,5.5355,5.5496,5.5496,5.5496,5.5496,5.5496,5.5496,5.5496,5.5496,5.5496,5.5496,5.5496,5.5496,5.5496,5.5496,5.5496,5.5496,5.1337,5.1214,5.1214,5.1214,5.1214,5.1214,5.1214,5.1214,5.1214,5.1214,5.1214,5.1214,5.1214,5.0883,5.0684,5.0684,4.9657,4.9028,4.9028,4.8696,4.8498,4.8498,4.8166,4.7802,4.7404,4.7404,4.6848,4.5711,4.4543,4.3968,4.3949,4.3523,4.3608,4.4154,4.3897,4.4286,4.5129,4.4874,4.5155,4.5753,4.5753,4.6172,4.6749,4.6749,4.6958,4.7309,4.7309,4.7309,4.7309,4.7309,4.7309,4.7309,4.7309,4.7309,4.716,4.6441,4.5992,4.5693,4.5364,4.5304,4.5304,4.5304,4.5304,4.5304,4.5304,4.5304,4.5304,4.5304,4.5304,4.5304,4.5304,4.5304,4.5304,4.5304,4.4374,4.3583,4.33,4.1841,4.0804,4.0763,4.0303,4.0193,4.0698,4.2006,4.2232,4.0809,4.2531,4.4088,4.5071,4.5689,4.7066,4.9314,5.0043,5.0689,5.1308,5.2517,5.3782,5.5018,5.5327,5.5496,5.5496,5.5496,5.5496,5.5496,5.5496,5.5496,5.5496,5.5496,5.5496,5.5496,5.5496,5.5496,5.5496,5.5496,5.5496,5.5552,5.271,5.2463,5.2391,5.2391,5.2391,5.2391,5.2391,5.2391,5.2391,5.2391,5.2391,5.2391,5.2391,5.1828,5.1463,5.1463,5.0883,5.0435,5.0203,4.9607,4.9276,4.9276,4.8663,4.8332,4.8332,4.8332,4.8,4.7307,4.5872,4.5166,4.5147,4.4356,4.4258,4.4708,4.4679,4.4988,4.5541,4.5463,4.5843,4.645,4.645,4.6779,4.7309,4.7309,4.7309,4.7309,4.7309,4.7309,4.7309,4.7309,4.7309,4.7309,4.7309,4.7369,4.7429,4.7339,4.698,4.645,4.5783,4.5603,4.5603,4.5603,4.5603,4.5603,4.5603,4.5603,4.5603,4.5603,4.5603,4.5603,4.5603,4.5603,4.5424,4.4945,4.4377,4.3658,4.2638,4.1877,4.1452,4.136,4.1165,4.1404,4.2377,4.3332,4.4154,4.4704,4.6268,4.7572,4.8333,4.8951,4.9822,5.0999,5.0942,5.128,5.2095,5.3163,5.4316,5.5496,5.5496,5.5496,5.5496,5.5496,5.5496,5.5496,5.5496,5.5496,5.5496,5.5496,5.5496,5.5496,5.5496,5.5496,5.5496,5.5496,5.5552,5.5721,5.3518,5.2799,5.2391,5.2391,5.2391,5.2391,5.2391,5.2391,5.2391,5.2391,5.2391,5.2391,5.2391,5.2292,5.2226,5.2226,5.2126,5.1512,5.0269,5.0071,5.0038,5.0038,4.9905,4.9839,4.9839,4.9839,4.9788,4.9685,4.8766,4.8289,4.827,4.7547,4.7478,4.7989,4.6793,4.6915,4.7966,4.6698,4.654,4.7138,4.7138,4.7219,4.7309,4.7309,4.7309,4.7309,4.7309,4.7309,4.7309,4.7309,4.7309,4.7309,4.7309,4.7698,4.8027,4.7459,4.7638,4.7848,4.716,4.701,4.701,4.701,4.701,4.701,4.701,4.701,4.701,4.701,4.701,4.701,4.701,4.701,4.6082,4.3309,4.5026,4.5699,4.2812,4.4383,4.5809,4.5797,4.4706,4.4001,4.4184,4.4368,4.4742,4.5413,4.6517,4.7937,4.9621,5.0296,5.0942,5.1645,5.1167,5.1702,5.3388,5.3613,5.4316,5.5496,5.5496,5.5496,5.5496,5.5496,5.5496,5.5496,5.5496,5.5496,5.5496,5.5496,5.5496,5.5496,5.5496,5.5496,5.5496,5.5496,5.5833,5.6253,5.4285,5.3536,5.3253,5.35,5.3301,5.3235,5.35,5.3533,5.3533,5.3533,5.3533,5.3367,5.297,5.2937,5.2771,5.2424,5.2391,5.2126,5.1413,5.1015,5.0783,5.0783,5.0402,5.0203,5.0203,5.0203,5.0203,5.0203,4.9375,4.9004,4.8986,4.8257,4.8225,4.8781,4.8079,4.834,4.9206,4.849,4.8131,4.7997,4.7997,4.773,4.7309,4.7309,4.7309,4.7369,4.7698,4.7848,4.7878,4.8259,4.8379,4.8379,4.8379,4.8588,4.8768,4.8468,4.8349,4.8207,4.7908,4.7848,4.7848,4.7848,4.7578,4.7309,4.7309,4.7309,4.7309,4.7309,4.7309,4.7309,4.7309,4.7309,4.68,4.5295,4.6022,4.6279,4.4958,4.561,4.6344,4.6518,4.5922,4.5527,4.5527,4.615,4.6823,4.7396,4.8688,5.01,5.1532,5.2007,5.2481,5.2973,5.2257,5.2461,5.3698,5.4035,5.4625,5.5496,5.5496,5.5496,5.5496,5.5496,5.5496,5.5496,5.5496,5.5496,5.5496,5.5496,5.5496,5.5496,5.5496,5.5496,5.5496,5.5496,5.5693,5.603,5.5007,5.4306,5.4096,5.4442,5.4177,5.4096,5.4442,5.4508,5.4508,5.4508,5.4508,5.4276,5.3713,5.3647,5.3448,5.2937,5.287,5.287,5.287,5.2192,5.1729,5.1563,5.1015,5.0717,5.0717,5.0717,5.0717,5.0717,5.0076,4.9794,4.9776,4.9213,4.9205,4.961,4.9451,4.9623,5.008,4.9884,4.9427,4.8851,4.8697,4.8177,4.7611,4.7546,4.7549,4.7608,4.8289,4.8528,4.8618,4.9127,4.9277,4.9277,4.9277,4.9396,4.9486,4.9337,4.9037,4.8716,4.8588,4.8528,4.8528,4.8528,4.8169,4.7758,4.7758,4.7758,4.7758,4.7758,4.7758,4.7758,4.7758,4.7758,4.7519,4.6741,4.6809,4.681,4.6291,4.6553,4.6916,4.7167,4.7108,4.7133,4.7299,4.8117,4.8862,4.9373,5.0733,5.1973,5.2946,5.3406,5.3899,5.4496,5.3492,5.3248,5.3894,5.4372,5.4906,5.5496,5.5496,5.5496,5.5496,5.5496,5.5496,5.5496,5.5496,5.5496,5.5496,5.5496,5.5496,5.5496,5.5496,5.5496,5.5524,5.5664,5.5805,5.6086,5.5751,5.4886,5.4475,5.4508,5.4475,5.4475,5.4508,5.4508,5.4508,5.4508,5.4508,5.4475,5.4409,5.4409,5.4409,5.4343,5.4343,5.4343,5.4343,5.3647,5.297,5.2358,5.2259,5.2226,5.2226,5.2226,5.2226,5.2226,5.2172,5.2154,5.2154,5.2101,5.2098,5.2095,5.128,5.0976,5.0951,5.0119,4.9765,4.9647,4.8892,4.8573,4.8469,4.8317,4.8229,4.8319,4.8977,4.9239,4.9217,4.9277,4.9277,4.9277,4.9277,4.9673,5.0009,4.9456,4.9673,4.9949,4.9366,4.9239,4.9239,4.9239,4.9187,4.9157,4.9157,4.9157,4.9157,4.9157,4.9157,4.9157,4.9157,4.9157,4.8139,4.5035,4.7091,4.7997,4.4932,4.7597,4.9872,4.9922,4.9573,4.96,5.0233,4.9921,4.9985,5.0615,5.1465,5.2268,5.2975,5.3792,5.4808,5.5995,5.4479,5.3923,5.4541,5.4569,5.4906,5.5496,5.5496,5.5496,5.5496,5.5496,5.5496,5.5496,5.5496,5.5496,5.5496,5.5496,5.5496,5.5496,5.5496,5.5496,5.558,5.6142,5.6732,5.735,5.7127,5.6363,5.5852,5.5852,5.5852,5.5852,5.5852,5.5852,5.5852,5.5852,5.5852,5.5686,5.5237,5.517,5.5005,5.4541,5.4508,5.4508,5.4508,5.4243,5.3599,5.2458,5.2391,5.2391,5.2391,5.2391,5.2391,5.2391,5.2391,5.2391,5.2391,5.2391,5.2391,5.2373,5.2035,5.1908,5.189,5.1563,5.1102,5.0551,5.0119,4.9636,4.9124,4.9002,4.8917,4.9007,4.9643,4.9883,4.9942,5.0331,5.0481,5.0481,5.0481,5.0661,5.0787,5.0541,5.0637,5.0757,5.0541,5.0182,4.9883,4.9883,4.9583,4.9277,4.9277,4.9277,4.9277,4.9277,4.9277,4.9277,4.9277,4.9277,4.8887,4.76,4.8775,4.9411,4.8155,4.962,5.0966,5.1385,5.1316,5.1491,5.2166,5.2176,5.2418,5.3093,5.3718,5.4362,5.5054,5.5464,5.6085,5.6956,5.6253,5.5725,5.5395,5.5251,5.5271,5.5496,5.5496,5.5496,5.5496,5.5496,5.5496,5.5496,5.5496,5.5496,5.5496,5.5496,5.5721,5.6058,5.6058,5.6311,5.6704,5.6929,5.7182,5.7463,5.83,5.7539,5.703,5.703,5.6853,5.6699,5.6699,5.6699,5.6699,5.6699,5.6699,5.6514,5.5998,5.5932,5.5733,5.5237,5.517,5.517,5.517,5.4972,5.4309,5.3102,5.3069,5.3069,5.3069,5.3069,5.3069,5.3069,5.2822,5.2705,5.2705,5.2491,5.2391,5.2391,5.2391,5.2391,5.2391,5.2391,5.2185,5.1792,5.1423,5.1015,5.0642,5.0188,5.0026,5.0064,5.0393,5.0518,5.0578,5.1056,5.1206,5.1206,5.1206,5.1206,5.1206,5.1206,5.1206,5.1206,5.1206,5.0877,5.0518,5.0518,5.0212,4.9905,4.9905,4.9905,4.9905,4.9905,4.9905,4.9905,4.9905,4.9905,4.9905,4.9905,5.0219,5.0607,5.0817,5.1206,5.1768,5.2426,5.2516,5.2785,5.3443,5.368,5.4097,5.4858,5.5305,5.5804,5.6488,5.6943,5.7441,5.7896,5.7902,5.7624,5.7022,5.628,5.5787,5.5496,5.5496,5.5496,5.5496,5.5496,5.5496,5.5496,5.5496,5.5496,5.5496,5.5496,5.5861,5.6393,5.6393,5.6816,5.7407,5.7603,5.7659,5.7772,5.9061,5.8318,5.7814,5.7814,5.72,5.6719,5.6699,5.6699,5.6699,5.6699,5.6699,5.6699,5.6699,5.6699,5.6699,5.6699,5.6699,5.6699,5.6699,5.5998,5.5303,5.4541,5.4508,5.4508,5.4508,5.4508,5.4508,5.4508,5.378,5.3415,5.3382,5.2705,5.2424,5.2424,5.2424,5.2424,5.2424,5.2424,5.2771,5.3327,5.2533,5.265,5.3186,5.2047,5.1612,5.1572,5.1308,5.1229,5.1229,5.1206,5.1206,5.1206,5.1206,5.1206,5.1206,5.1206,5.1206,5.1206,5.1206,5.1206,5.1206,5.1206,5.1206,5.1206,5.1206,5.1206,5.1206,5.1206,5.1206,5.1206,5.1206,5.1206,5.1206,5.1206,5.1206,5.1445,5.2127,5.2217,5.2456,5.3139,5.3228,5.3468,5.4162,5.4221,5.459,5.5551,5.5855,5.625,5.6761,5.8079,5.8818,5.8818,5.9253,5.9496,5.9496,5.7693,5.6394,5.5525,5.5525,5.5525,5.5496,5.5496,5.5496,5.5496,5.5524,5.5524,5.5524,5.5524,5.5889,5.6393,5.6393,5.6816,5.7463,5.8081,5.8306,5.839,5.9883,5.9229,5.872,5.872,5.8442,5.8123,5.7673,5.7524,5.7293,5.6776,5.6699,5.6699,5.6699,5.6699,5.6699,5.6699,5.6699,5.6699,5.6699,5.6481,5.6282,5.6051,5.5038,5.4508,5.4508,5.4508,5.4508,5.4508,5.4276,5.4177,5.4177,5.3978,5.3864,5.3846,5.3334,5.3102,5.3102,5.3102,5.3235,5.3427,5.3622,5.381,5.395,5.3471,5.3275,5.3177,5.2455,5.2154,5.2094,5.1409,5.1206,5.1206,5.1206,5.1206,5.1206,5.1206,5.1206,5.1206,5.1206,5.1206,5.1206,5.1206,5.1206,5.1206,5.1206,5.1206,5.1206,5.1206,5.1206,5.1325,5.1828,5.1917,5.2067,5.2516,5.2606,5.2665,5.2845,5.2899,5.3144,5.3832,5.3892,5.4162,5.485,5.491,5.5095,5.5551,5.6028,5.6445,5.6785,5.8079,5.8818,5.8818,5.9855,6.011,5.9496,5.8358,5.7668,5.7388,5.7388,5.7049,5.6423,5.6423,5.6078,5.5524,5.5973,5.6142,5.617,5.6648,5.7182,5.7744,5.7744,5.8109,5.8699,5.8868,5.8952,5.898,6.0777,6.0172,5.9576,5.9279,5.8823,5.8337,5.7692,5.7483,5.72,5.6757,5.6699,5.6699,5.6699,5.6699,5.6699,5.6699,5.6699,5.6699,5.6699,5.6699,5.6699,5.6699,5.5852,5.5388,5.5388,5.5388,5.5388,5.5388,5.5071,5.4939,5.4939,5.4641,5.4508,5.4475,5.4045,5.3846,5.3846,5.3846,5.4011,5.4305,5.467,5.4986,5.5181,5.47,5.4527,5.4401,5.348,5.294,5.2516,5.1957,5.1503,5.1206,5.1206,5.1206,5.1206,5.1206,5.1206,5.1206,5.1206,5.1206,5.1206,5.1206,5.1206,5.1206,5.1206,5.1206,5.1265,5.1558,5.1618,5.1798,5.2456,5.2606,5.2749,5.3139,5.3198,5.3288,5.3563,5.3593,5.3832,5.4521,5.461,5.476,5.5149,5.5179,5.5355,5.5731,5.6151,5.6519,5.6785,5.8079,5.8818,5.8818,6.0086,6.056,6.0031,5.9499,5.8879,5.8195,5.8195,5.789,5.733,5.733,5.7078,5.6595,5.7225,5.7308,5.7013,5.7666,5.8079,5.8306,5.8306,5.8671,5.9174,5.9174,5.9174,5.9174,6.1651,6.1102,6.039,5.9722,5.8908,5.8072,5.7368,5.7049,5.6891,5.6738,5.6699,5.6699,5.6699,5.6699,5.6699,5.6699,5.6699,5.6699,5.6699,5.6699,5.6699,5.6699,5.6699,5.6699,5.6699,5.6699,5.6699,5.6699,5.6051,5.57,5.5667,5.5005,5.4707,5.4674,5.4641,5.4607,5.4607,5.4607,5.5005,5.5601,5.5667,5.6117,5.6603,5.5769,5.5434,5.5312,5.4443,5.3524,5.2718,5.2538,5.1911,5.1206,5.1206,5.1206,5.1206,5.1206,5.1206,5.1206,5.1206,5.1206,5.1206,5.1206,5.1236,5.1295,5.1295,5.1295,5.1498,5.2157,5.2276,5.2486,5.3169,5.3288,5.3318,5.3378,5.3378,5.3588,5.4192,5.4311,5.4521,5.5119,5.5179,5.5179,5.5179,5.5179,5.5406,5.5954,5.6225,5.6525,5.6878,5.811,5.8849,5.891,6.0116,6.0794,6.0794,6.0794,6.0004,5.8415,5.8415,5.8388,5.8305,5.8305,5.8278,5.8254,5.8958,5.8804,5.8061,5.8783,5.8854,5.8513,5.8513,5.8789,5.9174,5.9174,5.9174,5.9174,6.177,6.163,6.1466,6.1321,6.1037,6.0421,5.9296,5.8789,5.8178,5.7067,5.6796,5.6699,5.6699,5.6699,5.6699,5.6699,5.6699,5.6699,5.6699,5.6699,5.6699,5.6699,5.6699,5.6699,5.6699,5.6699,5.6699,5.6699,5.6514,5.6448,5.6448,5.6282,5.6216,5.6183,5.5601,5.5369,5.5369,5.5369,5.5468,5.5667,5.6216,5.6567,5.668,5.6453,5.6394,5.6277,5.5353,5.4464,5.3459,5.2002,5.1363,5.1206,5.1206,5.1206,5.1206,5.1206,5.1206,5.1206,5.1206,5.1206,5.1206,5.1206,5.1594,5.1977,5.1977,5.1977,5.2187,5.2845,5.2989,5.3174,5.3862,5.3982,5.4162,5.467,5.4785,5.482,5.497,5.497,5.5029,5.5179,5.5179,5.5179,5.5179,5.5179,5.5406,5.5954,5.6053,5.6512,5.7531,5.8356,5.9033,5.9588,6.0363,6.0794,6.0794,6.0794,6.0612,6.0246,6.0246,5.9872,5.9201,5.9201,5.8852,5.8254,5.9402,5.979,5.9679,6.0823,6.0847,6.0117,6.0117,5.9714,5.9174,5.9174,5.9174,5.9174,6.1895,6.1882,6.1798,6.148,6.1271,6.0732,5.9395,5.8908,5.8354,5.7275,5.6968,5.6834,5.6834,5.6757,5.6699,5.6699,5.6699,5.6699,5.6699,5.6699,5.6699,5.6699,5.6699,5.6699,5.6699,5.6699,5.6699,5.6699,5.6699,5.6699,5.6699,5.6699,5.6699,5.6699,5.6316,5.6098,5.6098,5.6098,5.6098,5.615,5.6547,5.6699,5.6699,5.6699,5.6699,5.6583,5.5636,5.4432,5.3108,5.1658,5.1206,5.1206,5.1206,5.1206,5.1206,5.1206,5.1206,5.1206,5.1206,5.1206,5.1265,5.1618,5.1947,5.2187,5.2187,5.2456,5.2845,5.3533,5.3683,5.3862,5.4551,5.467,5.479,5.5119,5.5179,5.5179,5.5179,5.5179,5.5179,5.5179,5.5179,5.5179,5.5179,5.5179,5.5355,5.578,5.6232,5.6816,5.7574,5.8681,5.9465,5.9778,6.0455,6.0794,6.0794,6.0794,6.0794,6.0794,6.0794,6.056,6.011,6.011,5.9872,5.9506,6.0831,6.1124,6.0822,6.2133,6.2086,6.1257,6.1257,6.0714,5.9858,5.9858,5.9747,5.9623,6.1992,6.1992,6.1804,6.1286,6.0956,6.0309,5.9044,5.8547,5.8106,5.7424,5.7139,5.7006,5.7006,5.6815,5.6699,5.6699,5.6699,5.6699,5.6699,5.6699,5.6699,5.6699,5.6699,5.6699,5.6699,5.6699,5.6699,5.6699,5.6699,5.6699,5.6699,5.6699,5.6699,5.6699,5.6699,5.6699,5.6699,5.6699,5.6699,5.6699,5.6699,5.6699,5.6699,5.6699,5.6699,5.6603,5.5829,5.4474,5.2887,5.1796,5.1433,5.1409,5.1246,5.1206,5.1206,5.1206,5.1206,5.1236,5.1325,5.1355,5.1535,5.2187,5.2456,5.2546,5.2546,5.2965,5.3563,5.4221,5.4371,5.4551,5.5089,5.5179,5.5179,5.5179,5.5179,5.5179,5.5179,5.5179,5.5179,5.5179,5.5179,5.5179,5.5179,5.5179,5.533,5.5631,5.6395,5.7065,5.7609,5.8908,5.9716,5.9963,6.0517,6.0794,6.0794,6.0794,6.0794,6.0794,6.0794,6.0794,6.0794,6.0794,6.0794,6.0886,6.224,6.2364,6.1742,6.3101,6.3103,6.2233,6.2233,6.1673,6.0835,6.0981,6.0807,6.0577,6.1992,6.1992,6.1964,6.1882,6.1372,6.0696,5.9934,5.9095,5.8336,5.7662,5.7233,5.7006,5.7006,5.6815,5.6699,5.6699,5.6699,5.6699,5.6699,5.6699,5.6699,5.6699,5.6699,5.6699,5.6699,5.6699,5.6699,5.6699,5.6699,5.6699,5.6699,5.6699,5.6699,5.6699,5.6699,5.6699,5.6699,5.6699,5.6699,5.6699,5.6699,5.6699,5.6699,5.6699,5.6699,5.668,5.6564,5.5829,5.4662,5.2976,5.2403,5.2268,5.1456,5.1206,5.1206,5.1206,5.1206,5.1325,5.1917,5.2067,5.2217,5.2899,5.3503,5.3952,5.3952,5.4012,5.4251,5.491,5.5059,5.5089,5.5179,5.5179,5.5179,5.5179,5.5179,5.5179,5.5179,5.5179,5.5179,5.5179,5.5179,5.5179,5.5179,5.5179,5.5406,5.5904,5.607,5.6865,5.8527,5.8824,5.9465,6.064,6.0763,6.0794,6.0794,6.0794,6.0794,6.0794,6.0794,6.0794,6.0794,6.0794,6.0794,6.0886,6.224,6.2745,6.2729,6.411,6.4101,6.3218,6.3218,6.2641,6.188,6.2468,6.2673,6.2579,6.3345,6.3345,6.3345,6.3345,6.3098,6.2517,6.1443,6.0952,6.01,5.8595,5.8039,5.7682,5.736,5.7063,5.6815,5.6699,5.6699,5.6699,5.6699,5.6699,5.6699,5.6699,5.6699,5.6699,5.6699,5.6699,5.6699,5.6699,5.6699,5.6699,5.6699,5.6699,5.6699,5.6699,5.6699,5.6699,5.6699,5.6699,5.6699,5.6699,5.6699,5.6699,5.6699,5.6699,5.6699,5.6641,5.6119,5.5333,5.438,5.3042,5.2606,5.2426,5.1503,5.1206,5.1206,5.1206,5.1468,5.1828,5.2127,5.2456,5.2929,5.3593,5.3683,5.3743,5.4132,5.3922,5.3922,5.497,5.5179,5.5179,5.5179,5.5179,5.5179,5.5179,5.5179,5.5179,5.5179,5.5179,5.5179,5.5179,5.5534,5.5623,5.5239,5.5837,5.6059,5.5591,5.6859,5.7867,5.8334,5.9348,6.0178,6.0794,6.0794,6.0794,6.0794,6.0794,6.0794,6.0794,6.0794,6.0794,6.0794,6.0794,6.0794,6.0886,6.224,6.2798,6.2891,6.4334,6.4666,6.4303,6.4669,6.4433,6.392,6.3713,6.3827,6.409]}]]